<?xml version="1.0" encoding="UTF-8" standalone="yes" ?>
<gpx
 xmlns="http://www.topografix.com/GPX/1/1" 
 creator= "A-GPS Tracker3.6.2"
 version= "1.1"
 xmlns:xsi="http://www.w3.org/2001/XMLSchema-instance" 
 xsi:schemaLocation="http://www.topografix.com/GPX/1/1 http://www.topografix.com/GPX/1/1/gpx.xsd">
<metadata>
	<name>lanoux-03-23-15-35</name>
	<desc></desc>
</metadata>	<wpt lat="42.54899054" lon="1.83181015"><ele>1638.1</ele><time>2019-03-23T12:21:29Z</time><name>font vives</name><desc>Alt=1638m Lat=42,5490° Lon=1,8318°</desc></wpt>

<trk>
	<name></name>
	<desc></desc>
<trkseg>
	<trkpt lat="42.54833883" lon="1.83002602"><ele>1633.1</ele><time>2019-03-23T11:14:24Z</time></trkpt>
	<trkpt lat="42.54836990" lon="1.82995974"><ele>1626.1</ele><time>2019-03-23T11:14:40Z</time></trkpt>
	<trkpt lat="42.54841526" lon="1.82993571"><ele>1616.0</ele><time>2019-03-23T11:15:11Z</time></trkpt>
	<trkpt lat="42.54845343" lon="1.82989590"><ele>1615.0</ele><time>2019-03-23T11:15:19Z</time></trkpt>
	<trkpt lat="42.54841613" lon="1.82985809"><ele>1617.4</ele><time>2019-03-23T11:15:49Z</time></trkpt>
	<trkpt lat="42.54839108" lon="1.82991102"><ele>1615.7</ele><time>2019-03-23T11:16:01Z</time></trkpt>
	<trkpt lat="42.54839489" lon="1.82997378"><ele>1617.3</ele><time>2019-03-23T11:16:05Z</time></trkpt>
	<trkpt lat="42.54835387" lon="1.83000286"><ele>1618.4</ele><time>2019-03-23T11:16:23Z</time></trkpt>
	<trkpt lat="42.54833037" lon="1.83006200"><ele>1618.3</ele><time>2019-03-23T11:16:28Z</time></trkpt>
	<trkpt lat="42.54830682" lon="1.83012060"><ele>1618.3</ele><time>2019-03-23T11:16:32Z</time></trkpt>
	<trkpt lat="42.54827698" lon="1.83017341"><ele>1618.3</ele><time>2019-03-23T11:16:36Z</time></trkpt>
	<trkpt lat="42.54825343" lon="1.83022635"><ele>1619.0</ele><time>2019-03-23T11:16:40Z</time></trkpt>
	<trkpt lat="42.54822701" lon="1.83029496"><ele>1618.6</ele><time>2019-03-23T11:16:44Z</time></trkpt>
	<trkpt lat="42.54820762" lon="1.83036387"><ele>1618.8</ele><time>2019-03-23T11:16:48Z</time></trkpt>
	<trkpt lat="42.54819427" lon="1.83043192"><ele>1619.2</ele><time>2019-03-23T11:16:53Z</time></trkpt>
	<trkpt lat="42.54819269" lon="1.83050681"><ele>1620.2</ele><time>2019-03-23T11:16:57Z</time></trkpt>
	<trkpt lat="42.54820496" lon="1.83058104"><ele>1621.7</ele><time>2019-03-23T11:17:01Z</time></trkpt>
	<trkpt lat="42.54821409" lon="1.83064950"><ele>1622.8</ele><time>2019-03-23T11:17:05Z</time></trkpt>
	<trkpt lat="42.54824040" lon="1.83070407"><ele>1622.3</ele><time>2019-03-23T11:17:10Z</time></trkpt>
	<trkpt lat="42.54829324" lon="1.83071846"><ele>1622.2</ele><time>2019-03-23T11:17:17Z</time></trkpt>
	<trkpt lat="42.54834983" lon="1.83072256"><ele>1622.4</ele><time>2019-03-23T11:17:22Z</time></trkpt>
	<trkpt lat="42.54838525" lon="1.83076213"><ele>1623.0</ele><time>2019-03-23T11:17:27Z</time></trkpt>
	<trkpt lat="42.54838483" lon="1.83083254"><ele>1623.8</ele><time>2019-03-23T11:17:32Z</time></trkpt>
	<trkpt lat="42.54838192" lon="1.83090121"><ele>1624.2</ele><time>2019-03-23T11:17:36Z</time></trkpt>
	<trkpt lat="42.54837253" lon="1.83097069"><ele>1624.5</ele><time>2019-03-23T11:17:40Z</time></trkpt>
	<trkpt lat="42.54837411" lon="1.83103903"><ele>1624.7</ele><time>2019-03-23T11:17:44Z</time></trkpt>
	<trkpt lat="42.54838132" lon="1.83111056"><ele>1625.1</ele><time>2019-03-23T11:17:49Z</time></trkpt>
	<trkpt lat="42.54840972" lon="1.83116272"><ele>1625.2</ele><time>2019-03-23T11:17:54Z</time></trkpt>
	<trkpt lat="42.54845556" lon="1.83118656"><ele>1625.9</ele><time>2019-03-23T11:18:00Z</time></trkpt>
	<trkpt lat="42.54849443" lon="1.83122032"><ele>1626.3</ele><time>2019-03-23T11:18:06Z</time></trkpt>
	<trkpt lat="42.54852454" lon="1.83128415"><ele>1627.1</ele><time>2019-03-23T11:18:11Z</time></trkpt>
	<trkpt lat="42.54855117" lon="1.83133977"><ele>1627.6</ele><time>2019-03-23T11:18:15Z</time></trkpt>
	<trkpt lat="42.54859010" lon="1.83138977"><ele>1628.4</ele><time>2019-03-23T11:18:20Z</time></trkpt>
	<trkpt lat="42.54863721" lon="1.83142408"><ele>1629.1</ele><time>2019-03-23T11:18:25Z</time></trkpt>
	<trkpt lat="42.54868548" lon="1.83144754"><ele>1629.9</ele><time>2019-03-23T11:18:30Z</time></trkpt>
	<trkpt lat="42.54873526" lon="1.83147320"><ele>1631.0</ele><time>2019-03-23T11:18:35Z</time></trkpt>
	<trkpt lat="42.54878026" lon="1.83149627"><ele>1632.1</ele><time>2019-03-23T11:18:40Z</time></trkpt>
	<trkpt lat="42.54883325" lon="1.83151980"><ele>1633.5</ele><time>2019-03-23T11:18:46Z</time></trkpt>
	<trkpt lat="42.54887434" lon="1.83154873"><ele>1634.9</ele><time>2019-03-23T11:18:52Z</time></trkpt>
	<trkpt lat="42.54891174" lon="1.83160787"><ele>1635.7</ele><time>2019-03-23T11:18:57Z</time></trkpt>
	<trkpt lat="42.54893898" lon="1.83166114"><ele>1636.3</ele><time>2019-03-23T11:19:01Z</time></trkpt>
	<trkpt lat="42.54896589" lon="1.83171875"><ele>1636.9</ele><time>2019-03-23T11:19:05Z</time></trkpt>
	<trkpt lat="42.54897739" lon="1.83178639"><ele>1637.5</ele><time>2019-03-23T11:19:10Z</time></trkpt>
	<trkpt lat="42.54900903" lon="1.83185101"><ele>1638.0</ele><time>2019-03-23T11:22:24Z</time></trkpt>
	<trkpt lat="42.54904030" lon="1.83190593"><ele>1638.3</ele><time>2019-03-23T11:22:28Z</time></trkpt>
	<trkpt lat="42.54907105" lon="1.83195822"><ele>1638.6</ele><time>2019-03-23T11:22:32Z</time></trkpt>
	<trkpt lat="42.54910369" lon="1.83200433"><ele>1638.9</ele><time>2019-03-23T11:22:36Z</time></trkpt>
	<trkpt lat="42.54913997" lon="1.83204228"><ele>1639.1</ele><time>2019-03-23T11:22:40Z</time></trkpt>
	<trkpt lat="42.54918919" lon="1.83207829"><ele>1639.4</ele><time>2019-03-23T11:22:45Z</time></trkpt>
	<trkpt lat="42.54923334" lon="1.83210256"><ele>1639.7</ele><time>2019-03-23T11:22:49Z</time></trkpt>
	<trkpt lat="42.54927761" lon="1.83212776"><ele>1640.1</ele><time>2019-03-23T11:22:53Z</time></trkpt>
	<trkpt lat="42.54932265" lon="1.83215380"><ele>1640.4</ele><time>2019-03-23T11:22:57Z</time></trkpt>
	<trkpt lat="42.54937146" lon="1.83217905"><ele>1640.7</ele><time>2019-03-23T11:23:01Z</time></trkpt>
	<trkpt lat="42.54942053" lon="1.83220221"><ele>1641.0</ele><time>2019-03-23T11:23:05Z</time></trkpt>
	<trkpt lat="42.54946707" lon="1.83222171"><ele>1641.2</ele><time>2019-03-23T11:23:09Z</time></trkpt>
	<trkpt lat="42.54951601" lon="1.83224215"><ele>1641.4</ele><time>2019-03-23T11:23:13Z</time></trkpt>
	<trkpt lat="42.54956456" lon="1.83225918"><ele>1641.6</ele><time>2019-03-23T11:23:17Z</time></trkpt>
	<trkpt lat="42.54961381" lon="1.83228354"><ele>1641.8</ele><time>2019-03-23T11:23:21Z</time></trkpt>
	<trkpt lat="42.54966146" lon="1.83231406"><ele>1642.1</ele><time>2019-03-23T11:23:25Z</time></trkpt>
	<trkpt lat="42.54969761" lon="1.83236389"><ele>1642.4</ele><time>2019-03-23T11:23:29Z</time></trkpt>
	<trkpt lat="42.54972753" lon="1.83242288"><ele>1642.6</ele><time>2019-03-23T11:23:33Z</time></trkpt>
	<trkpt lat="42.54974722" lon="1.83249011"><ele>1642.9</ele><time>2019-03-23T11:23:37Z</time></trkpt>
	<trkpt lat="42.54975646" lon="1.83256041"><ele>1643.2</ele><time>2019-03-23T11:23:41Z</time></trkpt>
	<trkpt lat="42.54974511" lon="1.83262743"><ele>1643.6</ele><time>2019-03-23T11:23:45Z</time></trkpt>
	<trkpt lat="42.54972953" lon="1.83269168"><ele>1643.8</ele><time>2019-03-23T11:23:49Z</time></trkpt>
	<trkpt lat="42.54973219" lon="1.83275778"><ele>1644.0</ele><time>2019-03-23T11:23:53Z</time></trkpt>
	<trkpt lat="42.54973316" lon="1.83282437"><ele>1644.2</ele><time>2019-03-23T11:23:57Z</time></trkpt>
	<trkpt lat="42.54973097" lon="1.83289586"><ele>1644.5</ele><time>2019-03-23T11:24:01Z</time></trkpt>
	<trkpt lat="42.54973034" lon="1.83296474"><ele>1644.8</ele><time>2019-03-23T11:24:05Z</time></trkpt>
	<trkpt lat="42.54972918" lon="1.83302845"><ele>1644.9</ele><time>2019-03-23T11:24:09Z</time></trkpt>
	<trkpt lat="42.54973046" lon="1.83310090"><ele>1644.6</ele><time>2019-03-23T11:24:13Z</time></trkpt>
	<trkpt lat="42.54973093" lon="1.83316719"><ele>1644.5</ele><time>2019-03-23T11:24:17Z</time></trkpt>
	<trkpt lat="42.54973495" lon="1.83322863"><ele>1645.1</ele><time>2019-03-23T11:24:21Z</time></trkpt>
	<trkpt lat="42.54974132" lon="1.83329988"><ele>1645.5</ele><time>2019-03-23T11:24:25Z</time></trkpt>
	<trkpt lat="42.54974497" lon="1.83337260"><ele>1645.8</ele><time>2019-03-23T11:24:29Z</time></trkpt>
	<trkpt lat="42.54974391" lon="1.83344341"><ele>1646.0</ele><time>2019-03-23T11:24:33Z</time></trkpt>
	<trkpt lat="42.54974078" lon="1.83350462"><ele>1646.3</ele><time>2019-03-23T11:24:37Z</time></trkpt>
	<trkpt lat="42.54974433" lon="1.83356840"><ele>1646.5</ele><time>2019-03-23T11:24:41Z</time></trkpt>
	<trkpt lat="42.54974860" lon="1.83363384"><ele>1646.8</ele><time>2019-03-23T11:24:45Z</time></trkpt>
	<trkpt lat="42.54974928" lon="1.83370094"><ele>1647.0</ele><time>2019-03-23T11:24:49Z</time></trkpt>
	<trkpt lat="42.54974937" lon="1.83376974"><ele>1647.2</ele><time>2019-03-23T11:24:53Z</time></trkpt>
	<trkpt lat="42.54975355" lon="1.83383851"><ele>1647.4</ele><time>2019-03-23T11:24:57Z</time></trkpt>
	<trkpt lat="42.54975370" lon="1.83390780"><ele>1647.6</ele><time>2019-03-23T11:25:01Z</time></trkpt>
	<trkpt lat="42.54975124" lon="1.83397301"><ele>1647.9</ele><time>2019-03-23T11:25:05Z</time></trkpt>
	<trkpt lat="42.54974862" lon="1.83403763"><ele>1648.2</ele><time>2019-03-23T11:25:09Z</time></trkpt>
	<trkpt lat="42.54974858" lon="1.83410498"><ele>1648.5</ele><time>2019-03-23T11:25:13Z</time></trkpt>
	<trkpt lat="42.54975046" lon="1.83417260"><ele>1648.8</ele><time>2019-03-23T11:25:17Z</time></trkpt>
	<trkpt lat="42.54975192" lon="1.83423929"><ele>1649.0</ele><time>2019-03-23T11:25:21Z</time></trkpt>
	<trkpt lat="42.54975015" lon="1.83430145"><ele>1649.2</ele><time>2019-03-23T11:25:25Z</time></trkpt>
	<trkpt lat="42.54975467" lon="1.83436534"><ele>1649.6</ele><time>2019-03-23T11:25:29Z</time></trkpt>
	<trkpt lat="42.54976139" lon="1.83443551"><ele>1650.0</ele><time>2019-03-23T11:25:33Z</time></trkpt>
	<trkpt lat="42.54976478" lon="1.83449993"><ele>1650.4</ele><time>2019-03-23T11:25:37Z</time></trkpt>
	<trkpt lat="42.54976787" lon="1.83456361"><ele>1650.7</ele><time>2019-03-23T11:25:41Z</time></trkpt>
	<trkpt lat="42.54976481" lon="1.83463574"><ele>1651.3</ele><time>2019-03-23T11:25:46Z</time></trkpt>
	<trkpt lat="42.54977063" lon="1.83469901"><ele>1651.6</ele><time>2019-03-23T11:25:50Z</time></trkpt>
	<trkpt lat="42.54977782" lon="1.83476245"><ele>1651.8</ele><time>2019-03-23T11:25:54Z</time></trkpt>
	<trkpt lat="42.54978553" lon="1.83482865"><ele>1652.1</ele><time>2019-03-23T11:25:58Z</time></trkpt>
	<trkpt lat="42.54978841" lon="1.83489565"><ele>1652.5</ele><time>2019-03-23T11:26:02Z</time></trkpt>
	<trkpt lat="42.54978794" lon="1.83495888"><ele>1652.8</ele><time>2019-03-23T11:26:06Z</time></trkpt>
	<trkpt lat="42.54978387" lon="1.83502134"><ele>1653.1</ele><time>2019-03-23T11:26:10Z</time></trkpt>
	<trkpt lat="42.54977910" lon="1.83508894"><ele>1653.5</ele><time>2019-03-23T11:26:14Z</time></trkpt>
	<trkpt lat="42.54977294" lon="1.83515369"><ele>1653.9</ele><time>2019-03-23T11:26:18Z</time></trkpt>
	<trkpt lat="42.54976888" lon="1.83522077"><ele>1654.3</ele><time>2019-03-23T11:26:22Z</time></trkpt>
	<trkpt lat="42.54976533" lon="1.83528793"><ele>1654.6</ele><time>2019-03-23T11:26:26Z</time></trkpt>
	<trkpt lat="42.54974207" lon="1.83534583"><ele>1654.8</ele><time>2019-03-23T11:26:30Z</time></trkpt>
	<trkpt lat="42.54970848" lon="1.83539191"><ele>1654.6</ele><time>2019-03-23T11:26:34Z</time></trkpt>
	<trkpt lat="42.54967862" lon="1.83544898"><ele>1654.5</ele><time>2019-03-23T11:26:38Z</time></trkpt>
	<trkpt lat="42.54966765" lon="1.83551276"><ele>1654.6</ele><time>2019-03-23T11:26:42Z</time></trkpt>
	<trkpt lat="42.54966632" lon="1.83557820"><ele>1654.8</ele><time>2019-03-23T11:26:46Z</time></trkpt>
	<trkpt lat="42.54966695" lon="1.83563996"><ele>1654.9</ele><time>2019-03-23T11:26:50Z</time></trkpt>
	<trkpt lat="42.54966473" lon="1.83571539"><ele>1655.2</ele><time>2019-03-23T11:26:55Z</time></trkpt>
	<trkpt lat="42.54965856" lon="1.83578879"><ele>1655.5</ele><time>2019-03-23T11:27:00Z</time></trkpt>
	<trkpt lat="42.54965144" lon="1.83585339"><ele>1655.7</ele><time>2019-03-23T11:27:04Z</time></trkpt>
	<trkpt lat="42.54964407" lon="1.83591687"><ele>1656.0</ele><time>2019-03-23T11:27:08Z</time></trkpt>
	<trkpt lat="42.54964013" lon="1.83598108"><ele>1656.3</ele><time>2019-03-23T11:27:12Z</time></trkpt>
	<trkpt lat="42.54963715" lon="1.83604893"><ele>1656.5</ele><time>2019-03-23T11:27:16Z</time></trkpt>
	<trkpt lat="42.54963048" lon="1.83611484"><ele>1656.7</ele><time>2019-03-23T11:27:20Z</time></trkpt>
	<trkpt lat="42.54962363" lon="1.83617869"><ele>1657.0</ele><time>2019-03-23T11:27:24Z</time></trkpt>
	<trkpt lat="42.54961721" lon="1.83624031"><ele>1657.4</ele><time>2019-03-23T11:27:28Z</time></trkpt>
	<trkpt lat="42.54961476" lon="1.83630277"><ele>1657.8</ele><time>2019-03-23T11:27:32Z</time></trkpt>
	<trkpt lat="42.54961138" lon="1.83636617"><ele>1658.1</ele><time>2019-03-23T11:27:36Z</time></trkpt>
	<trkpt lat="42.54961509" lon="1.83643770"><ele>1658.4</ele><time>2019-03-23T11:27:41Z</time></trkpt>
	<trkpt lat="42.54961322" lon="1.83650214"><ele>1658.6</ele><time>2019-03-23T11:27:45Z</time></trkpt>
	<trkpt lat="42.54961628" lon="1.83656478"><ele>1658.9</ele><time>2019-03-23T11:27:49Z</time></trkpt>
	<trkpt lat="42.54961718" lon="1.83662989"><ele>1659.2</ele><time>2019-03-23T11:27:53Z</time></trkpt>
	<trkpt lat="42.54961835" lon="1.83669660"><ele>1659.4</ele><time>2019-03-23T11:27:57Z</time></trkpt>
	<trkpt lat="42.54962063" lon="1.83676037"><ele>1659.6</ele><time>2019-03-23T11:28:01Z</time></trkpt>
	<trkpt lat="42.54962172" lon="1.83682395"><ele>1659.7</ele><time>2019-03-23T11:28:05Z</time></trkpt>
	<trkpt lat="42.54962045" lon="1.83688920"><ele>1659.9</ele><time>2019-03-23T11:28:09Z</time></trkpt>
	<trkpt lat="42.54962566" lon="1.83695276"><ele>1660.1</ele><time>2019-03-23T11:28:13Z</time></trkpt>
	<trkpt lat="42.54962908" lon="1.83701663"><ele>1660.3</ele><time>2019-03-23T11:28:17Z</time></trkpt>
	<trkpt lat="42.54963530" lon="1.83708483"><ele>1660.6</ele><time>2019-03-23T11:28:21Z</time></trkpt>
	<trkpt lat="42.54964052" lon="1.83714853"><ele>1660.9</ele><time>2019-03-23T11:28:25Z</time></trkpt>
	<trkpt lat="42.54964502" lon="1.83720988"><ele>1661.6</ele><time>2019-03-23T11:28:38Z</time></trkpt>
	<trkpt lat="42.54964698" lon="1.83728013"><ele>1661.7</ele><time>2019-03-23T11:28:43Z</time></trkpt>
	<trkpt lat="42.54964619" lon="1.83734213"><ele>1661.9</ele><time>2019-03-23T11:28:47Z</time></trkpt>
	<trkpt lat="42.54964684" lon="1.83740351"><ele>1662.3</ele><time>2019-03-23T11:28:51Z</time></trkpt>
	<trkpt lat="42.54964869" lon="1.83746821"><ele>1662.7</ele><time>2019-03-23T11:28:55Z</time></trkpt>
	<trkpt lat="42.54965142" lon="1.83753426"><ele>1663.1</ele><time>2019-03-23T11:28:59Z</time></trkpt>
	<trkpt lat="42.54965258" lon="1.83759967"><ele>1663.4</ele><time>2019-03-23T11:29:03Z</time></trkpt>
	<trkpt lat="42.54965461" lon="1.83766414"><ele>1663.8</ele><time>2019-03-23T11:29:07Z</time></trkpt>
	<trkpt lat="42.54965573" lon="1.83772862"><ele>1664.1</ele><time>2019-03-23T11:29:11Z</time></trkpt>
	<trkpt lat="42.54965749" lon="1.83779372"><ele>1664.4</ele><time>2019-03-23T11:29:15Z</time></trkpt>
	<trkpt lat="42.54965764" lon="1.83785735"><ele>1664.7</ele><time>2019-03-23T11:29:19Z</time></trkpt>
	<trkpt lat="42.54966008" lon="1.83792368"><ele>1665.0</ele><time>2019-03-23T11:29:23Z</time></trkpt>
	<trkpt lat="42.54966098" lon="1.83798774"><ele>1665.2</ele><time>2019-03-23T11:29:27Z</time></trkpt>
	<trkpt lat="42.54966213" lon="1.83805277"><ele>1665.5</ele><time>2019-03-23T11:29:31Z</time></trkpt>
	<trkpt lat="42.54966306" lon="1.83811808"><ele>1665.8</ele><time>2019-03-23T11:29:35Z</time></trkpt>
	<trkpt lat="42.54966667" lon="1.83818104"><ele>1666.1</ele><time>2019-03-23T11:29:39Z</time></trkpt>
	<trkpt lat="42.54966801" lon="1.83824452"><ele>1666.3</ele><time>2019-03-23T11:29:43Z</time></trkpt>
	<trkpt lat="42.54966963" lon="1.83831277"><ele>1666.5</ele><time>2019-03-23T11:29:47Z</time></trkpt>
	<trkpt lat="42.54967163" lon="1.83838153"><ele>1666.7</ele><time>2019-03-23T11:29:51Z</time></trkpt>
	<trkpt lat="42.54967541" lon="1.83844633"><ele>1666.9</ele><time>2019-03-23T11:29:55Z</time></trkpt>
	<trkpt lat="42.54967768" lon="1.83851170"><ele>1667.1</ele><time>2019-03-23T11:29:59Z</time></trkpt>
	<trkpt lat="42.54968158" lon="1.83857611"><ele>1667.3</ele><time>2019-03-23T11:30:03Z</time></trkpt>
	<trkpt lat="42.54968511" lon="1.83864329"><ele>1667.5</ele><time>2019-03-23T11:30:07Z</time></trkpt>
	<trkpt lat="42.54969137" lon="1.83870910"><ele>1667.8</ele><time>2019-03-23T11:30:11Z</time></trkpt>
	<trkpt lat="42.54969767" lon="1.83877516"><ele>1668.2</ele><time>2019-03-23T11:30:15Z</time></trkpt>
	<trkpt lat="42.54970328" lon="1.83883915"><ele>1668.5</ele><time>2019-03-23T11:30:19Z</time></trkpt>
	<trkpt lat="42.54970969" lon="1.83890329"><ele>1668.8</ele><time>2019-03-23T11:30:23Z</time></trkpt>
	<trkpt lat="42.54971414" lon="1.83896615"><ele>1669.1</ele><time>2019-03-23T11:30:27Z</time></trkpt>
	<trkpt lat="42.54971885" lon="1.83903078"><ele>1669.4</ele><time>2019-03-23T11:30:31Z</time></trkpt>
	<trkpt lat="42.54972427" lon="1.83910144"><ele>1669.7</ele><time>2019-03-23T11:30:35Z</time></trkpt>
	<trkpt lat="42.54972651" lon="1.83917184"><ele>1670.0</ele><time>2019-03-23T11:30:39Z</time></trkpt>
	<trkpt lat="42.54972915" lon="1.83924076"><ele>1670.3</ele><time>2019-03-23T11:30:43Z</time></trkpt>
	<trkpt lat="42.54973272" lon="1.83930340"><ele>1670.6</ele><time>2019-03-23T11:30:47Z</time></trkpt>
	<trkpt lat="42.54973692" lon="1.83936708"><ele>1670.9</ele><time>2019-03-23T11:30:51Z</time></trkpt>
	<trkpt lat="42.54974465" lon="1.83943732"><ele>1671.3</ele><time>2019-03-23T11:30:55Z</time></trkpt>
	<trkpt lat="42.54975068" lon="1.83950469"><ele>1671.7</ele><time>2019-03-23T11:30:59Z</time></trkpt>
	<trkpt lat="42.54975432" lon="1.83957280"><ele>1672.0</ele><time>2019-03-23T11:31:03Z</time></trkpt>
	<trkpt lat="42.54975683" lon="1.83963809"><ele>1672.2</ele><time>2019-03-23T11:31:07Z</time></trkpt>
	<trkpt lat="42.54975927" lon="1.83970566"><ele>1672.5</ele><time>2019-03-23T11:31:11Z</time></trkpt>
	<trkpt lat="42.54976316" lon="1.83977484"><ele>1672.6</ele><time>2019-03-23T11:31:15Z</time></trkpt>
	<trkpt lat="42.54976197" lon="1.83984363"><ele>1672.8</ele><time>2019-03-23T11:31:19Z</time></trkpt>
	<trkpt lat="42.54976214" lon="1.83991042"><ele>1673.0</ele><time>2019-03-23T11:31:23Z</time></trkpt>
	<trkpt lat="42.54976161" lon="1.83998847"><ele>1673.0</ele><time>2019-03-23T11:31:27Z</time></trkpt>
	<trkpt lat="42.54975859" lon="1.84005646"><ele>1673.1</ele><time>2019-03-23T11:31:31Z</time></trkpt>
	<trkpt lat="42.54975690" lon="1.84012683"><ele>1673.1</ele><time>2019-03-23T11:31:35Z</time></trkpt>
	<trkpt lat="42.54976174" lon="1.84019057"><ele>1673.1</ele><time>2019-03-23T11:31:39Z</time></trkpt>
	<trkpt lat="42.54976517" lon="1.84025482"><ele>1673.3</ele><time>2019-03-23T11:31:43Z</time></trkpt>
	<trkpt lat="42.54977376" lon="1.84031887"><ele>1673.6</ele><time>2019-03-23T11:31:47Z</time></trkpt>
	<trkpt lat="42.54978067" lon="1.84038307"><ele>1673.8</ele><time>2019-03-23T11:31:51Z</time></trkpt>
	<trkpt lat="42.54978826" lon="1.84044588"><ele>1674.1</ele><time>2019-03-23T11:31:55Z</time></trkpt>
	<trkpt lat="42.54979634" lon="1.84051114"><ele>1674.3</ele><time>2019-03-23T11:31:59Z</time></trkpt>
	<trkpt lat="42.54980599" lon="1.84057373"><ele>1674.6</ele><time>2019-03-23T11:32:03Z</time></trkpt>
	<trkpt lat="42.54981497" lon="1.84064056"><ele>1674.9</ele><time>2019-03-23T11:32:07Z</time></trkpt>
	<trkpt lat="42.54982171" lon="1.84070753"><ele>1675.2</ele><time>2019-03-23T11:32:11Z</time></trkpt>
	<trkpt lat="42.54982668" lon="1.84077553"><ele>1675.5</ele><time>2019-03-23T11:32:15Z</time></trkpt>
	<trkpt lat="42.54982967" lon="1.84084349"><ele>1675.6</ele><time>2019-03-23T11:32:19Z</time></trkpt>
	<trkpt lat="42.54983040" lon="1.84090913"><ele>1675.8</ele><time>2019-03-23T11:32:23Z</time></trkpt>
	<trkpt lat="42.54982915" lon="1.84097045"><ele>1676.1</ele><time>2019-03-23T11:32:27Z</time></trkpt>
	<trkpt lat="42.54982418" lon="1.84103332"><ele>1676.3</ele><time>2019-03-23T11:32:31Z</time></trkpt>
	<trkpt lat="42.54981880" lon="1.84109624"><ele>1676.5</ele><time>2019-03-23T11:32:35Z</time></trkpt>
	<trkpt lat="42.54981447" lon="1.84116008"><ele>1676.6</ele><time>2019-03-23T11:32:39Z</time></trkpt>
	<trkpt lat="42.54981070" lon="1.84122842"><ele>1676.8</ele><time>2019-03-23T11:32:43Z</time></trkpt>
	<trkpt lat="42.54980523" lon="1.84129446"><ele>1677.1</ele><time>2019-03-23T11:32:47Z</time></trkpt>
	<trkpt lat="42.54980177" lon="1.84136090"><ele>1677.3</ele><time>2019-03-23T11:32:51Z</time></trkpt>
	<trkpt lat="42.54979681" lon="1.84142640"><ele>1677.6</ele><time>2019-03-23T11:32:55Z</time></trkpt>
	<trkpt lat="42.54979456" lon="1.84149399"><ele>1677.8</ele><time>2019-03-23T11:32:59Z</time></trkpt>
	<trkpt lat="42.54978559" lon="1.84156126"><ele>1678.1</ele><time>2019-03-23T11:33:03Z</time></trkpt>
	<trkpt lat="42.54978339" lon="1.84162920"><ele>1678.3</ele><time>2019-03-23T11:33:07Z</time></trkpt>
	<trkpt lat="42.54978609" lon="1.84170081"><ele>1678.6</ele><time>2019-03-23T11:33:11Z</time></trkpt>
	<trkpt lat="42.54979176" lon="1.84176885"><ele>1678.9</ele><time>2019-03-23T11:33:15Z</time></trkpt>
	<trkpt lat="42.54980238" lon="1.84183453"><ele>1679.1</ele><time>2019-03-23T11:33:19Z</time></trkpt>
	<trkpt lat="42.54981893" lon="1.84189156"><ele>1679.3</ele><time>2019-03-23T11:33:23Z</time></trkpt>
	<trkpt lat="42.54985047" lon="1.84194254"><ele>1679.5</ele><time>2019-03-23T11:33:27Z</time></trkpt>
	<trkpt lat="42.54988583" lon="1.84198431"><ele>1679.6</ele><time>2019-03-23T11:33:31Z</time></trkpt>
	<trkpt lat="42.54992504" lon="1.84201571"><ele>1679.8</ele><time>2019-03-23T11:33:35Z</time></trkpt>
	<trkpt lat="42.54996320" lon="1.84204977"><ele>1680.0</ele><time>2019-03-23T11:33:39Z</time></trkpt>
	<trkpt lat="42.55000333" lon="1.84207921"><ele>1680.3</ele><time>2019-03-23T11:33:43Z</time></trkpt>
	<trkpt lat="42.55004850" lon="1.84211409"><ele>1680.8</ele><time>2019-03-23T11:33:48Z</time></trkpt>
	<trkpt lat="42.55008267" lon="1.84216551"><ele>1681.3</ele><time>2019-03-23T11:33:53Z</time></trkpt>
	<trkpt lat="42.55010594" lon="1.84222902"><ele>1682.3</ele><time>2019-03-23T11:33:59Z</time></trkpt>
	<trkpt lat="42.55014597" lon="1.84234356"><ele>1683.5</ele><time>2019-03-23T11:34:09Z</time></trkpt>
	<trkpt lat="42.55021360" lon="1.84249131"><ele>1684.6</ele><time>2019-03-23T11:34:22Z</time></trkpt>
	<trkpt lat="42.55024172" lon="1.84255106"><ele>1685.0</ele><time>2019-03-23T11:34:27Z</time></trkpt>
	<trkpt lat="42.55027230" lon="1.84272406"><ele>1685.3</ele><time>2019-03-23T11:34:39Z</time></trkpt>
	<trkpt lat="42.55029935" lon="1.84278066"><ele>1685.2</ele><time>2019-03-23T11:34:44Z</time></trkpt>
	<trkpt lat="42.55033651" lon="1.84309706"><ele>1685.5</ele><time>2019-03-23T11:35:09Z</time></trkpt>
	<trkpt lat="42.55035104" lon="1.84316781"><ele>1686.3</ele><time>2019-03-23T11:35:15Z</time></trkpt>
	<trkpt lat="42.55035887" lon="1.84324074"><ele>1686.7</ele><time>2019-03-23T11:35:20Z</time></trkpt>
	<trkpt lat="42.55037071" lon="1.84331421"><ele>1687.1</ele><time>2019-03-23T11:35:25Z</time></trkpt>
	<trkpt lat="42.55038264" lon="1.84338042"><ele>1687.6</ele><time>2019-03-23T11:35:30Z</time></trkpt>
	<trkpt lat="42.55039848" lon="1.84343919"><ele>1688.2</ele><time>2019-03-23T11:35:35Z</time></trkpt>
	<trkpt lat="42.55039934" lon="1.84350736"><ele>1688.5</ele><time>2019-03-23T11:35:40Z</time></trkpt>
	<trkpt lat="42.55040686" lon="1.84356919"><ele>1688.6</ele><time>2019-03-23T11:35:44Z</time></trkpt>
	<trkpt lat="42.55040719" lon="1.84363282"><ele>1688.9</ele><time>2019-03-23T11:35:48Z</time></trkpt>
	<trkpt lat="42.55041593" lon="1.84369561"><ele>1689.1</ele><time>2019-03-23T11:35:52Z</time></trkpt>
	<trkpt lat="42.55043292" lon="1.84376061"><ele>1689.5</ele><time>2019-03-23T11:35:57Z</time></trkpt>
	<trkpt lat="42.55044979" lon="1.84382827"><ele>1690.0</ele><time>2019-03-23T11:36:02Z</time></trkpt>
	<trkpt lat="42.55046608" lon="1.84388936"><ele>1690.5</ele><time>2019-03-23T11:36:07Z</time></trkpt>
	<trkpt lat="42.55047191" lon="1.84395889"><ele>1691.1</ele><time>2019-03-23T11:36:12Z</time></trkpt>
	<trkpt lat="42.55047721" lon="1.84403170"><ele>1691.4</ele><time>2019-03-23T11:36:17Z</time></trkpt>
	<trkpt lat="42.55047539" lon="1.84409422"><ele>1691.6</ele><time>2019-03-23T11:36:21Z</time></trkpt>
	<trkpt lat="42.55048112" lon="1.84415487"><ele>1691.9</ele><time>2019-03-23T11:36:25Z</time></trkpt>
	<trkpt lat="42.55048906" lon="1.84421521"><ele>1691.9</ele><time>2019-03-23T11:36:29Z</time></trkpt>
	<trkpt lat="42.55050297" lon="1.84428038"><ele>1692.2</ele><time>2019-03-23T11:36:34Z</time></trkpt>
	<trkpt lat="42.55052106" lon="1.84433906"><ele>1693.0</ele><time>2019-03-23T11:36:39Z</time></trkpt>
	<trkpt lat="42.55053654" lon="1.84440835"><ele>1693.2</ele><time>2019-03-23T11:36:44Z</time></trkpt>
	<trkpt lat="42.55055173" lon="1.84447691"><ele>1693.2</ele><time>2019-03-23T11:36:49Z</time></trkpt>
	<trkpt lat="42.55057318" lon="1.84454053"><ele>1693.4</ele><time>2019-03-23T11:36:54Z</time></trkpt>
	<trkpt lat="42.55058526" lon="1.84461111"><ele>1693.3</ele><time>2019-03-23T11:36:59Z</time></trkpt>
	<trkpt lat="42.55059972" lon="1.84468284"><ele>1693.5</ele><time>2019-03-23T11:37:04Z</time></trkpt>
	<trkpt lat="42.55062070" lon="1.84474937"><ele>1693.7</ele><time>2019-03-23T11:37:09Z</time></trkpt>
	<trkpt lat="42.55063405" lon="1.84481065"><ele>1694.2</ele><time>2019-03-23T11:37:14Z</time></trkpt>
	<trkpt lat="42.55065646" lon="1.84487391"><ele>1694.8</ele><time>2019-03-23T11:37:21Z</time></trkpt>
	<trkpt lat="42.55066026" lon="1.84493576"><ele>1695.3</ele><time>2019-03-23T11:37:26Z</time></trkpt>
	<trkpt lat="42.55066262" lon="1.84500449"><ele>1695.5</ele><time>2019-03-23T11:37:31Z</time></trkpt>
	<trkpt lat="42.55066905" lon="1.84507411"><ele>1695.8</ele><time>2019-03-23T11:37:37Z</time></trkpt>
	<trkpt lat="42.55066234" lon="1.84513496"><ele>1695.6</ele><time>2019-03-23T11:37:42Z</time></trkpt>
	<trkpt lat="42.55066805" lon="1.84519965"><ele>1695.7</ele><time>2019-03-23T11:37:47Z</time></trkpt>
	<trkpt lat="42.55067442" lon="1.84526801"><ele>1696.2</ele><time>2019-03-23T11:37:52Z</time></trkpt>
	<trkpt lat="42.55066992" lon="1.84533118"><ele>1696.5</ele><time>2019-03-23T11:37:57Z</time></trkpt>
	<trkpt lat="42.55066490" lon="1.84539790"><ele>1696.6</ele><time>2019-03-23T11:38:02Z</time></trkpt>
	<trkpt lat="42.55066776" lon="1.84546544"><ele>1697.4</ele><time>2019-03-23T11:38:08Z</time></trkpt>
	<trkpt lat="42.55066462" lon="1.84553324"><ele>1697.8</ele><time>2019-03-23T11:38:13Z</time></trkpt>
	<trkpt lat="42.55066990" lon="1.84559848"><ele>1698.5</ele><time>2019-03-23T11:38:19Z</time></trkpt>
	<trkpt lat="42.55067553" lon="1.84566067"><ele>1699.2</ele><time>2019-03-23T11:38:24Z</time></trkpt>
	<trkpt lat="42.55068409" lon="1.84572868"><ele>1699.4</ele><time>2019-03-23T11:38:29Z</time></trkpt>
	<trkpt lat="42.55068652" lon="1.84579422"><ele>1699.6</ele><time>2019-03-23T11:38:33Z</time></trkpt>
	<trkpt lat="42.55068820" lon="1.84585853"><ele>1699.6</ele><time>2019-03-23T11:38:37Z</time></trkpt>
	<trkpt lat="42.55069157" lon="1.84592199"><ele>1699.8</ele><time>2019-03-23T11:38:41Z</time></trkpt>
	<trkpt lat="42.55071047" lon="1.84597948"><ele>1700.4</ele><time>2019-03-23T11:38:46Z</time></trkpt>
	<trkpt lat="42.55072379" lon="1.84605081"><ele>1700.9</ele><time>2019-03-23T11:38:51Z</time></trkpt>
	<trkpt lat="42.55072682" lon="1.84611170"><ele>1701.8</ele><time>2019-03-23T11:39:34Z</time></trkpt>
	<trkpt lat="42.55073955" lon="1.84618322"><ele>1701.8</ele><time>2019-03-23T11:39:49Z</time></trkpt>
	<trkpt lat="42.55075948" lon="1.84624238"><ele>1702.4</ele><time>2019-03-23T11:39:54Z</time></trkpt>
	<trkpt lat="42.55079217" lon="1.84628929"><ele>1703.2</ele><time>2019-03-23T11:39:59Z</time></trkpt>
	<trkpt lat="42.55081985" lon="1.84635023"><ele>1704.2</ele><time>2019-03-23T11:40:04Z</time></trkpt>
	<trkpt lat="42.55085447" lon="1.84640098"><ele>1705.1</ele><time>2019-03-23T11:40:09Z</time></trkpt>
	<trkpt lat="42.55088652" lon="1.84645687"><ele>1705.7</ele><time>2019-03-23T11:40:14Z</time></trkpt>
	<trkpt lat="42.55089710" lon="1.84652685"><ele>1705.8</ele><time>2019-03-23T11:40:19Z</time></trkpt>
	<trkpt lat="42.55090932" lon="1.84658725"><ele>1706.1</ele><time>2019-03-23T11:40:24Z</time></trkpt>
	<trkpt lat="42.55092995" lon="1.84664972"><ele>1706.9</ele><time>2019-03-23T11:40:29Z</time></trkpt>
	<trkpt lat="42.55095318" lon="1.84671553"><ele>1707.0</ele><time>2019-03-23T11:40:34Z</time></trkpt>
	<trkpt lat="42.55097478" lon="1.84678412"><ele>1707.3</ele><time>2019-03-23T11:40:39Z</time></trkpt>
	<trkpt lat="42.55100029" lon="1.84684555"><ele>1707.6</ele><time>2019-03-23T11:40:44Z</time></trkpt>
	<trkpt lat="42.55102300" lon="1.84690235"><ele>1708.1</ele><time>2019-03-23T11:40:49Z</time></trkpt>
	<trkpt lat="42.55105330" lon="1.84695621"><ele>1709.1</ele><time>2019-03-23T11:40:56Z</time></trkpt>
	<trkpt lat="42.55107592" lon="1.84701640"><ele>1709.7</ele><time>2019-03-23T11:41:02Z</time></trkpt>
	<trkpt lat="42.55108394" lon="1.84707635"><ele>1709.9</ele><time>2019-03-23T11:41:06Z</time></trkpt>
	<trkpt lat="42.55110540" lon="1.84713031"><ele>1710.6</ele><time>2019-03-23T11:41:11Z</time></trkpt>
	<trkpt lat="42.55111275" lon="1.84719130"><ele>1710.8</ele><time>2019-03-23T11:41:16Z</time></trkpt>
	<trkpt lat="42.55112134" lon="1.84725485"><ele>1710.6</ele><time>2019-03-23T11:41:21Z</time></trkpt>
	<trkpt lat="42.55113675" lon="1.84731270"><ele>1710.4</ele><time>2019-03-23T11:41:25Z</time></trkpt>
	<trkpt lat="42.55115435" lon="1.84737933"><ele>1710.6</ele><time>2019-03-23T11:41:30Z</time></trkpt>
	<trkpt lat="42.55117614" lon="1.84744685"><ele>1710.8</ele><time>2019-03-23T11:41:36Z</time></trkpt>
	<trkpt lat="42.55119349" lon="1.84750441"><ele>1711.2</ele><time>2019-03-23T11:41:41Z</time></trkpt>
	<trkpt lat="42.55120869" lon="1.84756891"><ele>1711.6</ele><time>2019-03-23T11:41:46Z</time></trkpt>
	<trkpt lat="42.55123448" lon="1.84763299"><ele>1712.1</ele><time>2019-03-23T11:41:51Z</time></trkpt>
	<trkpt lat="42.55124697" lon="1.84770271"><ele>1712.3</ele><time>2019-03-23T11:41:56Z</time></trkpt>
	<trkpt lat="42.55126035" lon="1.84776157"><ele>1712.6</ele><time>2019-03-23T11:42:00Z</time></trkpt>
	<trkpt lat="42.55127994" lon="1.84782104"><ele>1713.0</ele><time>2019-03-23T11:42:05Z</time></trkpt>
	<trkpt lat="42.55130227" lon="1.84788353"><ele>1713.3</ele><time>2019-03-23T11:42:10Z</time></trkpt>
	<trkpt lat="42.55132701" lon="1.84794814"><ele>1713.4</ele><time>2019-03-23T11:42:15Z</time></trkpt>
	<trkpt lat="42.55134783" lon="1.84801097"><ele>1713.7</ele><time>2019-03-23T11:42:20Z</time></trkpt>
	<trkpt lat="42.55137429" lon="1.84806767"><ele>1714.2</ele><time>2019-03-23T11:42:25Z</time></trkpt>
	<trkpt lat="42.55142043" lon="1.84821629"><ele>1715.9</ele><time>2019-03-23T11:42:36Z</time></trkpt>
	<trkpt lat="42.55154506" lon="1.84858952"><ele>1716.8</ele><time>2019-03-23T11:43:06Z</time></trkpt>
	<trkpt lat="42.55155991" lon="1.84865664"><ele>1717.5</ele><time>2019-03-23T11:43:12Z</time></trkpt>
	<trkpt lat="42.55157352" lon="1.84871930"><ele>1717.9</ele><time>2019-03-23T11:43:17Z</time></trkpt>
	<trkpt lat="42.55158557" lon="1.84878661"><ele>1718.2</ele><time>2019-03-23T11:43:22Z</time></trkpt>
	<trkpt lat="42.55160469" lon="1.84884335"><ele>1718.6</ele><time>2019-03-23T11:43:27Z</time></trkpt>
	<trkpt lat="42.55162386" lon="1.84890148"><ele>1718.8</ele><time>2019-03-23T11:43:32Z</time></trkpt>
	<trkpt lat="42.55164428" lon="1.84896100"><ele>1719.0</ele><time>2019-03-23T11:43:37Z</time></trkpt>
	<trkpt lat="42.55165682" lon="1.84902713"><ele>1719.3</ele><time>2019-03-23T11:43:42Z</time></trkpt>
	<trkpt lat="42.55167265" lon="1.84908860"><ele>1720.1</ele><time>2019-03-23T11:43:48Z</time></trkpt>
	<trkpt lat="42.55168965" lon="1.84914607"><ele>1720.6</ele><time>2019-03-23T11:43:53Z</time></trkpt>
	<trkpt lat="42.55170784" lon="1.84921292"><ele>1720.7</ele><time>2019-03-23T11:43:58Z</time></trkpt>
	<trkpt lat="42.55171097" lon="1.84928580"><ele>1720.6</ele><time>2019-03-23T11:44:03Z</time></trkpt>
	<trkpt lat="42.55172798" lon="1.84935053"><ele>1720.9</ele><time>2019-03-23T11:44:09Z</time></trkpt>
	<trkpt lat="42.55175164" lon="1.84940712"><ele>1721.7</ele><time>2019-03-23T11:44:16Z</time></trkpt>
	<trkpt lat="42.55176420" lon="1.84946905"><ele>1722.1</ele><time>2019-03-23T11:44:22Z</time></trkpt>
	<trkpt lat="42.55177271" lon="1.84952929"><ele>1722.1</ele><time>2019-03-23T11:44:27Z</time></trkpt>
	<trkpt lat="42.55178591" lon="1.84959680"><ele>1722.6</ele><time>2019-03-23T11:44:33Z</time></trkpt>
	<trkpt lat="42.55179392" lon="1.84966783"><ele>1723.2</ele><time>2019-03-23T11:44:39Z</time></trkpt>
	<trkpt lat="42.55180196" lon="1.84973048"><ele>1723.4</ele><time>2019-03-23T11:44:44Z</time></trkpt>
	<trkpt lat="42.55181960" lon="1.84980239"><ele>1723.3</ele><time>2019-03-23T11:44:49Z</time></trkpt>
	<trkpt lat="42.55183654" lon="1.84986833"><ele>1723.5</ele><time>2019-03-23T11:44:54Z</time></trkpt>
	<trkpt lat="42.55185529" lon="1.84992632"><ele>1724.1</ele><time>2019-03-23T11:44:59Z</time></trkpt>
	<trkpt lat="42.55187102" lon="1.84999555"><ele>1724.3</ele><time>2019-03-23T11:45:05Z</time></trkpt>
	<trkpt lat="42.55187215" lon="1.85007022"><ele>1724.0</ele><time>2019-03-23T11:45:10Z</time></trkpt>
	<trkpt lat="42.55189032" lon="1.85013176"><ele>1724.0</ele><time>2019-03-23T11:45:15Z</time></trkpt>
	<trkpt lat="42.55191334" lon="1.85019168"><ele>1724.4</ele><time>2019-03-23T11:45:21Z</time></trkpt>
	<trkpt lat="42.55194073" lon="1.85025104"><ele>1725.3</ele><time>2019-03-23T11:45:27Z</time></trkpt>
	<trkpt lat="42.55196568" lon="1.85030396"><ele>1726.5</ele><time>2019-03-23T11:45:33Z</time></trkpt>
	<trkpt lat="42.55199201" lon="1.85036342"><ele>1727.1</ele><time>2019-03-23T11:45:40Z</time></trkpt>
	<trkpt lat="42.55200628" lon="1.85042909"><ele>1727.6</ele><time>2019-03-23T11:45:45Z</time></trkpt>
	<trkpt lat="42.55201532" lon="1.85049536"><ele>1728.0</ele><time>2019-03-23T11:45:50Z</time></trkpt>
	<trkpt lat="42.55201996" lon="1.85056490"><ele>1728.3</ele><time>2019-03-23T11:45:55Z</time></trkpt>
	<trkpt lat="42.55202529" lon="1.85063658"><ele>1728.5</ele><time>2019-03-23T11:46:00Z</time></trkpt>
	<trkpt lat="42.55203527" lon="1.85069809"><ele>1728.8</ele><time>2019-03-23T11:46:04Z</time></trkpt>
	<trkpt lat="42.55205648" lon="1.85075429"><ele>1729.7</ele><time>2019-03-23T11:46:10Z</time></trkpt>
	<trkpt lat="42.55206822" lon="1.85081334"><ele>1730.3</ele><time>2019-03-23T11:46:15Z</time></trkpt>
	<trkpt lat="42.55208175" lon="1.85088161"><ele>1730.8</ele><time>2019-03-23T11:46:20Z</time></trkpt>
	<trkpt lat="42.55209864" lon="1.85095342"><ele>1731.0</ele><time>2019-03-23T11:46:26Z</time></trkpt>
	<trkpt lat="42.55212026" lon="1.85101540"><ele>1731.3</ele><time>2019-03-23T11:46:31Z</time></trkpt>
	<trkpt lat="42.55215011" lon="1.85106770"><ele>1731.9</ele><time>2019-03-23T11:46:36Z</time></trkpt>
	<trkpt lat="42.55217392" lon="1.85112076"><ele>1732.5</ele><time>2019-03-23T11:46:41Z</time></trkpt>
	<trkpt lat="42.55219545" lon="1.85118466"><ele>1732.9</ele><time>2019-03-23T11:46:46Z</time></trkpt>
	<trkpt lat="42.55222219" lon="1.85125130"><ele>1732.6</ele><time>2019-03-23T11:46:51Z</time></trkpt>
	<trkpt lat="42.55224171" lon="1.85130713"><ele>1732.8</ele><time>2019-03-23T11:46:56Z</time></trkpt>
	<trkpt lat="42.55224247" lon="1.85137274"><ele>1734.1</ele><time>2019-03-23T11:47:05Z</time></trkpt>
	<trkpt lat="42.55223618" lon="1.85143568"><ele>1735.3</ele><time>2019-03-23T11:47:13Z</time></trkpt>
	<trkpt lat="42.55222223" lon="1.85149750"><ele>1735.8</ele><time>2019-03-23T11:47:18Z</time></trkpt>
	<trkpt lat="42.55219691" lon="1.85155928"><ele>1735.7</ele><time>2019-03-23T11:47:23Z</time></trkpt>
	<trkpt lat="42.55218818" lon="1.85161950"><ele>1734.9</ele><time>2019-03-23T11:47:27Z</time></trkpt>
	<trkpt lat="42.55220070" lon="1.85168084"><ele>1734.1</ele><time>2019-03-23T11:47:31Z</time></trkpt>
	<trkpt lat="42.55221173" lon="1.85174126"><ele>1733.7</ele><time>2019-03-23T11:47:35Z</time></trkpt>
	<trkpt lat="42.55222417" lon="1.85181056"><ele>1733.8</ele><time>2019-03-23T11:47:40Z</time></trkpt>
	<trkpt lat="42.55223669" lon="1.85187417"><ele>1734.2</ele><time>2019-03-23T11:47:45Z</time></trkpt>
	<trkpt lat="42.55224884" lon="1.85193846"><ele>1734.7</ele><time>2019-03-23T11:47:50Z</time></trkpt>
	<trkpt lat="42.55226596" lon="1.85199891"><ele>1735.3</ele><time>2019-03-23T11:47:55Z</time></trkpt>
	<trkpt lat="42.55228586" lon="1.85206015"><ele>1735.7</ele><time>2019-03-23T11:48:00Z</time></trkpt>
	<trkpt lat="42.55230232" lon="1.85212534"><ele>1736.4</ele><time>2019-03-23T11:48:05Z</time></trkpt>
	<trkpt lat="42.55230581" lon="1.85219781"><ele>1737.0</ele><time>2019-03-23T11:48:10Z</time></trkpt>
	<trkpt lat="42.55231401" lon="1.85226364"><ele>1737.7</ele><time>2019-03-23T11:48:14Z</time></trkpt>
	<trkpt lat="42.55232837" lon="1.85233184"><ele>1738.4</ele><time>2019-03-23T11:48:19Z</time></trkpt>
	<trkpt lat="42.55234168" lon="1.85239777"><ele>1738.9</ele><time>2019-03-23T11:48:24Z</time></trkpt>
	<trkpt lat="42.55235755" lon="1.85245552"><ele>1739.6</ele><time>2019-03-23T11:48:29Z</time></trkpt>
	<trkpt lat="42.55236990" lon="1.85252698"><ele>1740.1</ele><time>2019-03-23T11:48:34Z</time></trkpt>
	<trkpt lat="42.55238064" lon="1.85259688"><ele>1740.5</ele><time>2019-03-23T11:48:39Z</time></trkpt>
	<trkpt lat="42.55239002" lon="1.85265774"><ele>1740.9</ele><time>2019-03-23T11:48:44Z</time></trkpt>
	<trkpt lat="42.55241045" lon="1.85271376"><ele>1741.2</ele><time>2019-03-23T11:48:49Z</time></trkpt>
	<trkpt lat="42.55244381" lon="1.85276641"><ele>1741.6</ele><time>2019-03-23T11:48:54Z</time></trkpt>
	<trkpt lat="42.55247767" lon="1.85281168"><ele>1741.9</ele><time>2019-03-23T11:48:59Z</time></trkpt>
	<trkpt lat="42.55251640" lon="1.85284858"><ele>1742.3</ele><time>2019-03-23T11:49:04Z</time></trkpt>
	<trkpt lat="42.55255113" lon="1.85289156"><ele>1742.5</ele><time>2019-03-23T11:49:09Z</time></trkpt>
	<trkpt lat="42.55257667" lon="1.85294955"><ele>1742.8</ele><time>2019-03-23T11:49:15Z</time></trkpt>
	<trkpt lat="42.55257437" lon="1.85301657"><ele>1743.1</ele><time>2019-03-23T11:49:20Z</time></trkpt>
	<trkpt lat="42.55255834" lon="1.85308791"><ele>1743.4</ele><time>2019-03-23T11:49:25Z</time></trkpt>
	<trkpt lat="42.55254858" lon="1.85314973"><ele>1743.5</ele><time>2019-03-23T11:49:30Z</time></trkpt>
	<trkpt lat="42.55254208" lon="1.85321249"><ele>1743.8</ele><time>2019-03-23T11:49:35Z</time></trkpt>
	<trkpt lat="42.55253393" lon="1.85328271"><ele>1744.1</ele><time>2019-03-23T11:49:40Z</time></trkpt>
	<trkpt lat="42.55254546" lon="1.85334564"><ele>1744.8</ele><time>2019-03-23T11:49:45Z</time></trkpt>
	<trkpt lat="42.55256655" lon="1.85340208"><ele>1745.7</ele><time>2019-03-23T11:49:50Z</time></trkpt>
	<trkpt lat="42.55259761" lon="1.85345784"><ele>1746.3</ele><time>2019-03-23T11:49:55Z</time></trkpt>
	<trkpt lat="42.55262942" lon="1.85350723"><ele>1747.1</ele><time>2019-03-23T11:50:00Z</time></trkpt>
	<trkpt lat="42.55265242" lon="1.85356585"><ele>1747.7</ele><time>2019-03-23T11:50:05Z</time></trkpt>
	<trkpt lat="42.55264006" lon="1.85363845"><ele>1748.0</ele><time>2019-03-23T11:50:10Z</time></trkpt>
	<trkpt lat="42.55261832" lon="1.85369877"><ele>1747.9</ele><time>2019-03-23T11:50:15Z</time></trkpt>
	<trkpt lat="42.55260907" lon="1.85376538"><ele>1748.0</ele><time>2019-03-23T11:50:20Z</time></trkpt>
	<trkpt lat="42.55261017" lon="1.85382947"><ele>1748.0</ele><time>2019-03-23T11:50:24Z</time></trkpt>
	<trkpt lat="42.55261554" lon="1.85389408"><ele>1747.8</ele><time>2019-03-23T11:50:28Z</time></trkpt>
	<trkpt lat="42.55262867" lon="1.85395671"><ele>1748.2</ele><time>2019-03-23T11:50:33Z</time></trkpt>
	<trkpt lat="42.55265133" lon="1.85402180"><ele>1748.6</ele><time>2019-03-23T11:50:38Z</time></trkpt>
	<trkpt lat="42.55267088" lon="1.85409331"><ele>1748.8</ele><time>2019-03-23T11:50:43Z</time></trkpt>
	<trkpt lat="42.55269338" lon="1.85415207"><ele>1749.2</ele><time>2019-03-23T11:50:48Z</time></trkpt>
	<trkpt lat="42.55272374" lon="1.85420526"><ele>1749.6</ele><time>2019-03-23T11:50:53Z</time></trkpt>
	<trkpt lat="42.55275911" lon="1.85426092"><ele>1750.1</ele><time>2019-03-23T11:50:58Z</time></trkpt>
	<trkpt lat="42.55279286" lon="1.85430238"><ele>1750.8</ele><time>2019-03-23T11:51:03Z</time></trkpt>
	<trkpt lat="42.55282999" lon="1.85435194"><ele>1752.0</ele><time>2019-03-23T11:51:10Z</time></trkpt>
	<trkpt lat="42.55283880" lon="1.85441688"><ele>1752.4</ele><time>2019-03-23T11:51:15Z</time></trkpt>
	<trkpt lat="42.55283537" lon="1.85448195"><ele>1753.4</ele><time>2019-03-23T11:51:21Z</time></trkpt>
	<trkpt lat="42.55283566" lon="1.85454284"><ele>1754.0</ele><time>2019-03-23T11:51:26Z</time></trkpt>
	<trkpt lat="42.55285281" lon="1.85460750"><ele>1754.5</ele><time>2019-03-23T11:51:31Z</time></trkpt>
	<trkpt lat="42.55287389" lon="1.85467202"><ele>1754.8</ele><time>2019-03-23T11:51:36Z</time></trkpt>
	<trkpt lat="42.55290169" lon="1.85472931"><ele>1755.2</ele><time>2019-03-23T11:51:41Z</time></trkpt>
	<trkpt lat="42.55293252" lon="1.85478984"><ele>1755.7</ele><time>2019-03-23T11:51:46Z</time></trkpt>
	<trkpt lat="42.55295490" lon="1.85486103"><ele>1756.0</ele><time>2019-03-23T11:51:51Z</time></trkpt>
	<trkpt lat="42.55298087" lon="1.85492103"><ele>1756.7</ele><time>2019-03-23T11:51:56Z</time></trkpt>
	<trkpt lat="42.55301987" lon="1.85497171"><ele>1757.5</ele><time>2019-03-23T11:52:02Z</time></trkpt>
	<trkpt lat="42.55305947" lon="1.85501252"><ele>1758.2</ele><time>2019-03-23T11:52:08Z</time></trkpt>
	<trkpt lat="42.55308220" lon="1.85507541"><ele>1758.9</ele><time>2019-03-23T11:52:14Z</time></trkpt>
	<trkpt lat="42.55310239" lon="1.85514379"><ele>1759.0</ele><time>2019-03-23T11:52:19Z</time></trkpt>
	<trkpt lat="42.55312753" lon="1.85520494"><ele>1759.3</ele><time>2019-03-23T11:52:24Z</time></trkpt>
	<trkpt lat="42.55315625" lon="1.85526503"><ele>1760.1</ele><time>2019-03-23T11:52:30Z</time></trkpt>
	<trkpt lat="42.55318370" lon="1.85532043"><ele>1760.8</ele><time>2019-03-23T11:52:35Z</time></trkpt>
	<trkpt lat="42.55320603" lon="1.85537601"><ele>1760.7</ele><time>2019-03-23T11:52:40Z</time></trkpt>
	<trkpt lat="42.55321725" lon="1.85544112"><ele>1760.5</ele><time>2019-03-23T11:52:45Z</time></trkpt>
	<trkpt lat="42.55320713" lon="1.85550115"><ele>1760.5</ele><time>2019-03-23T11:52:49Z</time></trkpt>
	<trkpt lat="42.55319627" lon="1.85557353"><ele>1760.8</ele><time>2019-03-23T11:52:54Z</time></trkpt>
	<trkpt lat="42.55319908" lon="1.85563631"><ele>1761.1</ele><time>2019-03-23T11:52:58Z</time></trkpt>
	<trkpt lat="42.55322052" lon="1.85569951"><ele>1761.4</ele><time>2019-03-23T11:53:04Z</time></trkpt>
	<trkpt lat="42.55323623" lon="1.85577185"><ele>1761.2</ele><time>2019-03-23T11:53:09Z</time></trkpt>
	<trkpt lat="42.55325512" lon="1.85583634"><ele>1761.3</ele><time>2019-03-23T11:53:14Z</time></trkpt>
	<trkpt lat="42.55327937" lon="1.85589241"><ele>1761.7</ele><time>2019-03-23T11:53:19Z</time></trkpt>
	<trkpt lat="42.55329534" lon="1.85595495"><ele>1762.0</ele><time>2019-03-23T11:53:24Z</time></trkpt>
	<trkpt lat="42.55331316" lon="1.85601919"><ele>1762.5</ele><time>2019-03-23T11:53:29Z</time></trkpt>
	<trkpt lat="42.55332102" lon="1.85608247"><ele>1763.1</ele><time>2019-03-23T11:53:34Z</time></trkpt>
	<trkpt lat="42.55332489" lon="1.85614531"><ele>1763.5</ele><time>2019-03-23T11:53:39Z</time></trkpt>
	<trkpt lat="42.55333323" lon="1.85621626"><ele>1763.7</ele><time>2019-03-23T11:53:46Z</time></trkpt>
	<trkpt lat="42.55335539" lon="1.85627374"><ele>1764.1</ele><time>2019-03-23T11:53:51Z</time></trkpt>
	<trkpt lat="42.55337998" lon="1.85633051"><ele>1764.5</ele><time>2019-03-23T11:53:56Z</time></trkpt>
	<trkpt lat="42.55339890" lon="1.85639271"><ele>1765.0</ele><time>2019-03-23T11:54:01Z</time></trkpt>
	<trkpt lat="42.55340668" lon="1.85646209"><ele>1765.3</ele><time>2019-03-23T11:54:06Z</time></trkpt>
	<trkpt lat="42.55339950" lon="1.85653064"><ele>1765.5</ele><time>2019-03-23T11:54:11Z</time></trkpt>
	<trkpt lat="42.55340273" lon="1.85659847"><ele>1766.0</ele><time>2019-03-23T11:54:16Z</time></trkpt>
	<trkpt lat="42.55340768" lon="1.85666240"><ele>1766.7</ele><time>2019-03-23T11:54:21Z</time></trkpt>
	<trkpt lat="42.55342312" lon="1.85672242"><ele>1767.3</ele><time>2019-03-23T11:54:26Z</time></trkpt>
	<trkpt lat="42.55341138" lon="1.85679080"><ele>1767.2</ele><time>2019-03-23T11:54:33Z</time></trkpt>
	<trkpt lat="42.55340787" lon="1.85686246"><ele>1767.3</ele><time>2019-03-23T11:54:40Z</time></trkpt>
	<trkpt lat="42.55340320" lon="1.85693034"><ele>1767.7</ele><time>2019-03-23T11:54:46Z</time></trkpt>
	<trkpt lat="42.55339748" lon="1.85699350"><ele>1768.4</ele><time>2019-03-23T11:54:52Z</time></trkpt>
	<trkpt lat="42.55338453" lon="1.85706580"><ele>1769.1</ele><time>2019-03-23T11:54:58Z</time></trkpt>
	<trkpt lat="42.55337858" lon="1.85713649"><ele>1769.6</ele><time>2019-03-23T11:55:03Z</time></trkpt>
	<trkpt lat="42.55337242" lon="1.85720272"><ele>1770.0</ele><time>2019-03-23T11:55:08Z</time></trkpt>
	<trkpt lat="42.55337546" lon="1.85726940"><ele>1770.3</ele><time>2019-03-23T11:55:13Z</time></trkpt>
	<trkpt lat="42.55338953" lon="1.85733262"><ele>1770.5</ele><time>2019-03-23T11:55:18Z</time></trkpt>
	<trkpt lat="42.55340304" lon="1.85739454"><ele>1770.4</ele><time>2019-03-23T11:55:23Z</time></trkpt>
	<trkpt lat="42.55341966" lon="1.85745774"><ele>1770.6</ele><time>2019-03-23T11:55:28Z</time></trkpt>
	<trkpt lat="42.55343957" lon="1.85751418"><ele>1771.0</ele><time>2019-03-23T11:55:33Z</time></trkpt>
	<trkpt lat="42.55346743" lon="1.85757611"><ele>1771.4</ele><time>2019-03-23T11:55:39Z</time></trkpt>
	<trkpt lat="42.55347686" lon="1.85764846"><ele>1771.6</ele><time>2019-03-23T11:55:44Z</time></trkpt>
	<trkpt lat="42.55349930" lon="1.85771183"><ele>1771.8</ele><time>2019-03-23T11:55:49Z</time></trkpt>
	<trkpt lat="42.55352352" lon="1.85777488"><ele>1772.3</ele><time>2019-03-23T11:55:55Z</time></trkpt>
	<trkpt lat="42.55354486" lon="1.85784042"><ele>1773.3</ele><time>2019-03-23T11:56:01Z</time></trkpt>
	<trkpt lat="42.55353813" lon="1.85790626"><ele>1773.5</ele><time>2019-03-23T11:56:06Z</time></trkpt>
	<trkpt lat="42.55352951" lon="1.85796906"><ele>1773.5</ele><time>2019-03-23T11:56:11Z</time></trkpt>
	<trkpt lat="42.55352949" lon="1.85803785"><ele>1774.2</ele><time>2019-03-23T11:56:18Z</time></trkpt>
	<trkpt lat="42.55352414" lon="1.85810070"><ele>1775.0</ele><time>2019-03-23T11:56:24Z</time></trkpt>
	<trkpt lat="42.55352376" lon="1.85817337"><ele>1775.7</ele><time>2019-03-23T11:56:30Z</time></trkpt>
	<trkpt lat="42.55354394" lon="1.85823814"><ele>1776.6</ele><time>2019-03-23T11:56:36Z</time></trkpt>
	<trkpt lat="42.55356880" lon="1.85829202"><ele>1776.8</ele><time>2019-03-23T11:56:41Z</time></trkpt>
	<trkpt lat="42.55360239" lon="1.85834890"><ele>1777.3</ele><time>2019-03-23T11:56:46Z</time></trkpt>
	<trkpt lat="42.55363392" lon="1.85840536"><ele>1777.5</ele><time>2019-03-23T11:56:51Z</time></trkpt>
	<trkpt lat="42.55364697" lon="1.85846924"><ele>1777.8</ele><time>2019-03-23T11:56:56Z</time></trkpt>
	<trkpt lat="42.55364908" lon="1.85853790"><ele>1778.6</ele><time>2019-03-23T11:57:02Z</time></trkpt>
	<trkpt lat="42.55366135" lon="1.85860403"><ele>1779.2</ele><time>2019-03-23T11:57:08Z</time></trkpt>
	<trkpt lat="42.55366960" lon="1.85866797"><ele>1780.4</ele><time>2019-03-23T11:57:15Z</time></trkpt>
	<trkpt lat="42.55366056" lon="1.85873245"><ele>1781.1</ele><time>2019-03-23T11:57:22Z</time></trkpt>
	<trkpt lat="42.55365519" lon="1.85879302"><ele>1781.5</ele><time>2019-03-23T11:57:27Z</time></trkpt>
	<trkpt lat="42.55366641" lon="1.85885595"><ele>1781.7</ele><time>2019-03-23T11:57:32Z</time></trkpt>
	<trkpt lat="42.55368302" lon="1.85892570"><ele>1781.2</ele><time>2019-03-23T11:59:30Z</time></trkpt>
	<trkpt lat="42.55370024" lon="1.85899286"><ele>1781.3</ele><time>2019-03-23T11:59:35Z</time></trkpt>
	<trkpt lat="42.55372483" lon="1.85905640"><ele>1781.7</ele><time>2019-03-23T11:59:40Z</time></trkpt>
	<trkpt lat="42.55375773" lon="1.85910889"><ele>1783.1</ele><time>2019-03-23T11:59:45Z</time></trkpt>
	<trkpt lat="42.55378180" lon="1.85917391"><ele>1784.2</ele><time>2019-03-23T11:59:50Z</time></trkpt>
	<trkpt lat="42.55380346" lon="1.85922935"><ele>1784.9</ele><time>2019-03-23T11:59:54Z</time></trkpt>
	<trkpt lat="42.55382776" lon="1.85929577"><ele>1785.4</ele><time>2019-03-23T11:59:59Z</time></trkpt>
	<trkpt lat="42.55385702" lon="1.85934280"><ele>1786.0</ele><time>2019-03-23T12:00:04Z</time></trkpt>
	<trkpt lat="42.55388663" lon="1.85940219"><ele>1786.4</ele><time>2019-03-23T12:00:09Z</time></trkpt>
	<trkpt lat="42.55390388" lon="1.85947302"><ele>1786.5</ele><time>2019-03-23T12:00:14Z</time></trkpt>
	<trkpt lat="42.55391624" lon="1.85954059"><ele>1786.9</ele><time>2019-03-23T12:00:19Z</time></trkpt>
	<trkpt lat="42.55394650" lon="1.85959065"><ele>1787.4</ele><time>2019-03-23T12:00:24Z</time></trkpt>
	<trkpt lat="42.55397401" lon="1.85965177"><ele>1788.0</ele><time>2019-03-23T12:00:29Z</time></trkpt>
	<trkpt lat="42.55398623" lon="1.85972744"><ele>1788.2</ele><time>2019-03-23T12:00:34Z</time></trkpt>
	<trkpt lat="42.55399530" lon="1.85978980"><ele>1788.4</ele><time>2019-03-23T12:00:38Z</time></trkpt>
	<trkpt lat="42.55401508" lon="1.85985140"><ele>1788.5</ele><time>2019-03-23T12:00:43Z</time></trkpt>
	<trkpt lat="42.55403957" lon="1.85990875"><ele>1789.2</ele><time>2019-03-23T12:00:50Z</time></trkpt>
	<trkpt lat="42.55405425" lon="1.85996909"><ele>1789.6</ele><time>2019-03-23T12:00:55Z</time></trkpt>
	<trkpt lat="42.55407618" lon="1.86003069"><ele>1790.2</ele><time>2019-03-23T12:01:00Z</time></trkpt>
	<trkpt lat="42.55410153" lon="1.86008331"><ele>1790.7</ele><time>2019-03-23T12:01:06Z</time></trkpt>
	<trkpt lat="42.55411889" lon="1.86014162"><ele>1791.3</ele><time>2019-03-23T12:01:15Z</time></trkpt>
	<trkpt lat="42.55413754" lon="1.86020689"><ele>1792.0</ele><time>2019-03-23T12:01:20Z</time></trkpt>
	<trkpt lat="42.55415898" lon="1.86026163"><ele>1792.9</ele><time>2019-03-23T12:01:25Z</time></trkpt>
	<trkpt lat="42.55416547" lon="1.86032572"><ele>1793.0</ele><time>2019-03-23T12:01:30Z</time></trkpt>
	<trkpt lat="42.55418518" lon="1.86038091"><ele>1792.7</ele><time>2019-03-23T12:01:34Z</time></trkpt>
	<trkpt lat="42.55421169" lon="1.86043215"><ele>1792.2</ele><time>2019-03-23T12:01:38Z</time></trkpt>
	<trkpt lat="42.55423713" lon="1.86048371"><ele>1792.0</ele><time>2019-03-23T12:01:42Z</time></trkpt>
	<trkpt lat="42.55425986" lon="1.86054002"><ele>1792.0</ele><time>2019-03-23T12:01:46Z</time></trkpt>
	<trkpt lat="42.55428915" lon="1.86060525"><ele>1792.3</ele><time>2019-03-23T12:01:51Z</time></trkpt>
	<trkpt lat="42.55431453" lon="1.86065798"><ele>1792.5</ele><time>2019-03-23T12:01:55Z</time></trkpt>
	<trkpt lat="42.55433625" lon="1.86072149"><ele>1792.9</ele><time>2019-03-23T12:02:00Z</time></trkpt>
	<trkpt lat="42.55435592" lon="1.86079175"><ele>1793.3</ele><time>2019-03-23T12:02:05Z</time></trkpt>
	<trkpt lat="42.55437042" lon="1.86085190"><ele>1793.7</ele><time>2019-03-23T12:02:09Z</time></trkpt>
	<trkpt lat="42.55439156" lon="1.86091824"><ele>1794.1</ele><time>2019-03-23T12:02:14Z</time></trkpt>
	<trkpt lat="42.55440887" lon="1.86098771"><ele>1794.5</ele><time>2019-03-23T12:02:20Z</time></trkpt>
	<trkpt lat="42.55442713" lon="1.86105322"><ele>1794.8</ele><time>2019-03-23T12:02:25Z</time></trkpt>
	<trkpt lat="42.55444261" lon="1.86112046"><ele>1795.2</ele><time>2019-03-23T12:02:30Z</time></trkpt>
	<trkpt lat="42.55445389" lon="1.86118768"><ele>1795.3</ele><time>2019-03-23T12:02:35Z</time></trkpt>
	<trkpt lat="42.55446344" lon="1.86125566"><ele>1794.9</ele><time>2019-03-23T12:02:40Z</time></trkpt>
	<trkpt lat="42.55448075" lon="1.86132081"><ele>1794.8</ele><time>2019-03-23T12:02:45Z</time></trkpt>
	<trkpt lat="42.55450175" lon="1.86138597"><ele>1794.9</ele><time>2019-03-23T12:02:50Z</time></trkpt>
	<trkpt lat="42.55451807" lon="1.86145072"><ele>1795.1</ele><time>2019-03-23T12:02:55Z</time></trkpt>
	<trkpt lat="42.55453416" lon="1.86151333"><ele>1795.3</ele><time>2019-03-23T12:03:00Z</time></trkpt>
	<trkpt lat="42.55455931" lon="1.86157957"><ele>1795.5</ele><time>2019-03-23T12:03:05Z</time></trkpt>
	<trkpt lat="42.55458581" lon="1.86164322"><ele>1795.7</ele><time>2019-03-23T12:03:10Z</time></trkpt>
	<trkpt lat="42.55460567" lon="1.86170887"><ele>1794.7</ele><time>2019-03-23T12:03:15Z</time></trkpt>
	<trkpt lat="42.55462704" lon="1.86177449"><ele>1794.6</ele><time>2019-03-23T12:03:20Z</time></trkpt>
	<trkpt lat="42.55465282" lon="1.86183338"><ele>1794.7</ele><time>2019-03-23T12:03:25Z</time></trkpt>
	<trkpt lat="42.55467154" lon="1.86189049"><ele>1794.8</ele><time>2019-03-23T12:03:29Z</time></trkpt>
	<trkpt lat="42.55469114" lon="1.86194641"><ele>1795.0</ele><time>2019-03-23T12:03:33Z</time></trkpt>
	<trkpt lat="42.55471965" lon="1.86200292"><ele>1795.5</ele><time>2019-03-23T12:03:38Z</time></trkpt>
	<trkpt lat="42.55474970" lon="1.86205746"><ele>1796.3</ele><time>2019-03-23T12:03:43Z</time></trkpt>
	<trkpt lat="42.55477865" lon="1.86210693"><ele>1797.8</ele><time>2019-03-23T12:03:49Z</time></trkpt>
	<trkpt lat="42.55478998" lon="1.86217212"><ele>1798.6</ele><time>2019-03-23T12:03:54Z</time></trkpt>
	<trkpt lat="42.55480265" lon="1.86224602"><ele>1799.0</ele><time>2019-03-23T12:03:59Z</time></trkpt>
	<trkpt lat="42.55482356" lon="1.86231412"><ele>1799.4</ele><time>2019-03-23T12:04:04Z</time></trkpt>
	<trkpt lat="42.55484974" lon="1.86237510"><ele>1800.0</ele><time>2019-03-23T12:04:09Z</time></trkpt>
	<trkpt lat="42.55487779" lon="1.86243483"><ele>1800.7</ele><time>2019-03-23T12:04:14Z</time></trkpt>
	<trkpt lat="42.55490573" lon="1.86249497"><ele>1801.3</ele><time>2019-03-23T12:04:19Z</time></trkpt>
	<trkpt lat="42.55493375" lon="1.86255184"><ele>1801.9</ele><time>2019-03-23T12:04:24Z</time></trkpt>
	<trkpt lat="42.55496849" lon="1.86260316"><ele>1802.6</ele><time>2019-03-23T12:04:29Z</time></trkpt>
	<trkpt lat="42.55500141" lon="1.86266013"><ele>1803.1</ele><time>2019-03-23T12:04:34Z</time></trkpt>
	<trkpt lat="42.55502842" lon="1.86271935"><ele>1803.6</ele><time>2019-03-23T12:04:39Z</time></trkpt>
	<trkpt lat="42.55505912" lon="1.86277256"><ele>1804.2</ele><time>2019-03-23T12:04:44Z</time></trkpt>
	<trkpt lat="42.55508922" lon="1.86283610"><ele>1804.6</ele><time>2019-03-23T12:04:49Z</time></trkpt>
	<trkpt lat="42.55511684" lon="1.86289905"><ele>1805.1</ele><time>2019-03-23T12:04:54Z</time></trkpt>
	<trkpt lat="42.55514836" lon="1.86295615"><ele>1805.7</ele><time>2019-03-23T12:04:59Z</time></trkpt>
	<trkpt lat="42.55517460" lon="1.86301520"><ele>1806.2</ele><time>2019-03-23T12:05:04Z</time></trkpt>
	<trkpt lat="42.55520664" lon="1.86307517"><ele>1806.7</ele><time>2019-03-23T12:05:10Z</time></trkpt>
	<trkpt lat="42.55523645" lon="1.86312980"><ele>1807.2</ele><time>2019-03-23T12:05:15Z</time></trkpt>
	<trkpt lat="42.55525345" lon="1.86319640"><ele>1807.4</ele><time>2019-03-23T12:05:20Z</time></trkpt>
	<trkpt lat="42.55527711" lon="1.86325474"><ele>1807.6</ele><time>2019-03-23T12:05:25Z</time></trkpt>
	<trkpt lat="42.55531275" lon="1.86330360"><ele>1808.2</ele><time>2019-03-23T12:05:30Z</time></trkpt>
	<trkpt lat="42.55535057" lon="1.86334957"><ele>1808.8</ele><time>2019-03-23T12:05:35Z</time></trkpt>
	<trkpt lat="42.55539108" lon="1.86339121"><ele>1809.5</ele><time>2019-03-23T12:05:40Z</time></trkpt>
	<trkpt lat="42.55543097" lon="1.86342970"><ele>1810.1</ele><time>2019-03-23T12:05:45Z</time></trkpt>
	<trkpt lat="42.55546557" lon="1.86347563"><ele>1810.6</ele><time>2019-03-23T12:05:50Z</time></trkpt>
	<trkpt lat="42.55550330" lon="1.86352501"><ele>1811.2</ele><time>2019-03-23T12:05:55Z</time></trkpt>
	<trkpt lat="42.55554321" lon="1.86356654"><ele>1811.8</ele><time>2019-03-23T12:06:00Z</time></trkpt>
	<trkpt lat="42.55558148" lon="1.86362079"><ele>1812.5</ele><time>2019-03-23T12:06:06Z</time></trkpt>
	<trkpt lat="42.55560902" lon="1.86367953"><ele>1812.7</ele><time>2019-03-23T12:06:11Z</time></trkpt>
	<trkpt lat="42.55562393" lon="1.86373919"><ele>1813.2</ele><time>2019-03-23T12:06:16Z</time></trkpt>
	<trkpt lat="42.55564942" lon="1.86379100"><ele>1813.7</ele><time>2019-03-23T12:06:21Z</time></trkpt>
	<trkpt lat="42.55568223" lon="1.86383973"><ele>1814.2</ele><time>2019-03-23T12:06:26Z</time></trkpt>
	<trkpt lat="42.55571259" lon="1.86389473"><ele>1814.3</ele><time>2019-03-23T12:06:31Z</time></trkpt>
	<trkpt lat="42.55574105" lon="1.86395141"><ele>1814.5</ele><time>2019-03-23T12:06:36Z</time></trkpt>
	<trkpt lat="42.55577162" lon="1.86400763"><ele>1814.7</ele><time>2019-03-23T12:06:41Z</time></trkpt>
	<trkpt lat="42.55580653" lon="1.86405443"><ele>1815.2</ele><time>2019-03-23T12:06:46Z</time></trkpt>
	<trkpt lat="42.55584780" lon="1.86409473"><ele>1815.7</ele><time>2019-03-23T12:06:51Z</time></trkpt>
	<trkpt lat="42.55589761" lon="1.86409834"><ele>1816.2</ele><time>2019-03-23T12:06:56Z</time></trkpt>
	<trkpt lat="42.55593113" lon="1.86415354"><ele>1816.9</ele><time>2019-03-23T12:07:02Z</time></trkpt>
	<trkpt lat="42.55595970" lon="1.86421250"><ele>1817.3</ele><time>2019-03-23T12:07:07Z</time></trkpt>
	<trkpt lat="42.55599552" lon="1.86425950"><ele>1817.2</ele><time>2019-03-23T12:07:12Z</time></trkpt>
	<trkpt lat="42.55599732" lon="1.86432548"><ele>1817.4</ele><time>2019-03-23T12:07:27Z</time></trkpt>
	<trkpt lat="42.55597893" lon="1.86438989"><ele>1818.4</ele><time>2019-03-23T12:07:34Z</time></trkpt>
	<trkpt lat="42.55597220" lon="1.86445328"><ele>1819.3</ele><time>2019-03-23T12:07:40Z</time></trkpt>
	<trkpt lat="42.55596309" lon="1.86451786"><ele>1819.9</ele><time>2019-03-23T12:07:45Z</time></trkpt>
	<trkpt lat="42.55596943" lon="1.86458835"><ele>1820.4</ele><time>2019-03-23T12:07:50Z</time></trkpt>
	<trkpt lat="42.55597935" lon="1.86465106"><ele>1820.8</ele><time>2019-03-23T12:07:54Z</time></trkpt>
	<trkpt lat="42.55600702" lon="1.86470244"><ele>1821.3</ele><time>2019-03-23T12:07:59Z</time></trkpt>
	<trkpt lat="42.55602597" lon="1.86476452"><ele>1821.7</ele><time>2019-03-23T12:08:04Z</time></trkpt>
	<trkpt lat="42.55604826" lon="1.86482293"><ele>1822.3</ele><time>2019-03-23T12:08:09Z</time></trkpt>
	<trkpt lat="42.55605537" lon="1.86488965"><ele>1822.7</ele><time>2019-03-23T12:08:14Z</time></trkpt>
	<trkpt lat="42.55606862" lon="1.86495726"><ele>1823.2</ele><time>2019-03-23T12:08:19Z</time></trkpt>
	<trkpt lat="42.55608386" lon="1.86502622"><ele>1823.7</ele><time>2019-03-23T12:08:24Z</time></trkpt>
	<trkpt lat="42.55610091" lon="1.86509001"><ele>1824.4</ele><time>2019-03-23T12:08:29Z</time></trkpt>
	<trkpt lat="42.55612099" lon="1.86515246"><ele>1824.9</ele><time>2019-03-23T12:08:34Z</time></trkpt>
	<trkpt lat="42.55613330" lon="1.86522446"><ele>1825.3</ele><time>2019-03-23T12:08:39Z</time></trkpt>
	<trkpt lat="42.55614337" lon="1.86528968"><ele>1826.0</ele><time>2019-03-23T12:08:44Z</time></trkpt>
	<trkpt lat="42.55615556" lon="1.86535001"><ele>1826.8</ele><time>2019-03-23T12:08:49Z</time></trkpt>
	<trkpt lat="42.55616852" lon="1.86541065"><ele>1827.6</ele><time>2019-03-23T12:08:54Z</time></trkpt>
	<trkpt lat="42.55618316" lon="1.86548089"><ele>1828.5</ele><time>2019-03-23T12:09:00Z</time></trkpt>
	<trkpt lat="42.55618498" lon="1.86554636"><ele>1829.0</ele><time>2019-03-23T12:09:05Z</time></trkpt>
	<trkpt lat="42.55619270" lon="1.86560877"><ele>1829.5</ele><time>2019-03-23T12:09:10Z</time></trkpt>
	<trkpt lat="42.55619919" lon="1.86567173"><ele>1829.9</ele><time>2019-03-23T12:09:15Z</time></trkpt>
	<trkpt lat="42.55621715" lon="1.86573927"><ele>1830.8</ele><time>2019-03-23T12:09:21Z</time></trkpt>
	<trkpt lat="42.55623125" lon="1.86579788"><ele>1831.5</ele><time>2019-03-23T12:09:26Z</time></trkpt>
	<trkpt lat="42.55625623" lon="1.86585786"><ele>1832.4</ele><time>2019-03-23T12:09:32Z</time></trkpt>
	<trkpt lat="42.55628388" lon="1.86592086"><ele>1833.3</ele><time>2019-03-23T12:09:38Z</time></trkpt>
	<trkpt lat="42.55631075" lon="1.86598593"><ele>1833.7</ele><time>2019-03-23T12:09:43Z</time></trkpt>
	<trkpt lat="42.55633991" lon="1.86604184"><ele>1834.2</ele><time>2019-03-23T12:09:48Z</time></trkpt>
	<trkpt lat="42.55636191" lon="1.86610618"><ele>1834.3</ele><time>2019-03-23T12:09:53Z</time></trkpt>
	<trkpt lat="42.55636625" lon="1.86617744"><ele>1834.6</ele><time>2019-03-23T12:09:59Z</time></trkpt>
	<trkpt lat="42.55636032" lon="1.86624084"><ele>1835.2</ele><time>2019-03-23T12:10:05Z</time></trkpt>
	<trkpt lat="42.55636417" lon="1.86631076"><ele>1836.1</ele><time>2019-03-23T12:10:11Z</time></trkpt>
	<trkpt lat="42.55637178" lon="1.86637957"><ele>1836.8</ele><time>2019-03-23T12:10:17Z</time></trkpt>
	<trkpt lat="42.55639290" lon="1.86644245"><ele>1837.3</ele><time>2019-03-23T12:10:23Z</time></trkpt>
	<trkpt lat="42.55641379" lon="1.86649711"><ele>1837.8</ele><time>2019-03-23T12:10:28Z</time></trkpt>
	<trkpt lat="42.55645288" lon="1.86653687"><ele>1838.4</ele><time>2019-03-23T12:10:34Z</time></trkpt>
	<trkpt lat="42.55648858" lon="1.86657783"><ele>1839.0</ele><time>2019-03-23T12:10:39Z</time></trkpt>
	<trkpt lat="42.55649435" lon="1.86664675"><ele>1839.5</ele><time>2019-03-23T12:10:45Z</time></trkpt>
	<trkpt lat="42.55648939" lon="1.86671677"><ele>1840.4</ele><time>2019-03-23T12:10:51Z</time></trkpt>
	<trkpt lat="42.55648625" lon="1.86677828"><ele>1840.9</ele><time>2019-03-23T12:10:56Z</time></trkpt>
	<trkpt lat="42.55648842" lon="1.86684073"><ele>1841.3</ele><time>2019-03-23T12:11:01Z</time></trkpt>
	<trkpt lat="42.55649523" lon="1.86690570"><ele>1841.7</ele><time>2019-03-23T12:11:06Z</time></trkpt>
	<trkpt lat="42.55650978" lon="1.86697022"><ele>1842.1</ele><time>2019-03-23T12:11:11Z</time></trkpt>
	<trkpt lat="42.55654198" lon="1.86702866"><ele>1843.1</ele><time>2019-03-23T12:11:17Z</time></trkpt>
	<trkpt lat="42.55657068" lon="1.86708373"><ele>1843.8</ele><time>2019-03-23T12:11:22Z</time></trkpt>
	<trkpt lat="42.55659052" lon="1.86714465"><ele>1844.6</ele><time>2019-03-23T12:11:27Z</time></trkpt>
	<trkpt lat="42.55662027" lon="1.86720036"><ele>1845.4</ele><time>2019-03-23T12:11:32Z</time></trkpt>
	<trkpt lat="42.55665060" lon="1.86725383"><ele>1845.8</ele><time>2019-03-23T12:11:37Z</time></trkpt>
	<trkpt lat="42.55667994" lon="1.86731244"><ele>1846.4</ele><time>2019-03-23T12:11:42Z</time></trkpt>
	<trkpt lat="42.55671321" lon="1.86736381"><ele>1847.0</ele><time>2019-03-23T12:11:47Z</time></trkpt>
	<trkpt lat="42.55673515" lon="1.86742365"><ele>1847.5</ele><time>2019-03-23T12:11:52Z</time></trkpt>
	<trkpt lat="42.55673232" lon="1.86748763"><ele>1847.7</ele><time>2019-03-23T12:11:56Z</time></trkpt>
	<trkpt lat="42.55670532" lon="1.86755098"><ele>1848.2</ele><time>2019-03-23T12:12:01Z</time></trkpt>
	<trkpt lat="42.55668908" lon="1.86762390"><ele>1848.5</ele><time>2019-03-23T12:12:06Z</time></trkpt>
	<trkpt lat="42.55668803" lon="1.86769032"><ele>1849.0</ele><time>2019-03-23T12:12:11Z</time></trkpt>
	<trkpt lat="42.55669124" lon="1.86775331"><ele>1849.8</ele><time>2019-03-23T12:12:17Z</time></trkpt>
	<trkpt lat="42.55669300" lon="1.86781514"><ele>1850.3</ele><time>2019-03-23T12:12:22Z</time></trkpt>
	<trkpt lat="42.55668490" lon="1.86787827"><ele>1850.6</ele><time>2019-03-23T12:12:27Z</time></trkpt>
	<trkpt lat="42.55667989" lon="1.86794318"><ele>1851.0</ele><time>2019-03-23T12:12:32Z</time></trkpt>
	<trkpt lat="42.55667936" lon="1.86800986"><ele>1851.6</ele><time>2019-03-23T12:12:37Z</time></trkpt>
	<trkpt lat="42.55667257" lon="1.86807829"><ele>1851.9</ele><time>2019-03-23T12:12:42Z</time></trkpt>
	<trkpt lat="42.55667292" lon="1.86814078"><ele>1852.5</ele><time>2019-03-23T12:12:47Z</time></trkpt>
	<trkpt lat="42.55666652" lon="1.86820852"><ele>1853.0</ele><time>2019-03-23T12:12:52Z</time></trkpt>
	<trkpt lat="42.55666302" lon="1.86827240"><ele>1853.5</ele><time>2019-03-23T12:12:57Z</time></trkpt>
	<trkpt lat="42.55666725" lon="1.86834356"><ele>1854.1</ele><time>2019-03-23T12:13:03Z</time></trkpt>
	<trkpt lat="42.55666265" lon="1.86840716"><ele>1854.6</ele><time>2019-03-23T12:13:08Z</time></trkpt>
	<trkpt lat="42.55666458" lon="1.86847646"><ele>1855.1</ele><time>2019-03-23T12:13:13Z</time></trkpt>
	<trkpt lat="42.55667213" lon="1.86854709"><ele>1855.4</ele><time>2019-03-23T12:13:18Z</time></trkpt>
	<trkpt lat="42.55667871" lon="1.86861421"><ele>1855.8</ele><time>2019-03-23T12:13:23Z</time></trkpt>
	<trkpt lat="42.55668471" lon="1.86868475"><ele>1856.4</ele><time>2019-03-23T12:13:29Z</time></trkpt>
	<trkpt lat="42.55669390" lon="1.86875166"><ele>1857.2</ele><time>2019-03-23T12:13:35Z</time></trkpt>
	<trkpt lat="42.55669938" lon="1.86882071"><ele>1858.0</ele><time>2019-03-23T12:13:41Z</time></trkpt>
	<trkpt lat="42.55670316" lon="1.86888269"><ele>1858.9</ele><time>2019-03-23T12:13:47Z</time></trkpt>
	<trkpt lat="42.55669926" lon="1.86894358"><ele>1859.6</ele><time>2019-03-23T12:13:52Z</time></trkpt>
	<trkpt lat="42.55669904" lon="1.86900836"><ele>1860.3</ele><time>2019-03-23T12:13:57Z</time></trkpt>
	<trkpt lat="42.55670698" lon="1.86907164"><ele>1861.0</ele><time>2019-03-23T12:14:02Z</time></trkpt>
	<trkpt lat="42.55670428" lon="1.86913743"><ele>1861.5</ele><time>2019-03-23T12:14:07Z</time></trkpt>
	<trkpt lat="42.55669619" lon="1.86919734"><ele>1862.4</ele><time>2019-03-23T12:14:15Z</time></trkpt>
	<trkpt lat="42.55669088" lon="1.86926290"><ele>1863.3</ele><time>2019-03-23T12:14:23Z</time></trkpt>
	<trkpt lat="42.55666144" lon="1.86931590"><ele>1863.5</ele><time>2019-03-23T12:14:28Z</time></trkpt>
	<trkpt lat="42.55664181" lon="1.86938251"><ele>1864.0</ele><time>2019-03-23T12:14:34Z</time></trkpt>
	<trkpt lat="42.55664035" lon="1.86945280"><ele>1864.7</ele><time>2019-03-23T12:14:40Z</time></trkpt>
	<trkpt lat="42.55664824" lon="1.86951381"><ele>1865.7</ele><time>2019-03-23T12:14:46Z</time></trkpt>
	<trkpt lat="42.55666130" lon="1.86957448"><ele>1867.1</ele><time>2019-03-23T12:14:53Z</time></trkpt>
	<trkpt lat="42.55666952" lon="1.86964067"><ele>1868.6</ele><time>2019-03-23T12:15:00Z</time></trkpt>
	<trkpt lat="42.55667954" lon="1.86971018"><ele>1870.0</ele><time>2019-03-23T12:15:07Z</time></trkpt>
	<trkpt lat="42.55669436" lon="1.86976973"><ele>1871.3</ele><time>2019-03-23T12:15:13Z</time></trkpt>
	<trkpt lat="42.55670672" lon="1.86982831"><ele>1872.6</ele><time>2019-03-23T12:15:19Z</time></trkpt>
	<trkpt lat="42.55671569" lon="1.86989268"><ele>1873.8</ele><time>2019-03-23T12:15:25Z</time></trkpt>
	<trkpt lat="42.55672365" lon="1.86995491"><ele>1874.8</ele><time>2019-03-23T12:15:31Z</time></trkpt>
	<trkpt lat="42.55674377" lon="1.87001803"><ele>1876.1</ele><time>2019-03-23T12:15:38Z</time></trkpt>
	<trkpt lat="42.55675651" lon="1.87008520"><ele>1877.3</ele><time>2019-03-23T12:15:45Z</time></trkpt>
	<trkpt lat="42.55677039" lon="1.87015273"><ele>1878.6</ele><time>2019-03-23T12:15:52Z</time></trkpt>
	<trkpt lat="42.55677703" lon="1.87021457"><ele>1879.6</ele><time>2019-03-23T12:15:58Z</time></trkpt>
	<trkpt lat="42.55678775" lon="1.87027454"><ele>1880.6</ele><time>2019-03-23T12:16:04Z</time></trkpt>
	<trkpt lat="42.55680687" lon="1.87033604"><ele>1882.0</ele><time>2019-03-23T12:16:11Z</time></trkpt>
	<trkpt lat="42.55681841" lon="1.87040293"><ele>1883.4</ele><time>2019-03-23T12:16:18Z</time></trkpt>
	<trkpt lat="42.55683220" lon="1.87046919"><ele>1885.0</ele><time>2019-03-23T12:16:25Z</time></trkpt>
	<trkpt lat="42.55684289" lon="1.87053600"><ele>1886.4</ele><time>2019-03-23T12:16:32Z</time></trkpt>
	<trkpt lat="42.55684616" lon="1.87060177"><ele>1888.0</ele><time>2019-03-23T12:16:42Z</time></trkpt>
	<trkpt lat="42.55684861" lon="1.87066350"><ele>1888.8</ele><time>2019-03-23T12:16:48Z</time></trkpt>
	<trkpt lat="42.55684436" lon="1.87072714"><ele>1889.5</ele><time>2019-03-23T12:16:53Z</time></trkpt>
	<trkpt lat="42.55684312" lon="1.87079573"><ele>1890.3</ele><time>2019-03-23T12:19:22Z</time></trkpt>
	<trkpt lat="42.55684981" lon="1.87086752"><ele>1891.5</ele><time>2019-03-23T12:19:28Z</time></trkpt>
	<trkpt lat="42.55686428" lon="1.87092643"><ele>1892.6</ele><time>2019-03-23T12:19:33Z</time></trkpt>
	<trkpt lat="42.55688440" lon="1.87099040"><ele>1893.6</ele><time>2019-03-23T12:19:40Z</time></trkpt>
	<trkpt lat="42.55689411" lon="1.87105047"><ele>1894.3</ele><time>2019-03-23T12:19:45Z</time></trkpt>
	<trkpt lat="42.55689945" lon="1.87112206"><ele>1895.5</ele><time>2019-03-23T12:19:51Z</time></trkpt>
	<trkpt lat="42.55690241" lon="1.87119051"><ele>1896.6</ele><time>2019-03-23T12:19:57Z</time></trkpt>
	<trkpt lat="42.55690431" lon="1.87125738"><ele>1897.7</ele><time>2019-03-23T12:20:03Z</time></trkpt>
	<trkpt lat="42.55690416" lon="1.87132528"><ele>1898.9</ele><time>2019-03-23T12:20:09Z</time></trkpt>
	<trkpt lat="42.55690651" lon="1.87139465"><ele>1900.1</ele><time>2019-03-23T12:20:15Z</time></trkpt>
	<trkpt lat="42.55691223" lon="1.87145546"><ele>1901.3</ele><time>2019-03-23T12:20:21Z</time></trkpt>
	<trkpt lat="42.55693023" lon="1.87151478"><ele>1902.9</ele><time>2019-03-23T12:20:28Z</time></trkpt>
	<trkpt lat="42.55694260" lon="1.87157924"><ele>1904.6</ele><time>2019-03-23T12:20:35Z</time></trkpt>
	<trkpt lat="42.55695604" lon="1.87164387"><ele>1905.9</ele><time>2019-03-23T12:20:42Z</time></trkpt>
	<trkpt lat="42.55696887" lon="1.87170880"><ele>1907.2</ele><time>2019-03-23T12:20:49Z</time></trkpt>
	<trkpt lat="42.55699122" lon="1.87176529"><ele>1908.9</ele><time>2019-03-23T12:20:57Z</time></trkpt>
	<trkpt lat="42.55700214" lon="1.87183270"><ele>1909.9</ele><time>2019-03-23T12:21:04Z</time></trkpt>
	<trkpt lat="42.55701674" lon="1.87189737"><ele>1910.8</ele><time>2019-03-23T12:21:11Z</time></trkpt>
	<trkpt lat="42.55703418" lon="1.87195930"><ele>1912.0</ele><time>2019-03-23T12:21:18Z</time></trkpt>
	<trkpt lat="42.55704471" lon="1.87202296"><ele>1913.1</ele><time>2019-03-23T12:21:25Z</time></trkpt>
	<trkpt lat="42.55705492" lon="1.87208700"><ele>1913.8</ele><time>2019-03-23T12:21:31Z</time></trkpt>
	<trkpt lat="42.55707287" lon="1.87214867"><ele>1914.4</ele><time>2019-03-23T12:21:37Z</time></trkpt>
	<trkpt lat="42.55708238" lon="1.87221367"><ele>1914.6</ele><time>2019-03-23T12:21:42Z</time></trkpt>
	<trkpt lat="42.55708817" lon="1.87228559"><ele>1915.2</ele><time>2019-03-23T12:21:48Z</time></trkpt>
	<trkpt lat="42.55709382" lon="1.87234921"><ele>1916.1</ele><time>2019-03-23T12:21:54Z</time></trkpt>
	<trkpt lat="42.55709931" lon="1.87241747"><ele>1917.0</ele><time>2019-03-23T12:22:00Z</time></trkpt>
	<trkpt lat="42.55711353" lon="1.87247583"><ele>1918.4</ele><time>2019-03-23T12:22:07Z</time></trkpt>
	<trkpt lat="42.55710597" lon="1.87254024"><ele>1919.0</ele><time>2019-03-23T12:22:13Z</time></trkpt>
	<trkpt lat="42.55709798" lon="1.87260530"><ele>1919.5</ele><time>2019-03-23T12:22:18Z</time></trkpt>
	<trkpt lat="42.55710704" lon="1.87266805"><ele>1920.3</ele><time>2019-03-23T12:22:24Z</time></trkpt>
	<trkpt lat="42.55712071" lon="1.87273746"><ele>1921.0</ele><time>2019-03-23T12:22:30Z</time></trkpt>
	<trkpt lat="42.55712802" lon="1.87280504"><ele>1921.6</ele><time>2019-03-23T12:22:36Z</time></trkpt>
	<trkpt lat="42.55713227" lon="1.87286844"><ele>1922.0</ele><time>2019-03-23T12:22:41Z</time></trkpt>
	<trkpt lat="42.55714348" lon="1.87293763"><ele>1922.9</ele><time>2019-03-23T12:22:48Z</time></trkpt>
	<trkpt lat="42.55714985" lon="1.87300615"><ele>1923.6</ele><time>2019-03-23T12:22:54Z</time></trkpt>
	<trkpt lat="42.55715359" lon="1.87306927"><ele>1924.4</ele><time>2019-03-23T12:23:00Z</time></trkpt>
	<trkpt lat="42.55716720" lon="1.87313803"><ele>1925.4</ele><time>2019-03-23T12:23:07Z</time></trkpt>
	<trkpt lat="42.55717911" lon="1.87320635"><ele>1926.1</ele><time>2019-03-23T12:23:13Z</time></trkpt>
	<trkpt lat="42.55719094" lon="1.87326826"><ele>1927.1</ele><time>2019-03-23T12:23:20Z</time></trkpt>
	<trkpt lat="42.55719121" lon="1.87333700"><ele>1928.1</ele><time>2019-03-23T12:23:27Z</time></trkpt>
	<trkpt lat="42.55719134" lon="1.87340788"><ele>1929.0</ele><time>2019-03-23T12:23:34Z</time></trkpt>
	<trkpt lat="42.55719575" lon="1.87347869"><ele>1929.9</ele><time>2019-03-23T12:23:41Z</time></trkpt>
	<trkpt lat="42.55721566" lon="1.87354055"><ele>1930.9</ele><time>2019-03-23T12:23:48Z</time></trkpt>
	<trkpt lat="42.55723111" lon="1.87360225"><ele>1932.0</ele><time>2019-03-23T12:23:55Z</time></trkpt>
	<trkpt lat="42.55721870" lon="1.87366491"><ele>1932.8</ele><time>2019-03-23T12:24:02Z</time></trkpt>
	<trkpt lat="42.55720134" lon="1.87372339"><ele>1933.3</ele><time>2019-03-23T12:24:08Z</time></trkpt>
	<trkpt lat="42.55719518" lon="1.87378682"><ele>1934.2</ele><time>2019-03-23T12:24:15Z</time></trkpt>
	<trkpt lat="42.55718639" lon="1.87384969"><ele>1934.8</ele><time>2019-03-23T12:24:21Z</time></trkpt>
	<trkpt lat="42.55717841" lon="1.87391716"><ele>1935.2</ele><time>2019-03-23T12:24:27Z</time></trkpt>
	<trkpt lat="42.55717203" lon="1.87398708"><ele>1935.6</ele><time>2019-03-23T12:24:33Z</time></trkpt>
	<trkpt lat="42.55714733" lon="1.87404927"><ele>1935.9</ele><time>2019-03-23T12:24:39Z</time></trkpt>
	<trkpt lat="42.55711880" lon="1.87410552"><ele>1936.1</ele><time>2019-03-23T12:24:44Z</time></trkpt>
	<trkpt lat="42.55710394" lon="1.87416587"><ele>1936.5</ele><time>2019-03-23T12:24:49Z</time></trkpt>
	<trkpt lat="42.55709766" lon="1.87423292"><ele>1937.1</ele><time>2019-03-23T12:24:55Z</time></trkpt>
	<trkpt lat="42.55708465" lon="1.87429458"><ele>1937.6</ele><time>2019-03-23T12:25:02Z</time></trkpt>
	<trkpt lat="42.55712920" lon="1.87431515"><ele>1938.9</ele><time>2019-03-23T12:28:51Z</time></trkpt>
	<trkpt lat="42.55713767" lon="1.87437636"><ele>1939.4</ele><time>2019-03-23T12:28:56Z</time></trkpt>
	<trkpt lat="42.55714298" lon="1.87444218"><ele>1940.2</ele><time>2019-03-23T12:29:01Z</time></trkpt>
	<trkpt lat="42.55714926" lon="1.87451310"><ele>1940.8</ele><time>2019-03-23T12:29:07Z</time></trkpt>
	<trkpt lat="42.55715990" lon="1.87457316"><ele>1941.3</ele><time>2019-03-23T12:29:12Z</time></trkpt>
	<trkpt lat="42.55717311" lon="1.87463760"><ele>1941.9</ele><time>2019-03-23T12:29:17Z</time></trkpt>
	<trkpt lat="42.55718783" lon="1.87470133"><ele>1942.3</ele><time>2019-03-23T12:29:22Z</time></trkpt>
	<trkpt lat="42.55719609" lon="1.87476723"><ele>1942.6</ele><time>2019-03-23T12:29:27Z</time></trkpt>
	<trkpt lat="42.55720693" lon="1.87483136"><ele>1943.1</ele><time>2019-03-23T12:29:32Z</time></trkpt>
	<trkpt lat="42.55723039" lon="1.87488626"><ele>1943.6</ele><time>2019-03-23T12:29:37Z</time></trkpt>
	<trkpt lat="42.55725778" lon="1.87494218"><ele>1944.0</ele><time>2019-03-23T12:29:42Z</time></trkpt>
	<trkpt lat="42.55728452" lon="1.87500456"><ele>1944.2</ele><time>2019-03-23T12:29:47Z</time></trkpt>
	<trkpt lat="42.55730524" lon="1.87506707"><ele>1944.6</ele><time>2019-03-23T12:29:52Z</time></trkpt>
	<trkpt lat="42.55731683" lon="1.87513265"><ele>1944.9</ele><time>2019-03-23T12:29:57Z</time></trkpt>
	<trkpt lat="42.55733502" lon="1.87519732"><ele>1945.2</ele><time>2019-03-23T12:30:02Z</time></trkpt>
	<trkpt lat="42.55735237" lon="1.87526209"><ele>1945.6</ele><time>2019-03-23T12:30:08Z</time></trkpt>
	<trkpt lat="42.55736063" lon="1.87532998"><ele>1946.3</ele><time>2019-03-23T12:30:14Z</time></trkpt>
	<trkpt lat="42.55737727" lon="1.87539633"><ele>1947.2</ele><time>2019-03-23T12:30:20Z</time></trkpt>
	<trkpt lat="42.55739776" lon="1.87545599"><ele>1948.3</ele><time>2019-03-23T12:30:26Z</time></trkpt>
	<trkpt lat="42.55742503" lon="1.87551526"><ele>1949.4</ele><time>2019-03-23T12:30:33Z</time></trkpt>
	<trkpt lat="42.55742566" lon="1.87558194"><ele>1950.2</ele><time>2019-03-23T12:30:39Z</time></trkpt>
	<trkpt lat="42.55741866" lon="1.87565018"><ele>1951.1</ele><time>2019-03-23T12:30:45Z</time></trkpt>
	<trkpt lat="42.55740060" lon="1.87571103"><ele>1951.5</ele><time>2019-03-23T12:30:50Z</time></trkpt>
	<trkpt lat="42.55739682" lon="1.87577443"><ele>1951.9</ele><time>2019-03-23T12:30:55Z</time></trkpt>
	<trkpt lat="42.55741154" lon="1.87583725"><ele>1952.4</ele><time>2019-03-23T12:31:00Z</time></trkpt>
	<trkpt lat="42.55742815" lon="1.87589581"><ele>1952.9</ele><time>2019-03-23T12:31:05Z</time></trkpt>
	<trkpt lat="42.55744888" lon="1.87595131"><ele>1953.4</ele><time>2019-03-23T12:31:10Z</time></trkpt>
	<trkpt lat="42.55746502" lon="1.87601401"><ele>1953.9</ele><time>2019-03-23T12:31:15Z</time></trkpt>
	<trkpt lat="42.55748548" lon="1.87607762"><ele>1954.5</ele><time>2019-03-23T12:31:20Z</time></trkpt>
	<trkpt lat="42.55750239" lon="1.87614862"><ele>1955.2</ele><time>2019-03-23T12:31:25Z</time></trkpt>
	<trkpt lat="42.55752651" lon="1.87620501"><ele>1956.0</ele><time>2019-03-23T12:31:30Z</time></trkpt>
	<trkpt lat="42.55755114" lon="1.87625955"><ele>1956.5</ele><time>2019-03-23T12:31:35Z</time></trkpt>
	<trkpt lat="42.55756903" lon="1.87631932"><ele>1956.7</ele><time>2019-03-23T12:31:40Z</time></trkpt>
	<trkpt lat="42.55759214" lon="1.87637699"><ele>1957.0</ele><time>2019-03-23T12:31:46Z</time></trkpt>
	<trkpt lat="42.55761086" lon="1.87644618"><ele>1957.7</ele><time>2019-03-23T12:31:52Z</time></trkpt>
	<trkpt lat="42.55762454" lon="1.87650900"><ele>1958.2</ele><time>2019-03-23T12:31:57Z</time></trkpt>
	<trkpt lat="42.55765490" lon="1.87656472"><ele>1958.8</ele><time>2019-03-23T12:32:03Z</time></trkpt>
	<trkpt lat="42.55768503" lon="1.87661817"><ele>1959.3</ele><time>2019-03-23T12:32:08Z</time></trkpt>
	<trkpt lat="42.55772142" lon="1.87666408"><ele>1959.8</ele><time>2019-03-23T12:32:13Z</time></trkpt>
	<trkpt lat="42.55776318" lon="1.87669899"><ele>1960.5</ele><time>2019-03-23T12:32:18Z</time></trkpt>
	<trkpt lat="42.55780281" lon="1.87673705"><ele>1961.2</ele><time>2019-03-23T12:32:23Z</time></trkpt>
	<trkpt lat="42.55784227" lon="1.87676817"><ele>1962.0</ele><time>2019-03-23T12:32:28Z</time></trkpt>
	<trkpt lat="42.55789027" lon="1.87679550"><ele>1963.1</ele><time>2019-03-23T12:32:34Z</time></trkpt>
	<trkpt lat="42.55794006" lon="1.87682064"><ele>1964.0</ele><time>2019-03-23T12:32:40Z</time></trkpt>
	<trkpt lat="42.55798116" lon="1.87684589"><ele>1964.7</ele><time>2019-03-23T12:32:45Z</time></trkpt>
	<trkpt lat="42.55802609" lon="1.87684997"><ele>1965.7</ele><time>2019-03-23T12:33:51Z</time></trkpt>
	<trkpt lat="42.55807761" lon="1.87685035"><ele>1968.2</ele><time>2019-03-23T12:34:47Z</time></trkpt>
	<trkpt lat="42.55812633" lon="1.87686675"><ele>1969.4</ele><time>2019-03-23T12:34:53Z</time></trkpt>
	<trkpt lat="42.55817471" lon="1.87687025"><ele>1970.5</ele><time>2019-03-23T12:34:59Z</time></trkpt>
	<trkpt lat="42.55821940" lon="1.87689959"><ele>1971.8</ele><time>2019-03-23T12:35:05Z</time></trkpt>
	<trkpt lat="42.55827250" lon="1.87691305"><ele>1972.9</ele><time>2019-03-23T12:35:11Z</time></trkpt>
	<trkpt lat="42.55832139" lon="1.87692620"><ele>1974.2</ele><time>2019-03-23T12:35:18Z</time></trkpt>
	<trkpt lat="42.55836774" lon="1.87694934"><ele>1975.4</ele><time>2019-03-23T12:35:24Z</time></trkpt>
	<trkpt lat="42.55841752" lon="1.87696262"><ele>1976.7</ele><time>2019-03-23T12:35:30Z</time></trkpt>
	<trkpt lat="42.55846332" lon="1.87699149"><ele>1978.3</ele><time>2019-03-23T12:35:37Z</time></trkpt>
	<trkpt lat="42.55850897" lon="1.87701150"><ele>1980.0</ele><time>2019-03-23T12:35:44Z</time></trkpt>
	<trkpt lat="42.55854600" lon="1.87704755"><ele>1981.4</ele><time>2019-03-23T12:35:50Z</time></trkpt>
	<trkpt lat="42.55858885" lon="1.87707866"><ele>1982.8</ele><time>2019-03-23T12:35:57Z</time></trkpt>
	<trkpt lat="42.55863004" lon="1.87711327"><ele>1984.3</ele><time>2019-03-23T12:36:04Z</time></trkpt>
	<trkpt lat="42.55867996" lon="1.87712452"><ele>1985.8</ele><time>2019-03-23T12:36:11Z</time></trkpt>
	<trkpt lat="42.55871640" lon="1.87716943"><ele>1986.7</ele><time>2019-03-23T12:36:17Z</time></trkpt>
	<trkpt lat="42.55875061" lon="1.87721693"><ele>1987.5</ele><time>2019-03-23T12:36:22Z</time></trkpt>
	<trkpt lat="42.55878588" lon="1.87726476"><ele>1988.3</ele><time>2019-03-23T12:36:28Z</time></trkpt>
	<trkpt lat="42.55881064" lon="1.87731960"><ele>1988.9</ele><time>2019-03-23T12:36:33Z</time></trkpt>
	<trkpt lat="42.55884070" lon="1.87738075"><ele>1989.6</ele><time>2019-03-23T12:36:39Z</time></trkpt>
	<trkpt lat="42.55887433" lon="1.87743046"><ele>1990.4</ele><time>2019-03-23T12:36:45Z</time></trkpt>
	<trkpt lat="42.55891375" lon="1.87746267"><ele>1991.4</ele><time>2019-03-23T12:36:52Z</time></trkpt>
	<trkpt lat="42.55894391" lon="1.87750863"><ele>1992.3</ele><time>2019-03-23T12:36:58Z</time></trkpt>
	<trkpt lat="42.55897306" lon="1.87755753"><ele>1993.0</ele><time>2019-03-23T12:37:03Z</time></trkpt>
	<trkpt lat="42.55901125" lon="1.87759270"><ele>1993.6</ele><time>2019-03-23T12:37:09Z</time></trkpt>
	<trkpt lat="42.55904992" lon="1.87764068"><ele>1994.2</ele><time>2019-03-23T12:37:15Z</time></trkpt>
	<trkpt lat="42.55908500" lon="1.87768377"><ele>1995.1</ele><time>2019-03-23T12:37:21Z</time></trkpt>
	<trkpt lat="42.55911728" lon="1.87773053"><ele>1995.7</ele><time>2019-03-23T12:37:26Z</time></trkpt>
	<trkpt lat="42.55914630" lon="1.87778006"><ele>1996.1</ele><time>2019-03-23T12:37:31Z</time></trkpt>
	<trkpt lat="42.55918993" lon="1.87782086"><ele>1996.8</ele><time>2019-03-23T12:37:37Z</time></trkpt>
	<trkpt lat="42.55923414" lon="1.87784739"><ele>1997.5</ele><time>2019-03-23T12:37:43Z</time></trkpt>
	<trkpt lat="42.55927511" lon="1.87787931"><ele>1998.7</ele><time>2019-03-23T12:37:50Z</time></trkpt>
	<trkpt lat="42.55930505" lon="1.87793717"><ele>1999.3</ele><time>2019-03-23T12:37:56Z</time></trkpt>
	<trkpt lat="42.55934089" lon="1.87798002"><ele>1999.6</ele><time>2019-03-23T12:38:01Z</time></trkpt>
	<trkpt lat="42.55937216" lon="1.87802975"><ele>1999.9</ele><time>2019-03-23T12:38:07Z</time></trkpt>
	<trkpt lat="42.55937257" lon="1.87809946"><ele>2000.3</ele><time>2019-03-23T12:38:13Z</time></trkpt>
	<trkpt lat="42.55939000" lon="1.87816579"><ele>2000.6</ele><time>2019-03-23T12:38:18Z</time></trkpt>
	<trkpt lat="42.55941623" lon="1.87822515"><ele>2000.8</ele><time>2019-03-23T12:38:23Z</time></trkpt>
	<trkpt lat="42.55944059" lon="1.87828039"><ele>2001.4</ele><time>2019-03-23T12:38:28Z</time></trkpt>
	<trkpt lat="42.55947209" lon="1.87833465"><ele>2002.3</ele><time>2019-03-23T12:38:34Z</time></trkpt>
	<trkpt lat="42.55949874" lon="1.87839595"><ele>2003.0</ele><time>2019-03-23T12:38:40Z</time></trkpt>
	<trkpt lat="42.55953179" lon="1.87844331"><ele>2003.9</ele><time>2019-03-23T12:38:46Z</time></trkpt>
	<trkpt lat="42.55956160" lon="1.87850240"><ele>2004.7</ele><time>2019-03-23T12:38:52Z</time></trkpt>
	<trkpt lat="42.55958265" lon="1.87856588"><ele>2005.2</ele><time>2019-03-23T12:38:57Z</time></trkpt>
	<trkpt lat="42.55960469" lon="1.87862269"><ele>2005.8</ele><time>2019-03-23T12:39:02Z</time></trkpt>
	<trkpt lat="42.55963629" lon="1.87867065"><ele>2006.4</ele><time>2019-03-23T12:39:08Z</time></trkpt>
	<trkpt lat="42.55967061" lon="1.87872642"><ele>2007.4</ele><time>2019-03-23T12:39:14Z</time></trkpt>
	<trkpt lat="42.55970109" lon="1.87878775"><ele>2007.9</ele><time>2019-03-23T12:39:19Z</time></trkpt>
	<trkpt lat="42.55973281" lon="1.87883372"><ele>2008.7</ele><time>2019-03-23T12:39:24Z</time></trkpt>
	<trkpt lat="42.55977071" lon="1.87887031"><ele>2009.8</ele><time>2019-03-23T12:39:30Z</time></trkpt>
	<trkpt lat="42.55980098" lon="1.87892492"><ele>2010.6</ele><time>2019-03-23T12:39:36Z</time></trkpt>
	<trkpt lat="42.55982125" lon="1.87898837"><ele>2011.0</ele><time>2019-03-23T12:39:41Z</time></trkpt>
	<trkpt lat="42.55984809" lon="1.87904234"><ele>2012.1</ele><time>2019-03-23T12:39:47Z</time></trkpt>
	<trkpt lat="42.55986984" lon="1.87910176"><ele>2012.7</ele><time>2019-03-23T12:39:52Z</time></trkpt>
	<trkpt lat="42.55989494" lon="1.87915927"><ele>2013.2</ele><time>2019-03-23T12:39:57Z</time></trkpt>
	<trkpt lat="42.55993009" lon="1.87920805"><ele>2014.1</ele><time>2019-03-23T12:40:03Z</time></trkpt>
	<trkpt lat="42.55995714" lon="1.87926307"><ele>2015.7</ele><time>2019-03-23T12:40:11Z</time></trkpt>
	<trkpt lat="42.55997424" lon="1.87932177"><ele>2016.2</ele><time>2019-03-23T12:40:16Z</time></trkpt>
	<trkpt lat="42.55999490" lon="1.87937595"><ele>2016.8</ele><time>2019-03-23T12:40:21Z</time></trkpt>
	<trkpt lat="42.56001667" lon="1.87943633"><ele>2017.5</ele><time>2019-03-23T12:40:26Z</time></trkpt>
	<trkpt lat="42.56003881" lon="1.87949277"><ele>2018.2</ele><time>2019-03-23T12:40:31Z</time></trkpt>
	<trkpt lat="42.56005120" lon="1.87955552"><ele>2018.6</ele><time>2019-03-23T12:40:36Z</time></trkpt>
	<trkpt lat="42.56007299" lon="1.87961105"><ele>2020.0</ele><time>2019-03-23T12:40:42Z</time></trkpt>
	<trkpt lat="42.56009200" lon="1.87968005"><ele>2021.1</ele><time>2019-03-23T12:40:48Z</time></trkpt>
	<trkpt lat="42.56010929" lon="1.87973987"><ele>2021.8</ele><time>2019-03-23T12:40:53Z</time></trkpt>
	<trkpt lat="42.56013412" lon="1.87979950"><ele>2022.8</ele><time>2019-03-23T12:40:59Z</time></trkpt>
	<trkpt lat="42.56015288" lon="1.87985595"><ele>2023.6</ele><time>2019-03-23T12:41:04Z</time></trkpt>
	<trkpt lat="42.56017296" lon="1.87991732"><ele>2024.3</ele><time>2019-03-23T12:41:09Z</time></trkpt>
	<trkpt lat="42.56019894" lon="1.87996720"><ele>2025.0</ele><time>2019-03-23T12:41:14Z</time></trkpt>
	<trkpt lat="42.56022431" lon="1.88001866"><ele>2025.7</ele><time>2019-03-23T12:41:19Z</time></trkpt>
	<trkpt lat="42.56025138" lon="1.88007761"><ele>2026.2</ele><time>2019-03-23T12:41:25Z</time></trkpt>
	<trkpt lat="42.56027985" lon="1.88013339"><ele>2027.3</ele><time>2019-03-23T12:41:32Z</time></trkpt>
	<trkpt lat="42.56030122" lon="1.88019872"><ele>2028.8</ele><time>2019-03-23T12:41:39Z</time></trkpt>
	<trkpt lat="42.56031066" lon="1.88026821"><ele>2029.4</ele><time>2019-03-23T12:41:45Z</time></trkpt>
	<trkpt lat="42.56032910" lon="1.88033112"><ele>2029.7</ele><time>2019-03-23T12:41:50Z</time></trkpt>
	<trkpt lat="42.56034412" lon="1.88039570"><ele>2030.5</ele><time>2019-03-23T12:41:56Z</time></trkpt>
	<trkpt lat="42.56035112" lon="1.88046595"><ele>2031.4</ele><time>2019-03-23T12:42:02Z</time></trkpt>
	<trkpt lat="42.56034653" lon="1.88053193"><ele>2032.1</ele><time>2019-03-23T12:42:07Z</time></trkpt>
	<trkpt lat="42.56035521" lon="1.88059745"><ele>2033.3</ele><time>2019-03-23T12:42:14Z</time></trkpt>
	<trkpt lat="42.56034882" lon="1.88066022"><ele>2034.1</ele><time>2019-03-23T12:42:19Z</time></trkpt>
	<trkpt lat="42.56033860" lon="1.88072778"><ele>2034.8</ele><time>2019-03-23T12:42:25Z</time></trkpt>
	<trkpt lat="42.56033596" lon="1.88078994"><ele>2035.5</ele><time>2019-03-23T12:42:30Z</time></trkpt>
	<trkpt lat="42.56032401" lon="1.88085786"><ele>2036.2</ele><time>2019-03-23T12:42:36Z</time></trkpt>
	<trkpt lat="42.56030796" lon="1.88091924"><ele>2036.7</ele><time>2019-03-23T12:42:41Z</time></trkpt>
	<trkpt lat="42.56030580" lon="1.88098017"><ele>2037.3</ele><time>2019-03-23T12:42:46Z</time></trkpt>
	<trkpt lat="42.56031572" lon="1.88104046"><ele>2038.1</ele><time>2019-03-23T12:42:52Z</time></trkpt>
	<trkpt lat="42.56032334" lon="1.88110774"><ele>2038.9</ele><time>2019-03-23T12:42:58Z</time></trkpt>
	<trkpt lat="42.56032481" lon="1.88117244"><ele>2039.2</ele><time>2019-03-23T12:43:03Z</time></trkpt>
	<trkpt lat="42.56034510" lon="1.88123722"><ele>2040.1</ele><time>2019-03-23T12:43:09Z</time></trkpt>
	<trkpt lat="42.56036360" lon="1.88129873"><ele>2040.9</ele><time>2019-03-23T12:43:15Z</time></trkpt>
	<trkpt lat="42.56038292" lon="1.88135580"><ele>2042.0</ele><time>2019-03-23T12:43:21Z</time></trkpt>
	<trkpt lat="42.56040822" lon="1.88141461"><ele>2043.1</ele><time>2019-03-23T12:43:27Z</time></trkpt>
	<trkpt lat="42.56043223" lon="1.88146642"><ele>2044.1</ele><time>2019-03-23T12:43:33Z</time></trkpt>
	<trkpt lat="42.56044994" lon="1.88152308"><ele>2044.6</ele><time>2019-03-23T12:43:38Z</time></trkpt>
	<trkpt lat="42.56045837" lon="1.88158870"><ele>2045.5</ele><time>2019-03-23T12:43:44Z</time></trkpt>
	<trkpt lat="42.56046559" lon="1.88165957"><ele>2046.4</ele><time>2019-03-23T12:43:51Z</time></trkpt>
	<trkpt lat="42.56046525" lon="1.88173343"><ele>2046.9</ele><time>2019-03-23T12:43:57Z</time></trkpt>
	<trkpt lat="42.56047085" lon="1.88179887"><ele>2047.9</ele><time>2019-03-23T12:44:04Z</time></trkpt>
	<trkpt lat="42.56048599" lon="1.88185739"><ele>2049.2</ele><time>2019-03-23T12:44:11Z</time></trkpt>
	<trkpt lat="42.56050857" lon="1.88191601"><ele>2050.8</ele><time>2019-03-23T12:44:19Z</time></trkpt>
	<trkpt lat="42.56051734" lon="1.88198654"><ele>2051.7</ele><time>2019-03-23T12:44:26Z</time></trkpt>
	<trkpt lat="42.56053410" lon="1.88204728"><ele>2052.4</ele><time>2019-03-23T12:44:32Z</time></trkpt>
	<trkpt lat="42.56055339" lon="1.88211075"><ele>2053.3</ele><time>2019-03-23T12:44:38Z</time></trkpt>
	<trkpt lat="42.56056829" lon="1.88217111"><ele>2053.8</ele><time>2019-03-23T12:44:43Z</time></trkpt>
	<trkpt lat="42.56059123" lon="1.88223042"><ele>2054.5</ele><time>2019-03-23T12:44:49Z</time></trkpt>
	<trkpt lat="42.56061986" lon="1.88227761"><ele>2055.5</ele><time>2019-03-23T12:44:55Z</time></trkpt>
	<trkpt lat="42.56063829" lon="1.88233753"><ele>2056.0</ele><time>2019-03-23T12:45:00Z</time></trkpt>
	<trkpt lat="42.56066088" lon="1.88239855"><ele>2056.8</ele><time>2019-03-23T12:45:06Z</time></trkpt>
	<trkpt lat="42.56066806" lon="1.88246289"><ele>2057.4</ele><time>2019-03-23T12:45:12Z</time></trkpt>
	<trkpt lat="42.56067544" lon="1.88252658"><ele>2057.9</ele><time>2019-03-23T12:45:17Z</time></trkpt>
	<trkpt lat="42.56068444" lon="1.88259117"><ele>2058.4</ele><time>2019-03-23T12:45:22Z</time></trkpt>
	<trkpt lat="42.56068720" lon="1.88265687"><ele>2058.9</ele><time>2019-03-23T12:45:28Z</time></trkpt>
	<trkpt lat="42.56069748" lon="1.88272144"><ele>2059.5</ele><time>2019-03-23T12:45:34Z</time></trkpt>
	<trkpt lat="42.56072259" lon="1.88278157"><ele>2060.7</ele><time>2019-03-23T12:45:41Z</time></trkpt>
	<trkpt lat="42.56073907" lon="1.88283880"><ele>2061.2</ele><time>2019-03-23T12:45:46Z</time></trkpt>
	<trkpt lat="42.56075558" lon="1.88289972"><ele>2061.9</ele><time>2019-03-23T12:45:52Z</time></trkpt>
	<trkpt lat="42.56077199" lon="1.88296754"><ele>2062.9</ele><time>2019-03-23T12:45:59Z</time></trkpt>
	<trkpt lat="42.56077610" lon="1.88302891"><ele>2063.2</ele><time>2019-03-23T12:46:04Z</time></trkpt>
	<trkpt lat="42.56078240" lon="1.88308977"><ele>2063.9</ele><time>2019-03-23T12:46:10Z</time></trkpt>
	<trkpt lat="42.56079782" lon="1.88314945"><ele>2065.3</ele><time>2019-03-23T12:46:17Z</time></trkpt>
	<trkpt lat="42.56081552" lon="1.88320947"><ele>2066.6</ele><time>2019-03-23T12:46:24Z</time></trkpt>
	<trkpt lat="42.56082517" lon="1.88327779"><ele>2068.0</ele><time>2019-03-23T12:46:31Z</time></trkpt>
	<trkpt lat="42.56082704" lon="1.88333974"><ele>2069.1</ele><time>2019-03-23T12:46:37Z</time></trkpt>
	<trkpt lat="42.56082205" lon="1.88340415"><ele>2070.0</ele><time>2019-03-23T12:46:43Z</time></trkpt>
	<trkpt lat="42.56083119" lon="1.88346925"><ele>2070.7</ele><time>2019-03-23T12:46:49Z</time></trkpt>
	<trkpt lat="42.56084489" lon="1.88353208"><ele>2071.7</ele><time>2019-03-23T12:46:56Z</time></trkpt>
	<trkpt lat="42.56086295" lon="1.88358803"><ele>2072.6</ele><time>2019-03-23T12:47:02Z</time></trkpt>
	<trkpt lat="42.56089498" lon="1.88363324"><ele>2073.2</ele><time>2019-03-23T12:49:13Z</time></trkpt>
	<trkpt lat="42.56091178" lon="1.88370062"><ele>2072.4</ele><time>2019-03-23T12:49:18Z</time></trkpt>
	<trkpt lat="42.56093340" lon="1.88375868"><ele>2072.5</ele><time>2019-03-23T12:49:23Z</time></trkpt>
	<trkpt lat="42.56095245" lon="1.88381667"><ele>2072.8</ele><time>2019-03-23T12:49:28Z</time></trkpt>
	<trkpt lat="42.56097421" lon="1.88387629"><ele>2073.3</ele><time>2019-03-23T12:49:33Z</time></trkpt>
	<trkpt lat="42.56099583" lon="1.88393387"><ele>2074.1</ele><time>2019-03-23T12:49:39Z</time></trkpt>
	<trkpt lat="42.56100909" lon="1.88400200"><ele>2074.9</ele><time>2019-03-23T12:49:45Z</time></trkpt>
	<trkpt lat="42.56102142" lon="1.88406449"><ele>2075.9</ele><time>2019-03-23T12:49:51Z</time></trkpt>
	<trkpt lat="42.56102832" lon="1.88412999"><ele>2077.0</ele><time>2019-03-23T12:49:57Z</time></trkpt>
	<trkpt lat="42.56103337" lon="1.88419896"><ele>2078.0</ele><time>2019-03-23T12:50:04Z</time></trkpt>
	<trkpt lat="42.56103011" lon="1.88426918"><ele>2078.8</ele><time>2019-03-23T12:50:11Z</time></trkpt>
	<trkpt lat="42.56103460" lon="1.88433866"><ele>2079.7</ele><time>2019-03-23T12:50:18Z</time></trkpt>
	<trkpt lat="42.56103290" lon="1.88440683"><ele>2080.8</ele><time>2019-03-23T12:50:25Z</time></trkpt>
	<trkpt lat="42.56104581" lon="1.88446791"><ele>2082.1</ele><time>2019-03-23T12:50:32Z</time></trkpt>
	<trkpt lat="42.56102930" lon="1.88453044"><ele>2083.9</ele><time>2019-03-23T12:50:41Z</time></trkpt>
	<trkpt lat="42.56101872" lon="1.88459044"><ele>2085.1</ele><time>2019-03-23T12:50:48Z</time></trkpt>
	<trkpt lat="42.56100521" lon="1.88465066"><ele>2086.4</ele><time>2019-03-23T12:50:55Z</time></trkpt>
	<trkpt lat="42.56099152" lon="1.88471535"><ele>2087.7</ele><time>2019-03-23T12:51:02Z</time></trkpt>
	<trkpt lat="42.56099952" lon="1.88477565"><ele>2088.7</ele><time>2019-03-23T12:51:09Z</time></trkpt>
	<trkpt lat="42.56100411" lon="1.88483653"><ele>2089.8</ele><time>2019-03-23T12:51:17Z</time></trkpt>
	<trkpt lat="42.56100322" lon="1.88489786"><ele>2090.6</ele><time>2019-03-23T12:51:24Z</time></trkpt>
	<trkpt lat="42.56099547" lon="1.88496361"><ele>2090.9</ele><time>2019-03-23T12:51:29Z</time></trkpt>
	<trkpt lat="42.56100160" lon="1.88502708"><ele>2091.2</ele><time>2019-03-23T12:51:34Z</time></trkpt>
	<trkpt lat="42.56101114" lon="1.88508843"><ele>2091.6</ele><time>2019-03-23T12:51:39Z</time></trkpt>
	<trkpt lat="42.56103310" lon="1.88515168"><ele>2092.3</ele><time>2019-03-23T12:51:45Z</time></trkpt>
	<trkpt lat="42.56105245" lon="1.88521746"><ele>2093.2</ele><time>2019-03-23T12:51:51Z</time></trkpt>
	<trkpt lat="42.56107785" lon="1.88528034"><ele>2094.3</ele><time>2019-03-23T12:51:58Z</time></trkpt>
	<trkpt lat="42.56110301" lon="1.88534160"><ele>2095.5</ele><time>2019-03-23T12:52:05Z</time></trkpt>
	<trkpt lat="42.56112738" lon="1.88539613"><ele>2096.6</ele><time>2019-03-23T12:52:12Z</time></trkpt>
	<trkpt lat="42.56114182" lon="1.88546033"><ele>2097.8</ele><time>2019-03-23T12:52:20Z</time></trkpt>
	<trkpt lat="42.56114926" lon="1.88552440"><ele>2098.8</ele><time>2019-03-23T12:52:26Z</time></trkpt>
	<trkpt lat="42.56116213" lon="1.88558583"><ele>2099.9</ele><time>2019-03-23T12:52:33Z</time></trkpt>
	<trkpt lat="42.56118186" lon="1.88564335"><ele>2101.0</ele><time>2019-03-23T12:52:41Z</time></trkpt>
	<trkpt lat="42.56119251" lon="1.88570964"><ele>2102.1</ele><time>2019-03-23T12:52:48Z</time></trkpt>
	<trkpt lat="42.56122438" lon="1.88576322"><ele>2103.5</ele><time>2019-03-23T12:52:56Z</time></trkpt>
	<trkpt lat="42.56124126" lon="1.88582838"><ele>2104.8</ele><time>2019-03-23T12:53:04Z</time></trkpt>
	<trkpt lat="42.56126548" lon="1.88588725"><ele>2106.3</ele><time>2019-03-23T12:53:12Z</time></trkpt>
	<trkpt lat="42.56129237" lon="1.88594186"><ele>2107.5</ele><time>2019-03-23T12:53:19Z</time></trkpt>
	<trkpt lat="42.56131627" lon="1.88600082"><ele>2108.9</ele><time>2019-03-23T12:53:27Z</time></trkpt>
	<trkpt lat="42.56132954" lon="1.88606479"><ele>2109.9</ele><time>2019-03-23T12:53:34Z</time></trkpt>
	<trkpt lat="42.56133642" lon="1.88612901"><ele>2111.3</ele><time>2019-03-23T12:53:41Z</time></trkpt>
	<trkpt lat="42.56134812" lon="1.88618789"><ele>2112.6</ele><time>2019-03-23T12:53:48Z</time></trkpt>
	<trkpt lat="42.56135921" lon="1.88624791"><ele>2114.2</ele><time>2019-03-23T12:53:57Z</time></trkpt>
	<trkpt lat="42.56136619" lon="1.88631335"><ele>2115.9</ele><time>2019-03-23T12:54:06Z</time></trkpt>
	<trkpt lat="42.56137580" lon="1.88637354"><ele>2117.6</ele><time>2019-03-23T12:54:14Z</time></trkpt>
	<trkpt lat="42.56141523" lon="1.88641377"><ele>2119.3</ele><time>2019-03-23T12:54:23Z</time></trkpt>
	<trkpt lat="42.56145435" lon="1.88644755"><ele>2121.2</ele><time>2019-03-23T12:54:33Z</time></trkpt>
	<trkpt lat="42.56148535" lon="1.88649639"><ele>2124.0</ele><time>2019-03-23T12:55:05Z</time></trkpt>
	<trkpt lat="42.56151501" lon="1.88654756"><ele>2125.3</ele><time>2019-03-23T12:55:16Z</time></trkpt>
	<trkpt lat="42.56154523" lon="1.88659967"><ele>2126.9</ele><time>2019-03-23T12:55:26Z</time></trkpt>
	<trkpt lat="42.56156715" lon="1.88665608"><ele>2129.1</ele><time>2019-03-23T12:55:38Z</time></trkpt>
	<trkpt lat="42.56157730" lon="1.88672005"><ele>2130.8</ele><time>2019-03-23T12:55:50Z</time></trkpt>
	<trkpt lat="42.56157672" lon="1.88678151"><ele>2132.1</ele><time>2019-03-23T12:56:02Z</time></trkpt>
	<trkpt lat="42.56157577" lon="1.88684465"><ele>2132.4</ele><time>2019-03-23T12:56:11Z</time></trkpt>
	<trkpt lat="42.56158410" lon="1.88691510"><ele>2132.6</ele><time>2019-03-23T12:56:22Z</time></trkpt>
	<trkpt lat="42.56159185" lon="1.88697938"><ele>2132.6</ele><time>2019-03-23T12:56:27Z</time></trkpt>
	<trkpt lat="42.56158268" lon="1.88704571"><ele>2133.0</ele><time>2019-03-23T12:56:32Z</time></trkpt>
	<trkpt lat="42.56157451" lon="1.88711203"><ele>2134.0</ele><time>2019-03-23T12:58:20Z</time></trkpt>
	<trkpt lat="42.56158049" lon="1.88718027"><ele>2134.1</ele><time>2019-03-23T12:58:24Z</time></trkpt>
	<trkpt lat="42.56158792" lon="1.88724504"><ele>2134.3</ele><time>2019-03-23T12:58:28Z</time></trkpt>
	<trkpt lat="42.56159369" lon="1.88731859"><ele>2134.4</ele><time>2019-03-23T12:58:33Z</time></trkpt>
	<trkpt lat="42.56160995" lon="1.88738452"><ele>2134.6</ele><time>2019-03-23T12:58:38Z</time></trkpt>
	<trkpt lat="42.56162802" lon="1.88745188"><ele>2134.6</ele><time>2019-03-23T12:58:43Z</time></trkpt>
	<trkpt lat="42.56163246" lon="1.88752575"><ele>2134.8</ele><time>2019-03-23T12:58:48Z</time></trkpt>
	<trkpt lat="42.56163539" lon="1.88759672"><ele>2134.9</ele><time>2019-03-23T12:58:53Z</time></trkpt>
	<trkpt lat="42.56164115" lon="1.88765719"><ele>2134.9</ele><time>2019-03-23T12:58:57Z</time></trkpt>
	<trkpt lat="42.56166387" lon="1.88772113"><ele>2135.1</ele><time>2019-03-23T12:59:02Z</time></trkpt>
	<trkpt lat="42.56167906" lon="1.88779221"><ele>2135.3</ele><time>2019-03-23T12:59:07Z</time></trkpt>
	<trkpt lat="42.56169725" lon="1.88786352"><ele>2135.4</ele><time>2019-03-23T12:59:12Z</time></trkpt>
	<trkpt lat="42.56172437" lon="1.88792863"><ele>2135.4</ele><time>2019-03-23T12:59:17Z</time></trkpt>
	<trkpt lat="42.56175441" lon="1.88797811"><ele>2135.4</ele><time>2019-03-23T12:59:21Z</time></trkpt>
	<trkpt lat="42.56178529" lon="1.88804037"><ele>2134.9</ele><time>2019-03-23T12:59:26Z</time></trkpt>
	<trkpt lat="42.56180452" lon="1.88810945"><ele>2134.6</ele><time>2019-03-23T12:59:31Z</time></trkpt>
	<trkpt lat="42.56182907" lon="1.88817662"><ele>2134.5</ele><time>2019-03-23T12:59:36Z</time></trkpt>
	<trkpt lat="42.56182863" lon="1.88825115"><ele>2134.6</ele><time>2019-03-23T12:59:41Z</time></trkpt>
	<trkpt lat="42.56183019" lon="1.88831595"><ele>2134.6</ele><time>2019-03-23T12:59:45Z</time></trkpt>
	<trkpt lat="42.56183724" lon="1.88838731"><ele>2134.5</ele><time>2019-03-23T12:59:50Z</time></trkpt>
	<trkpt lat="42.56184886" lon="1.88846018"><ele>2134.5</ele><time>2019-03-23T12:59:55Z</time></trkpt>
	<trkpt lat="42.56185881" lon="1.88853045"><ele>2134.6</ele><time>2019-03-23T13:00:00Z</time></trkpt>
	<trkpt lat="42.56188173" lon="1.88858426"><ele>2134.6</ele><time>2019-03-23T13:00:04Z</time></trkpt>
	<trkpt lat="42.56190316" lon="1.88865105"><ele>2134.7</ele><time>2019-03-23T13:00:09Z</time></trkpt>
	<trkpt lat="42.56192480" lon="1.88872066"><ele>2134.5</ele><time>2019-03-23T13:00:14Z</time></trkpt>
	<trkpt lat="42.56194599" lon="1.88878977"><ele>2134.4</ele><time>2019-03-23T13:00:19Z</time></trkpt>
	<trkpt lat="42.56197423" lon="1.88884998"><ele>2134.4</ele><time>2019-03-23T13:00:24Z</time></trkpt>
	<trkpt lat="42.56200994" lon="1.88889514"><ele>2134.4</ele><time>2019-03-23T13:00:29Z</time></trkpt>
	<trkpt lat="42.56204938" lon="1.88893157"><ele>2134.1</ele><time>2019-03-23T13:00:35Z</time></trkpt>
	<trkpt lat="42.56209836" lon="1.88895682"><ele>2135.3</ele><time>2019-03-23T13:01:51Z</time></trkpt>
	<trkpt lat="42.56214430" lon="1.88897874"><ele>2135.6</ele><time>2019-03-23T13:01:56Z</time></trkpt>
	<trkpt lat="42.56219316" lon="1.88899652"><ele>2135.8</ele><time>2019-03-23T13:02:01Z</time></trkpt>
	<trkpt lat="42.56223904" lon="1.88901669"><ele>2136.2</ele><time>2019-03-23T13:02:07Z</time></trkpt>
	<trkpt lat="42.56228132" lon="1.88906377"><ele>2136.0</ele><time>2019-03-23T13:02:14Z</time></trkpt>
	<trkpt lat="42.56232172" lon="1.88909265"><ele>2135.8</ele><time>2019-03-23T13:02:19Z</time></trkpt>
	<trkpt lat="42.56236122" lon="1.88913900"><ele>2134.3</ele><time>2019-03-23T13:02:23Z</time></trkpt>
	<trkpt lat="42.56239915" lon="1.88917182"><ele>2133.8</ele><time>2019-03-23T13:02:26Z</time></trkpt>
	<trkpt lat="42.56244355" lon="1.88920679"><ele>2133.9</ele><time>2019-03-23T13:02:31Z</time></trkpt>
	<trkpt lat="42.56246963" lon="1.88925659"><ele>2133.8</ele><time>2019-03-23T13:02:35Z</time></trkpt>
	<trkpt lat="42.56249311" lon="1.88931109"><ele>2133.8</ele><time>2019-03-23T13:02:39Z</time></trkpt>
	<trkpt lat="42.56252188" lon="1.88936827"><ele>2134.2</ele><time>2019-03-23T13:02:44Z</time></trkpt>
	<trkpt lat="42.56257131" lon="1.88939618"><ele>2134.8</ele><time>2019-03-23T13:02:50Z</time></trkpt>
	<trkpt lat="42.56261384" lon="1.88943101"><ele>2135.2</ele><time>2019-03-23T13:02:56Z</time></trkpt>
	<trkpt lat="42.56265874" lon="1.88946856"><ele>2135.3</ele><time>2019-03-23T13:03:02Z</time></trkpt>
	<trkpt lat="42.56270676" lon="1.88950027"><ele>2135.0</ele><time>2019-03-23T13:03:08Z</time></trkpt>
	<trkpt lat="42.56274642" lon="1.88953831"><ele>2135.3</ele><time>2019-03-23T13:03:13Z</time></trkpt>
	<trkpt lat="42.56278663" lon="1.88958716"><ele>2135.8</ele><time>2019-03-23T13:03:18Z</time></trkpt>
	<trkpt lat="42.56282656" lon="1.88962547"><ele>2136.1</ele><time>2019-03-23T13:03:22Z</time></trkpt>
	<trkpt lat="42.56286527" lon="1.88966678"><ele>2136.3</ele><time>2019-03-23T13:03:26Z</time></trkpt>
	<trkpt lat="42.56290717" lon="1.88970337"><ele>2136.4</ele><time>2019-03-23T13:03:30Z</time></trkpt>
	<trkpt lat="42.56295347" lon="1.88972702"><ele>2136.4</ele><time>2019-03-23T13:03:34Z</time></trkpt>
	<trkpt lat="42.56298502" lon="1.88977507"><ele>2136.6</ele><time>2019-03-23T13:03:41Z</time></trkpt>
	<trkpt lat="42.56300875" lon="1.88983655"><ele>2137.1</ele><time>2019-03-23T13:03:46Z</time></trkpt>
	<trkpt lat="42.56303474" lon="1.88988728"><ele>2137.6</ele><time>2019-03-23T13:03:51Z</time></trkpt>
	<trkpt lat="42.56306809" lon="1.88993820"><ele>2137.2</ele><time>2019-03-23T13:03:56Z</time></trkpt>
	<trkpt lat="42.56309388" lon="1.88998881"><ele>2137.9</ele><time>2019-03-23T13:04:11Z</time></trkpt>
	<trkpt lat="42.56311341" lon="1.89005502"><ele>2140.0</ele><time>2019-03-23T13:04:19Z</time></trkpt>
	<trkpt lat="42.56312975" lon="1.89012064"><ele>2139.3</ele><time>2019-03-23T13:04:25Z</time></trkpt>
	<trkpt lat="42.56317087" lon="1.89016689"><ele>2138.3</ele><time>2019-03-23T13:04:29Z</time></trkpt>
	<trkpt lat="42.56321472" lon="1.89020160"><ele>2137.7</ele><time>2019-03-23T13:04:33Z</time></trkpt>
	<trkpt lat="42.56325988" lon="1.89023770"><ele>2137.5</ele><time>2019-03-23T13:04:38Z</time></trkpt>
	<trkpt lat="42.56330477" lon="1.89025073"><ele>2137.3</ele><time>2019-03-23T13:04:42Z</time></trkpt>
	<trkpt lat="42.56335629" lon="1.89024785"><ele>2137.5</ele><time>2019-03-23T13:04:48Z</time></trkpt>
	<trkpt lat="42.56340396" lon="1.89024956"><ele>2138.0</ele><time>2019-03-23T13:04:54Z</time></trkpt>
	<trkpt lat="42.56345186" lon="1.89025276"><ele>2138.5</ele><time>2019-03-23T13:05:04Z</time></trkpt>
	<trkpt lat="42.56344452" lon="1.89031562"><ele>2138.7</ele><time>2019-03-23T13:05:10Z</time></trkpt>
	<trkpt lat="42.56344717" lon="1.89038948"><ele>2137.9</ele><time>2019-03-23T13:05:15Z</time></trkpt>
	<trkpt lat="42.56345187" lon="1.89045200"><ele>2137.7</ele><time>2019-03-23T13:05:19Z</time></trkpt>
	<trkpt lat="42.56345860" lon="1.89051265"><ele>2138.1</ele><time>2019-03-23T13:05:23Z</time></trkpt>
	<trkpt lat="42.56346802" lon="1.89057328"><ele>2138.3</ele><time>2019-03-23T13:05:27Z</time></trkpt>
	<trkpt lat="42.56349605" lon="1.89063705"><ele>2138.3</ele><time>2019-03-23T13:05:32Z</time></trkpt>
	<trkpt lat="42.56353109" lon="1.89068393"><ele>2138.3</ele><time>2019-03-23T13:05:36Z</time></trkpt>
	<trkpt lat="42.56357503" lon="1.89072900"><ele>2138.6</ele><time>2019-03-23T13:05:41Z</time></trkpt>
	<trkpt lat="42.56361901" lon="1.89076854"><ele>2138.8</ele><time>2019-03-23T13:05:46Z</time></trkpt>
	<trkpt lat="42.56366070" lon="1.89081063"><ele>2138.9</ele><time>2019-03-23T13:05:51Z</time></trkpt>
	<trkpt lat="42.56369555" lon="1.89085641"><ele>2139.1</ele><time>2019-03-23T13:05:57Z</time></trkpt>
	<trkpt lat="42.56373549" lon="1.89089839"><ele>2139.4</ele><time>2019-03-23T13:06:03Z</time></trkpt>
	<trkpt lat="42.56378178" lon="1.89094309"><ele>2139.2</ele><time>2019-03-23T13:06:08Z</time></trkpt>
	<trkpt lat="42.56382321" lon="1.89097313"><ele>2139.0</ele><time>2019-03-23T13:06:12Z</time></trkpt>
	<trkpt lat="42.56386804" lon="1.89098502"><ele>2139.0</ele><time>2019-03-23T13:06:16Z</time></trkpt>
	<trkpt lat="42.56391579" lon="1.89099757"><ele>2138.8</ele><time>2019-03-23T13:06:20Z</time></trkpt>
	<trkpt lat="42.56396766" lon="1.89100010"><ele>2138.7</ele><time>2019-03-23T13:06:24Z</time></trkpt>
	<trkpt lat="42.56401775" lon="1.89100181"><ele>2138.4</ele><time>2019-03-23T13:06:28Z</time></trkpt>
	<trkpt lat="42.56406356" lon="1.89098930"><ele>2138.1</ele><time>2019-03-23T13:06:32Z</time></trkpt>
	<trkpt lat="42.56411299" lon="1.89099274"><ele>2138.3</ele><time>2019-03-23T13:06:37Z</time></trkpt>
	<trkpt lat="42.56416494" lon="1.89099915"><ele>2138.4</ele><time>2019-03-23T13:06:42Z</time></trkpt>
	<trkpt lat="42.56411322" lon="1.89099381"><ele>2138.4</ele><time>2019-03-23T13:09:40Z</time></trkpt>
	<trkpt lat="42.56406296" lon="1.89100328"><ele>2138.1</ele><time>2019-03-23T13:09:46Z</time></trkpt>
	<trkpt lat="42.56400963" lon="1.89101244"><ele>2137.9</ele><time>2019-03-23T13:09:51Z</time></trkpt>
	<trkpt lat="42.56396069" lon="1.89100621"><ele>2137.9</ele><time>2019-03-23T13:09:55Z</time></trkpt>
	<trkpt lat="42.56391644" lon="1.89099005"><ele>2138.1</ele><time>2019-03-23T13:09:59Z</time></trkpt>
	<trkpt lat="42.56386671" lon="1.89098001"><ele>2138.1</ele><time>2019-03-23T13:10:12Z</time></trkpt>
	<trkpt lat="42.56381000" lon="1.89096238"><ele>2138.2</ele><time>2019-03-23T13:10:17Z</time></trkpt>
	<trkpt lat="42.56376370" lon="1.89092622"><ele>2138.5</ele><time>2019-03-23T13:10:22Z</time></trkpt>
	<trkpt lat="42.56372225" lon="1.89089140"><ele>2138.6</ele><time>2019-03-23T13:10:28Z</time></trkpt>
	<trkpt lat="42.56368798" lon="1.89084148"><ele>2138.4</ele><time>2019-03-23T13:10:35Z</time></trkpt>
	<trkpt lat="42.56364851" lon="1.89080287"><ele>2138.3</ele><time>2019-03-23T13:10:41Z</time></trkpt>
	<trkpt lat="42.56361083" lon="1.89076729"><ele>2138.3</ele><time>2019-03-23T13:10:46Z</time></trkpt>
	<trkpt lat="42.56356571" lon="1.89073020"><ele>2138.2</ele><time>2019-03-23T13:10:51Z</time></trkpt>
	<trkpt lat="42.56352397" lon="1.89069531"><ele>2138.2</ele><time>2019-03-23T13:10:55Z</time></trkpt>
	<trkpt lat="42.56349172" lon="1.89064706"><ele>2138.3</ele><time>2019-03-23T13:10:59Z</time></trkpt>
	<trkpt lat="42.56346912" lon="1.89058834"><ele>2138.2</ele><time>2019-03-23T13:11:03Z</time></trkpt>
	<trkpt lat="42.56345471" lon="1.89052510"><ele>2138.3</ele><time>2019-03-23T13:11:07Z</time></trkpt>
	<trkpt lat="42.56344583" lon="1.89046203"><ele>2138.1</ele><time>2019-03-23T13:11:11Z</time></trkpt>
	<trkpt lat="42.56344361" lon="1.89039910"><ele>2137.9</ele><time>2019-03-23T13:11:15Z</time></trkpt>
	<trkpt lat="42.56345415" lon="1.89032669"><ele>2137.7</ele><time>2019-03-23T13:11:20Z</time></trkpt>
	<trkpt lat="42.56346480" lon="1.89026477"><ele>2137.3</ele><time>2019-03-23T13:11:25Z</time></trkpt>
	<trkpt lat="42.56342138" lon="1.89024202"><ele>2137.4</ele><time>2019-03-23T13:11:43Z</time></trkpt>
	<trkpt lat="42.56337215" lon="1.89025813"><ele>2136.8</ele><time>2019-03-23T13:11:52Z</time></trkpt>
	<trkpt lat="42.56332684" lon="1.89026424"><ele>2136.6</ele><time>2019-03-23T13:11:57Z</time></trkpt>
	<trkpt lat="42.56328350" lon="1.89024430"><ele>2136.6</ele><time>2019-03-23T13:12:02Z</time></trkpt>
	<trkpt lat="42.56323735" lon="1.89021502"><ele>2136.9</ele><time>2019-03-23T13:12:07Z</time></trkpt>
	<trkpt lat="42.56319557" lon="1.89016697"><ele>2136.9</ele><time>2019-03-23T13:12:12Z</time></trkpt>
	<trkpt lat="42.56316973" lon="1.89011445"><ele>2136.8</ele><time>2019-03-23T13:12:17Z</time></trkpt>
	<trkpt lat="42.56312872" lon="1.89007077"><ele>2137.2</ele><time>2019-03-23T13:12:22Z</time></trkpt>
	<trkpt lat="42.56309431" lon="1.89002594"><ele>2137.3</ele><time>2019-03-23T13:12:26Z</time></trkpt>
	<trkpt lat="42.56306262" lon="1.88997971"><ele>2137.6</ele><time>2019-03-23T13:12:30Z</time></trkpt>
	<trkpt lat="42.56303898" lon="1.88992423"><ele>2138.0</ele><time>2019-03-23T13:12:36Z</time></trkpt>
	<trkpt lat="42.56300597" lon="1.88986728"><ele>2138.1</ele><time>2019-03-23T13:12:42Z</time></trkpt>
	<trkpt lat="42.56299168" lon="1.88980424"><ele>2138.4</ele><time>2019-03-23T13:12:47Z</time></trkpt>
	<trkpt lat="42.56295302" lon="1.88975805"><ele>2138.8</ele><time>2019-03-23T13:12:53Z</time></trkpt>
	<trkpt lat="42.56290120" lon="1.88973243"><ele>2139.1</ele><time>2019-03-23T13:12:58Z</time></trkpt>
	<trkpt lat="42.56285642" lon="1.88970234"><ele>2139.1</ele><time>2019-03-23T13:13:02Z</time></trkpt>
	<trkpt lat="42.56281783" lon="1.88966196"><ele>2139.0</ele><time>2019-03-23T13:13:06Z</time></trkpt>
	<trkpt lat="42.56277230" lon="1.88961591"><ele>2139.0</ele><time>2019-03-23T13:13:11Z</time></trkpt>
	<trkpt lat="42.56273707" lon="1.88956938"><ele>2138.9</ele><time>2019-03-23T13:13:16Z</time></trkpt>
	<trkpt lat="42.56270199" lon="1.88952523"><ele>2138.9</ele><time>2019-03-23T13:13:22Z</time></trkpt>
	<trkpt lat="42.56265821" lon="1.88949654"><ele>2138.8</ele><time>2019-03-23T13:13:29Z</time></trkpt>
	<trkpt lat="42.56261909" lon="1.88945967"><ele>2138.9</ele><time>2019-03-23T13:13:35Z</time></trkpt>
	<trkpt lat="42.56257642" lon="1.88942478"><ele>2138.8</ele><time>2019-03-23T13:13:40Z</time></trkpt>
	<trkpt lat="42.56253376" lon="1.88940034"><ele>2138.8</ele><time>2019-03-23T13:13:44Z</time></trkpt>
	<trkpt lat="42.56249597" lon="1.88936395"><ele>2138.6</ele><time>2019-03-23T13:13:48Z</time></trkpt>
	<trkpt lat="42.56247296" lon="1.88931109"><ele>2138.6</ele><time>2019-03-23T13:13:52Z</time></trkpt>
	<trkpt lat="42.56244209" lon="1.88925029"><ele>2138.5</ele><time>2019-03-23T13:13:57Z</time></trkpt>
	<trkpt lat="42.56241128" lon="1.88919343"><ele>2137.8</ele><time>2019-03-23T13:14:03Z</time></trkpt>
	<trkpt lat="42.56237002" lon="1.88916523"><ele>2136.7</ele><time>2019-03-23T13:14:07Z</time></trkpt>
	<trkpt lat="42.56233191" lon="1.88911910"><ele>2136.2</ele><time>2019-03-23T13:14:12Z</time></trkpt>
	<trkpt lat="42.56229318" lon="1.88907490"><ele>2136.2</ele><time>2019-03-23T13:14:18Z</time></trkpt>
	<trkpt lat="42.56225168" lon="1.88903323"><ele>2136.5</ele><time>2019-03-23T13:14:24Z</time></trkpt>
	<trkpt lat="42.56221312" lon="1.88899327"><ele>2137.3</ele><time>2019-03-23T13:14:33Z</time></trkpt>
	<trkpt lat="42.56216667" lon="1.88899040"><ele>2137.2</ele><time>2019-03-23T13:14:38Z</time></trkpt>
	<trkpt lat="42.56211374" lon="1.88897037"><ele>2137.0</ele><time>2019-03-23T13:14:43Z</time></trkpt>
	<trkpt lat="42.56206330" lon="1.88895085"><ele>2136.9</ele><time>2019-03-23T13:14:48Z</time></trkpt>
	<trkpt lat="42.56201206" lon="1.88893046"><ele>2136.9</ele><time>2019-03-23T13:14:53Z</time></trkpt>
	<trkpt lat="42.56197385" lon="1.88889729"><ele>2136.9</ele><time>2019-03-23T13:14:57Z</time></trkpt>
	<trkpt lat="42.56194053" lon="1.88884755"><ele>2136.5</ele><time>2019-03-23T13:15:01Z</time></trkpt>
	<trkpt lat="42.56191567" lon="1.88879122"><ele>2136.5</ele><time>2019-03-23T13:15:05Z</time></trkpt>
	<trkpt lat="42.56189395" lon="1.88873008"><ele>2136.5</ele><time>2019-03-23T13:15:09Z</time></trkpt>
	<trkpt lat="42.56187536" lon="1.88866886"><ele>2136.6</ele><time>2019-03-23T13:15:13Z</time></trkpt>
	<trkpt lat="42.56185890" lon="1.88860804"><ele>2136.7</ele><time>2019-03-23T13:15:17Z</time></trkpt>
	<trkpt lat="42.56182751" lon="1.88854495"><ele>2136.7</ele><time>2019-03-23T13:15:22Z</time></trkpt>
	<trkpt lat="42.56181770" lon="1.88848507"><ele>2137.0</ele><time>2019-03-23T13:15:46Z</time></trkpt>
	<trkpt lat="42.56182329" lon="1.88842317"><ele>2140.0</ele><time>2019-03-23T13:19:24Z</time></trkpt>
	<trkpt lat="42.56181175" lon="1.88835750"><ele>2139.9</ele><time>2019-03-23T13:19:28Z</time></trkpt>
	<trkpt lat="42.56180793" lon="1.88829213"><ele>2139.9</ele><time>2019-03-23T13:19:32Z</time></trkpt>
	<trkpt lat="42.56180817" lon="1.88822769"><ele>2139.8</ele><time>2019-03-23T13:19:36Z</time></trkpt>
	<trkpt lat="42.56179853" lon="1.88816574"><ele>2139.4</ele><time>2019-03-23T13:19:40Z</time></trkpt>
	<trkpt lat="42.56178641" lon="1.88810334"><ele>2139.3</ele><time>2019-03-23T13:19:44Z</time></trkpt>
	<trkpt lat="42.56176665" lon="1.88804680"><ele>2139.3</ele><time>2019-03-23T13:19:48Z</time></trkpt>
	<trkpt lat="42.56174149" lon="1.88799593"><ele>2139.2</ele><time>2019-03-23T13:19:52Z</time></trkpt>
	<trkpt lat="42.56171102" lon="1.88794997"><ele>2139.1</ele><time>2019-03-23T13:19:56Z</time></trkpt>
	<trkpt lat="42.56168417" lon="1.88789575"><ele>2138.9</ele><time>2019-03-23T13:20:00Z</time></trkpt>
	<trkpt lat="42.56166860" lon="1.88783540"><ele>2138.9</ele><time>2019-03-23T13:20:04Z</time></trkpt>
	<trkpt lat="42.56165695" lon="1.88777500"><ele>2138.7</ele><time>2019-03-23T13:20:08Z</time></trkpt>
	<trkpt lat="42.56163168" lon="1.88771756"><ele>2138.1</ele><time>2019-03-23T13:20:12Z</time></trkpt>
	<trkpt lat="42.56161535" lon="1.88765986"><ele>2137.6</ele><time>2019-03-23T13:20:16Z</time></trkpt>
	<trkpt lat="42.56160748" lon="1.88759707"><ele>2137.3</ele><time>2019-03-23T13:20:20Z</time></trkpt>
	<trkpt lat="42.56160074" lon="1.88753491"><ele>2137.2</ele><time>2019-03-23T13:20:24Z</time></trkpt>
	<trkpt lat="42.56159950" lon="1.88746995"><ele>2137.1</ele><time>2019-03-23T13:20:28Z</time></trkpt>
	<trkpt lat="42.56158596" lon="1.88741152"><ele>2137.1</ele><time>2019-03-23T13:20:32Z</time></trkpt>
	<trkpt lat="42.56157120" lon="1.88735137"><ele>2137.1</ele><time>2019-03-23T13:20:36Z</time></trkpt>
	<trkpt lat="42.56156947" lon="1.88728502"><ele>2137.1</ele><time>2019-03-23T13:20:40Z</time></trkpt>
	<trkpt lat="42.56156744" lon="1.88720878"><ele>2137.1</ele><time>2019-03-23T13:20:44Z</time></trkpt>
	<trkpt lat="42.56155970" lon="1.88713435"><ele>2137.2</ele><time>2019-03-23T13:20:49Z</time></trkpt>
	<trkpt lat="42.56155630" lon="1.88707263"><ele>2137.1</ele><time>2019-03-23T13:20:53Z</time></trkpt>
	<trkpt lat="42.56156207" lon="1.88700980"><ele>2137.0</ele><time>2019-03-23T13:20:57Z</time></trkpt>
	<trkpt lat="42.56156411" lon="1.88694059"><ele>2137.1</ele><time>2019-03-23T13:21:02Z</time></trkpt>
	<trkpt lat="42.56155809" lon="1.88687351"><ele>2137.1</ele><time>2019-03-23T13:21:07Z</time></trkpt>
	<trkpt lat="42.56155500" lon="1.88680291"><ele>2136.9</ele><time>2019-03-23T13:21:12Z</time></trkpt>
	<trkpt lat="42.56155704" lon="1.88673478"><ele>2136.7</ele><time>2019-03-23T13:21:18Z</time></trkpt>
	<trkpt lat="42.56153932" lon="1.88667760"><ele>2135.2</ele><time>2019-03-23T13:21:25Z</time></trkpt>
	<trkpt lat="42.56152627" lon="1.88661491"><ele>2134.3</ele><time>2019-03-23T13:21:30Z</time></trkpt>
	<trkpt lat="42.56149575" lon="1.88657006"><ele>2133.4</ele><time>2019-03-23T13:21:34Z</time></trkpt>
	<trkpt lat="42.56146080" lon="1.88651894"><ele>2132.3</ele><time>2019-03-23T13:21:39Z</time></trkpt>
	<trkpt lat="42.56143027" lon="1.88647404"><ele>2131.3</ele><time>2019-03-23T13:21:44Z</time></trkpt>
	<trkpt lat="42.56138896" lon="1.88643235"><ele>2129.9</ele><time>2019-03-23T13:21:49Z</time></trkpt>
	<trkpt lat="42.56134954" lon="1.88638653"><ele>2128.0</ele><time>2019-03-23T13:21:55Z</time></trkpt>
	<trkpt lat="42.56133642" lon="1.88632184"><ele>2126.6</ele><time>2019-03-23T13:22:01Z</time></trkpt>
	<trkpt lat="42.56131865" lon="1.88626181"><ele>2125.4</ele><time>2019-03-23T13:22:07Z</time></trkpt>
	<trkpt lat="42.56130616" lon="1.88619098"><ele>2124.6</ele><time>2019-03-23T13:22:12Z</time></trkpt>
	<trkpt lat="42.56129099" lon="1.88613057"><ele>2123.7</ele><time>2019-03-23T13:22:16Z</time></trkpt>
	<trkpt lat="42.56127975" lon="1.88606377"><ele>2123.1</ele><time>2019-03-23T13:22:20Z</time></trkpt>
	<trkpt lat="42.56126319" lon="1.88600184"><ele>2122.3</ele><time>2019-03-23T13:22:24Z</time></trkpt>
	<trkpt lat="42.56123466" lon="1.88593940"><ele>2121.4</ele><time>2019-03-23T13:22:28Z</time></trkpt>
	<trkpt lat="42.56121314" lon="1.88588061"><ele>2120.1</ele><time>2019-03-23T13:22:32Z</time></trkpt>
	<trkpt lat="42.56119808" lon="1.88582095"><ele>2118.1</ele><time>2019-03-23T13:22:36Z</time></trkpt>
	<trkpt lat="42.56116995" lon="1.88576270"><ele>2116.2</ele><time>2019-03-23T13:22:41Z</time></trkpt>
	<trkpt lat="42.56115188" lon="1.88569747"><ele>2114.9</ele><time>2019-03-23T13:22:45Z</time></trkpt>
	<trkpt lat="42.56114168" lon="1.88563532"><ele>2113.8</ele><time>2019-03-23T13:22:49Z</time></trkpt>
	<trkpt lat="42.56111482" lon="1.88557720"><ele>2112.7</ele><time>2019-03-23T13:22:53Z</time></trkpt>
	<trkpt lat="42.56110976" lon="1.88549958"><ele>2111.6</ele><time>2019-03-23T13:22:57Z</time></trkpt>
	<trkpt lat="42.56109706" lon="1.88543580"><ele>2110.6</ele><time>2019-03-23T13:23:01Z</time></trkpt>
	<trkpt lat="42.56107630" lon="1.88537798"><ele>2109.4</ele><time>2019-03-23T13:23:05Z</time></trkpt>
	<trkpt lat="42.56104882" lon="1.88531425"><ele>2108.3</ele><time>2019-03-23T13:23:09Z</time></trkpt>
	<trkpt lat="42.56102062" lon="1.88524354"><ele>2107.0</ele><time>2019-03-23T13:23:13Z</time></trkpt>
	<trkpt lat="42.56099871" lon="1.88517026"><ele>2105.9</ele><time>2019-03-23T13:23:17Z</time></trkpt>
	<trkpt lat="42.56097621" lon="1.88510378"><ele>2104.9</ele><time>2019-03-23T13:23:21Z</time></trkpt>
	<trkpt lat="42.56096633" lon="1.88502982"><ele>2103.9</ele><time>2019-03-23T13:23:25Z</time></trkpt>
	<trkpt lat="42.56096801" lon="1.88495756"><ele>2102.8</ele><time>2019-03-23T13:23:29Z</time></trkpt>
	<trkpt lat="42.56097354" lon="1.88488789"><ele>2101.5</ele><time>2019-03-23T13:23:33Z</time></trkpt>
	<trkpt lat="42.56096413" lon="1.88481744"><ele>2100.4</ele><time>2019-03-23T13:23:38Z</time></trkpt>
	<trkpt lat="42.56096205" lon="1.88475162"><ele>2098.7</ele><time>2019-03-23T13:23:42Z</time></trkpt>
	<trkpt lat="42.56097546" lon="1.88468839"><ele>2097.7</ele><time>2019-03-23T13:23:46Z</time></trkpt>
	<trkpt lat="42.56098639" lon="1.88462120"><ele>2096.6</ele><time>2019-03-23T13:23:50Z</time></trkpt>
	<trkpt lat="42.56099424" lon="1.88455682"><ele>2095.1</ele><time>2019-03-23T13:23:55Z</time></trkpt>
	<trkpt lat="42.56101399" lon="1.88449010"><ele>2092.9</ele><time>2019-03-23T13:24:01Z</time></trkpt>
	<trkpt lat="42.56099300" lon="1.88442273"><ele>2091.3</ele><time>2019-03-23T13:24:06Z</time></trkpt>
	<trkpt lat="42.56099871" lon="1.88435873"><ele>2090.4</ele><time>2019-03-23T13:24:10Z</time></trkpt>
	<trkpt lat="42.56099407" lon="1.88428296"><ele>2089.5</ele><time>2019-03-23T13:24:14Z</time></trkpt>
	<trkpt lat="42.56099277" lon="1.88420944"><ele>2088.6</ele><time>2019-03-23T13:24:18Z</time></trkpt>
	<trkpt lat="42.56098536" lon="1.88413587"><ele>2087.7</ele><time>2019-03-23T13:24:22Z</time></trkpt>
	<trkpt lat="42.56097203" lon="1.88406551"><ele>2086.7</ele><time>2019-03-23T13:24:26Z</time></trkpt>
	<trkpt lat="42.56095748" lon="1.88399016"><ele>2085.8</ele><time>2019-03-23T13:24:30Z</time></trkpt>
	<trkpt lat="42.56093973" lon="1.88391826"><ele>2084.6</ele><time>2019-03-23T13:24:34Z</time></trkpt>
	<trkpt lat="42.56092315" lon="1.88385439"><ele>2083.4</ele><time>2019-03-23T13:24:38Z</time></trkpt>
	<trkpt lat="42.56089664" lon="1.88379683"><ele>2082.2</ele><time>2019-03-23T13:24:42Z</time></trkpt>
	<trkpt lat="42.56087554" lon="1.88372365"><ele>2081.4</ele><time>2019-03-23T13:24:46Z</time></trkpt>
	<trkpt lat="42.56086781" lon="1.88366364"><ele>2081.0</ele><time>2019-03-23T13:24:50Z</time></trkpt>
	<trkpt lat="42.56085163" lon="1.88359766"><ele>2080.6</ele><time>2019-03-23T13:24:54Z</time></trkpt>
	<trkpt lat="42.56082603" lon="1.88354602"><ele>2079.9</ele><time>2019-03-23T13:24:57Z</time></trkpt>
	<trkpt lat="42.56079837" lon="1.88347929"><ele>2079.2</ele><time>2019-03-23T13:25:01Z</time></trkpt>
	<trkpt lat="42.56078468" lon="1.88341081"><ele>2078.5</ele><time>2019-03-23T13:25:05Z</time></trkpt>
	<trkpt lat="42.56078819" lon="1.88333631"><ele>2077.7</ele><time>2019-03-23T13:25:09Z</time></trkpt>
	<trkpt lat="42.56078643" lon="1.88326942"><ele>2076.9</ele><time>2019-03-23T13:25:13Z</time></trkpt>
	<trkpt lat="42.56078157" lon="1.88320304"><ele>2075.9</ele><time>2019-03-23T13:25:17Z</time></trkpt>
	<trkpt lat="42.56076120" lon="1.88313665"><ele>2075.2</ele><time>2019-03-23T13:25:21Z</time></trkpt>
	<trkpt lat="42.56075008" lon="1.88307445"><ele>2074.4</ele><time>2019-03-23T13:25:24Z</time></trkpt>
	<trkpt lat="42.56074466" lon="1.88301216"><ele>2073.6</ele><time>2019-03-23T13:25:27Z</time></trkpt>
	<trkpt lat="42.56074063" lon="1.88294185"><ele>2072.6</ele><time>2019-03-23T13:25:31Z</time></trkpt>
	<trkpt lat="42.56072703" lon="1.88287023"><ele>2070.9</ele><time>2019-03-23T13:25:35Z</time></trkpt>
	<trkpt lat="42.56071150" lon="1.88279945"><ele>2069.5</ele><time>2019-03-23T13:25:39Z</time></trkpt>
	<trkpt lat="42.56069098" lon="1.88274342"><ele>2068.2</ele><time>2019-03-23T13:25:43Z</time></trkpt>
	<trkpt lat="42.56067187" lon="1.88267511"><ele>2067.4</ele><time>2019-03-23T13:25:48Z</time></trkpt>
	<trkpt lat="42.56066915" lon="1.88261304"><ele>2067.1</ele><time>2019-03-23T13:25:52Z</time></trkpt>
	<trkpt lat="42.56066465" lon="1.88254534"><ele>2066.4</ele><time>2019-03-23T13:25:56Z</time></trkpt>
	<trkpt lat="42.56065656" lon="1.88247416"><ele>2065.7</ele><time>2019-03-23T13:26:00Z</time></trkpt>
	<trkpt lat="42.56064060" lon="1.88240640"><ele>2064.6</ele><time>2019-03-23T13:26:05Z</time></trkpt>
	<trkpt lat="42.56062277" lon="1.88234765"><ele>2064.1</ele><time>2019-03-23T13:26:09Z</time></trkpt>
	<trkpt lat="42.56060374" lon="1.88229088"><ele>2063.4</ele><time>2019-03-23T13:26:13Z</time></trkpt>
	<trkpt lat="42.56056141" lon="1.88223886"><ele>2063.0</ele><time>2019-03-23T13:26:17Z</time></trkpt>
	<trkpt lat="42.56052671" lon="1.88217419"><ele>2062.7</ele><time>2019-03-23T13:26:21Z</time></trkpt>
	<trkpt lat="42.56050950" lon="1.88210737"><ele>2062.2</ele><time>2019-03-23T13:26:25Z</time></trkpt>
	<trkpt lat="42.56048805" lon="1.88204216"><ele>2061.6</ele><time>2019-03-23T13:26:29Z</time></trkpt>
	<trkpt lat="42.56047558" lon="1.88197499"><ele>2061.3</ele><time>2019-03-23T13:26:33Z</time></trkpt>
	<trkpt lat="42.56045848" lon="1.88190377"><ele>2060.1</ele><time>2019-03-23T13:26:37Z</time></trkpt>
	<trkpt lat="42.56044458" lon="1.88183532"><ele>2059.1</ele><time>2019-03-23T13:26:41Z</time></trkpt>
	<trkpt lat="42.56043476" lon="1.88176528"><ele>2058.0</ele><time>2019-03-23T13:26:45Z</time></trkpt>
	<trkpt lat="42.56044071" lon="1.88169002"><ele>2057.0</ele><time>2019-03-23T13:26:49Z</time></trkpt>
	<trkpt lat="42.56044360" lon="1.88162224"><ele>2056.1</ele><time>2019-03-23T13:26:53Z</time></trkpt>
	<trkpt lat="42.56043290" lon="1.88155436"><ele>2054.9</ele><time>2019-03-23T13:26:57Z</time></trkpt>
	<trkpt lat="42.56041792" lon="1.88148877"><ele>2054.4</ele><time>2019-03-23T13:27:01Z</time></trkpt>
	<trkpt lat="42.56039230" lon="1.88143122"><ele>2053.7</ele><time>2019-03-23T13:27:05Z</time></trkpt>
	<trkpt lat="42.56037142" lon="1.88137493"><ele>2052.8</ele><time>2019-03-23T13:27:09Z</time></trkpt>
	<trkpt lat="42.56034656" lon="1.88131427"><ele>2052.2</ele><time>2019-03-23T13:27:13Z</time></trkpt>
	<trkpt lat="42.56032542" lon="1.88125606"><ele>2051.5</ele><time>2019-03-23T13:27:17Z</time></trkpt>
	<trkpt lat="42.56030538" lon="1.88119663"><ele>2051.0</ele><time>2019-03-23T13:27:21Z</time></trkpt>
	<trkpt lat="42.56029954" lon="1.88113345"><ele>2050.5</ele><time>2019-03-23T13:27:25Z</time></trkpt>
	<trkpt lat="42.56029252" lon="1.88107076"><ele>2049.7</ele><time>2019-03-23T13:27:29Z</time></trkpt>
	<trkpt lat="42.56027776" lon="1.88099605"><ele>2048.6</ele><time>2019-03-23T13:27:34Z</time></trkpt>
	<trkpt lat="42.56028600" lon="1.88092189"><ele>2047.4</ele><time>2019-03-23T13:27:38Z</time></trkpt>
	<trkpt lat="42.56030583" lon="1.88086051"><ele>2046.5</ele><time>2019-03-23T13:27:42Z</time></trkpt>
	<trkpt lat="42.56032023" lon="1.88078481"><ele>2045.4</ele><time>2019-03-23T13:27:47Z</time></trkpt>
	<trkpt lat="42.56032709" lon="1.88071610"><ele>2044.9</ele><time>2019-03-23T13:27:51Z</time></trkpt>
	<trkpt lat="42.56033487" lon="1.88064674"><ele>2044.4</ele><time>2019-03-23T13:27:55Z</time></trkpt>
	<trkpt lat="42.56033496" lon="1.88057246"><ele>2043.3</ele><time>2019-03-23T13:28:01Z</time></trkpt>
	<trkpt lat="42.56033366" lon="1.88050727"><ele>2042.6</ele><time>2019-03-23T13:28:05Z</time></trkpt>
	<trkpt lat="42.56032599" lon="1.88043890"><ele>2041.8</ele><time>2019-03-23T13:28:09Z</time></trkpt>
	<trkpt lat="42.56031167" lon="1.88037038"><ele>2040.9</ele><time>2019-03-23T13:28:13Z</time></trkpt>
	<trkpt lat="42.56028916" lon="1.88030682"><ele>2040.1</ele><time>2019-03-23T13:28:17Z</time></trkpt>
	<trkpt lat="42.56027601" lon="1.88024426"><ele>2039.4</ele><time>2019-03-23T13:28:21Z</time></trkpt>
	<trkpt lat="42.56025835" lon="1.88017480"><ele>2038.4</ele><time>2019-03-23T13:28:26Z</time></trkpt>
	<trkpt lat="42.56023468" lon="1.88010899"><ele>2037.3</ele><time>2019-03-23T13:28:31Z</time></trkpt>
	<trkpt lat="42.56020679" lon="1.88005073"><ele>2036.4</ele><time>2019-03-23T13:28:36Z</time></trkpt>
	<trkpt lat="42.56017375" lon="1.87998201"><ele>2035.8</ele><time>2019-03-23T13:28:40Z</time></trkpt>
	<trkpt lat="42.56014346" lon="1.87991562"><ele>2035.0</ele><time>2019-03-23T13:28:44Z</time></trkpt>
	<trkpt lat="42.56011644" lon="1.87984666"><ele>2034.1</ele><time>2019-03-23T13:28:48Z</time></trkpt>
	<trkpt lat="42.56008937" lon="1.87977458"><ele>2033.0</ele><time>2019-03-23T13:28:52Z</time></trkpt>
	<trkpt lat="42.56007023" lon="1.87970378"><ele>2031.8</ele><time>2019-03-23T13:28:56Z</time></trkpt>
	<trkpt lat="42.56005172" lon="1.87963586"><ele>2030.7</ele><time>2019-03-23T13:29:00Z</time></trkpt>
	<trkpt lat="42.56002794" lon="1.87957217"><ele>2029.6</ele><time>2019-03-23T13:29:04Z</time></trkpt>
	<trkpt lat="42.56000896" lon="1.87950012"><ele>2028.4</ele><time>2019-03-23T13:29:08Z</time></trkpt>
	<trkpt lat="42.55998621" lon="1.87943151"><ele>2027.6</ele><time>2019-03-23T13:29:12Z</time></trkpt>
	<trkpt lat="42.55996187" lon="1.87936862"><ele>2026.6</ele><time>2019-03-23T13:29:16Z</time></trkpt>
	<trkpt lat="42.55993918" lon="1.87930937"><ele>2026.0</ele><time>2019-03-23T13:29:20Z</time></trkpt>
	<trkpt lat="42.55991791" lon="1.87924992"><ele>2025.0</ele><time>2019-03-23T13:29:24Z</time></trkpt>
	<trkpt lat="42.55988009" lon="1.87920271"><ele>2024.3</ele><time>2019-03-23T13:29:28Z</time></trkpt>
	<trkpt lat="42.55984836" lon="1.87914025"><ele>2023.9</ele><time>2019-03-23T13:29:33Z</time></trkpt>
	<trkpt lat="42.55982521" lon="1.87907830"><ele>2023.3</ele><time>2019-03-23T13:29:37Z</time></trkpt>
	<trkpt lat="42.55980214" lon="1.87902363"><ele>2022.6</ele><time>2019-03-23T13:29:41Z</time></trkpt>
	<trkpt lat="42.55978110" lon="1.87896111"><ele>2021.7</ele><time>2019-03-23T13:29:45Z</time></trkpt>
	<trkpt lat="42.55975504" lon="1.87889760"><ele>2020.9</ele><time>2019-03-23T13:29:49Z</time></trkpt>
	<trkpt lat="42.55971817" lon="1.87885776"><ele>2020.3</ele><time>2019-03-23T13:29:53Z</time></trkpt>
	<trkpt lat="42.55968509" lon="1.87881132"><ele>2019.5</ele><time>2019-03-23T13:29:57Z</time></trkpt>
	<trkpt lat="42.55965836" lon="1.87875685"><ele>2018.8</ele><time>2019-03-23T13:30:01Z</time></trkpt>
	<trkpt lat="42.55962780" lon="1.87870180"><ele>2018.2</ele><time>2019-03-23T13:30:05Z</time></trkpt>
	<trkpt lat="42.55959191" lon="1.87864959"><ele>2017.5</ele><time>2019-03-23T13:30:09Z</time></trkpt>
	<trkpt lat="42.55956478" lon="1.87859187"><ele>2016.7</ele><time>2019-03-23T13:30:13Z</time></trkpt>
	<trkpt lat="42.55954665" lon="1.87853497"><ele>2016.3</ele><time>2019-03-23T13:30:17Z</time></trkpt>
	<trkpt lat="42.55952023" lon="1.87848206"><ele>2015.9</ele><time>2019-03-23T13:30:21Z</time></trkpt>
	<trkpt lat="42.55948384" lon="1.87843650"><ele>2015.3</ele><time>2019-03-23T13:30:25Z</time></trkpt>
	<trkpt lat="42.55945883" lon="1.87838037"><ele>2014.7</ele><time>2019-03-23T13:30:29Z</time></trkpt>
	<trkpt lat="42.55943373" lon="1.87832355"><ele>2014.1</ele><time>2019-03-23T13:30:33Z</time></trkpt>
	<trkpt lat="42.55940156" lon="1.87826353"><ele>2013.3</ele><time>2019-03-23T13:30:37Z</time></trkpt>
	<trkpt lat="42.55937513" lon="1.87821234"><ele>2012.7</ele><time>2019-03-23T13:30:41Z</time></trkpt>
	<trkpt lat="42.55935098" lon="1.87814315"><ele>2012.0</ele><time>2019-03-23T13:30:46Z</time></trkpt>
	<trkpt lat="42.55935106" lon="1.87807032"><ele>2011.3</ele><time>2019-03-23T13:30:51Z</time></trkpt>
	<trkpt lat="42.55933260" lon="1.87801033"><ele>2010.6</ele><time>2019-03-23T13:30:56Z</time></trkpt>
	<trkpt lat="42.55929299" lon="1.87795988"><ele>2010.0</ele><time>2019-03-23T13:31:01Z</time></trkpt>
	<trkpt lat="42.55925728" lon="1.87791592"><ele>2009.5</ele><time>2019-03-23T13:31:05Z</time></trkpt>
	<trkpt lat="42.55922028" lon="1.87786274"><ele>2009.0</ele><time>2019-03-23T13:31:10Z</time></trkpt>
	<trkpt lat="42.55917320" lon="1.87783558"><ele>2008.2</ele><time>2019-03-23T13:31:14Z</time></trkpt>
	<trkpt lat="42.55912705" lon="1.87779071"><ele>2007.9</ele><time>2019-03-23T13:31:18Z</time></trkpt>
	<trkpt lat="42.55909188" lon="1.87773620"><ele>2007.3</ele><time>2019-03-23T13:31:22Z</time></trkpt>
	<trkpt lat="42.55905204" lon="1.87769016"><ele>2006.8</ele><time>2019-03-23T13:31:26Z</time></trkpt>
	<trkpt lat="42.55901807" lon="1.87764704"><ele>2006.2</ele><time>2019-03-23T13:31:30Z</time></trkpt>
	<trkpt lat="42.55898479" lon="1.87759251"><ele>2004.9</ele><time>2019-03-23T13:31:35Z</time></trkpt>
	<trkpt lat="42.55894813" lon="1.87753386"><ele>2004.0</ele><time>2019-03-23T13:31:40Z</time></trkpt>
	<trkpt lat="42.55890933" lon="1.87747767"><ele>2003.0</ele><time>2019-03-23T13:31:44Z</time></trkpt>
	<trkpt lat="42.55886218" lon="1.87744832"><ele>2001.6</ele><time>2019-03-23T13:31:49Z</time></trkpt>
	<trkpt lat="42.55882765" lon="1.87739713"><ele>2000.7</ele><time>2019-03-23T13:31:53Z</time></trkpt>
	<trkpt lat="42.55879681" lon="1.87733727"><ele>1999.8</ele><time>2019-03-23T13:31:57Z</time></trkpt>
	<trkpt lat="42.55876789" lon="1.87727166"><ele>1998.7</ele><time>2019-03-23T13:32:01Z</time></trkpt>
	<trkpt lat="42.55873318" lon="1.87722159"><ele>1997.9</ele><time>2019-03-23T13:32:05Z</time></trkpt>
	<trkpt lat="42.55869605" lon="1.87717094"><ele>1997.4</ele><time>2019-03-23T13:32:09Z</time></trkpt>
	<trkpt lat="42.55865544" lon="1.87712410"><ele>1995.9</ele><time>2019-03-23T13:32:14Z</time></trkpt>
	<trkpt lat="42.55860971" lon="1.87710642"><ele>1994.8</ele><time>2019-03-23T13:32:18Z</time></trkpt>
	<trkpt lat="42.55856441" lon="1.87707595"><ele>1993.3</ele><time>2019-03-23T13:32:24Z</time></trkpt>
	<trkpt lat="42.55851745" lon="1.87704159"><ele>1992.1</ele><time>2019-03-23T13:32:29Z</time></trkpt>
	<trkpt lat="42.55847705" lon="1.87700444"><ele>1991.1</ele><time>2019-03-23T13:32:34Z</time></trkpt>
	<trkpt lat="42.55842594" lon="1.87698232"><ele>1988.8</ele><time>2019-03-23T13:32:39Z</time></trkpt>
	<trkpt lat="42.55837733" lon="1.87696241"><ele>1986.9</ele><time>2019-03-23T13:32:44Z</time></trkpt>
	<trkpt lat="42.55833299" lon="1.87694523"><ele>1987.4</ele><time>2019-03-23T13:32:48Z</time></trkpt>
	<trkpt lat="42.55828654" lon="1.87692893"><ele>1987.1</ele><time>2019-03-23T13:32:52Z</time></trkpt>
	<trkpt lat="42.55823745" lon="1.87691881"><ele>1986.5</ele><time>2019-03-23T13:32:56Z</time></trkpt>
	<trkpt lat="42.55818911" lon="1.87689796"><ele>1985.7</ele><time>2019-03-23T13:33:00Z</time></trkpt>
	<trkpt lat="42.55814480" lon="1.87687404"><ele>1984.7</ele><time>2019-03-23T13:33:04Z</time></trkpt>
	<trkpt lat="42.55809166" lon="1.87686582"><ele>1983.8</ele><time>2019-03-23T13:33:09Z</time></trkpt>
	<trkpt lat="42.55804206" lon="1.87685285"><ele>1982.8</ele><time>2019-03-23T13:33:13Z</time></trkpt>
	<trkpt lat="42.55799396" lon="1.87684302"><ele>1981.9</ele><time>2019-03-23T13:33:17Z</time></trkpt>
	<trkpt lat="42.55794341" lon="1.87682629"><ele>1980.7</ele><time>2019-03-23T13:33:21Z</time></trkpt>
	<trkpt lat="42.55789258" lon="1.87679955"><ele>1979.9</ele><time>2019-03-23T13:33:25Z</time></trkpt>
	<trkpt lat="42.55784307" lon="1.87677589"><ele>1979.0</ele><time>2019-03-23T13:33:29Z</time></trkpt>
	<trkpt lat="42.55779388" lon="1.87674340"><ele>1978.4</ele><time>2019-03-23T13:33:33Z</time></trkpt>
	<trkpt lat="42.55775347" lon="1.87670630"><ele>1977.7</ele><time>2019-03-23T13:33:37Z</time></trkpt>
	<trkpt lat="42.55771050" lon="1.87666977"><ele>1976.6</ele><time>2019-03-23T13:33:41Z</time></trkpt>
	<trkpt lat="42.55767525" lon="1.87662578"><ele>1975.9</ele><time>2019-03-23T13:33:45Z</time></trkpt>
	<trkpt lat="42.55764472" lon="1.87656727"><ele>1975.3</ele><time>2019-03-23T13:33:49Z</time></trkpt>
	<trkpt lat="42.55760937" lon="1.87650669"><ele>1975.0</ele><time>2019-03-23T13:33:53Z</time></trkpt>
	<trkpt lat="42.55760498" lon="1.87644559"><ele>1973.3</ele><time>2019-03-23T13:33:57Z</time></trkpt>
	<trkpt lat="42.55757948" lon="1.87638682"><ele>1971.3</ele><time>2019-03-23T13:34:03Z</time></trkpt>
	<trkpt lat="42.55756469" lon="1.87632500"><ele>1970.3</ele><time>2019-03-23T13:34:08Z</time></trkpt>
	<trkpt lat="42.55754923" lon="1.87625617"><ele>1969.6</ele><time>2019-03-23T13:34:13Z</time></trkpt>
	<trkpt lat="42.55752105" lon="1.87620191"><ele>1968.0</ele><time>2019-03-23T13:34:17Z</time></trkpt>
	<trkpt lat="42.55750229" lon="1.87613865"><ele>1967.0</ele><time>2019-03-23T13:34:21Z</time></trkpt>
	<trkpt lat="42.55748736" lon="1.87606910"><ele>1966.2</ele><time>2019-03-23T13:34:25Z</time></trkpt>
	<trkpt lat="42.55746620" lon="1.87600509"><ele>1965.4</ele><time>2019-03-23T13:34:29Z</time></trkpt>
	<trkpt lat="42.55744401" lon="1.87594078"><ele>1964.3</ele><time>2019-03-23T13:34:33Z</time></trkpt>
	<trkpt lat="42.55742658" lon="1.87587836"><ele>1963.4</ele><time>2019-03-23T13:34:37Z</time></trkpt>
	<trkpt lat="42.55742826" lon="1.87581061"><ele>1962.5</ele><time>2019-03-23T13:34:41Z</time></trkpt>
	<trkpt lat="42.55741803" lon="1.87574755"><ele>1961.6</ele><time>2019-03-23T13:34:45Z</time></trkpt>
	<trkpt lat="42.55741042" lon="1.87567486"><ele>1961.4</ele><time>2019-03-23T13:34:50Z</time></trkpt>
	<trkpt lat="42.55742180" lon="1.87560467"><ele>1961.1</ele><time>2019-03-23T13:34:56Z</time></trkpt>
	<trkpt lat="42.55741283" lon="1.87553197"><ele>1960.7</ele><time>2019-03-23T13:35:02Z</time></trkpt>
	<trkpt lat="42.55739834" lon="1.87545925"><ele>1959.8</ele><time>2019-03-23T13:35:07Z</time></trkpt>
	<trkpt lat="42.55738872" lon="1.87539058"><ele>1959.4</ele><time>2019-03-23T13:35:12Z</time></trkpt>
	<trkpt lat="42.55736406" lon="1.87532032"><ele>1958.2</ele><time>2019-03-23T13:35:17Z</time></trkpt>
	<trkpt lat="42.55735117" lon="1.87525788"><ele>1957.5</ele><time>2019-03-23T13:35:22Z</time></trkpt>
	<trkpt lat="42.55733002" lon="1.87518694"><ele>1956.3</ele><time>2019-03-23T13:35:27Z</time></trkpt>
	<trkpt lat="42.55732064" lon="1.87511877"><ele>1955.9</ele><time>2019-03-23T13:35:31Z</time></trkpt>
	<trkpt lat="42.55731775" lon="1.87505330"><ele>1955.6</ele><time>2019-03-23T13:35:35Z</time></trkpt>
	<trkpt lat="42.55729436" lon="1.87498978"><ele>1955.2</ele><time>2019-03-23T13:35:39Z</time></trkpt>
	<trkpt lat="42.55727506" lon="1.87492960"><ele>1953.7</ele><time>2019-03-23T13:35:43Z</time></trkpt>
	<trkpt lat="42.55724955" lon="1.87487705"><ele>1952.7</ele><time>2019-03-23T13:35:47Z</time></trkpt>
	<trkpt lat="42.55721760" lon="1.87482342"><ele>1952.0</ele><time>2019-03-23T13:35:51Z</time></trkpt>
	<trkpt lat="42.55720552" lon="1.87475880"><ele>1951.3</ele><time>2019-03-23T13:35:55Z</time></trkpt>
	<trkpt lat="42.55719173" lon="1.87468482"><ele>1950.7</ele><time>2019-03-23T13:36:00Z</time></trkpt>
	<trkpt lat="42.55717839" lon="1.87461591"><ele>1950.3</ele><time>2019-03-23T13:36:04Z</time></trkpt>
	<trkpt lat="42.55717095" lon="1.87454714"><ele>1948.3</ele><time>2019-03-23T13:36:08Z</time></trkpt>
	<trkpt lat="42.55716042" lon="1.87448114"><ele>1946.6</ele><time>2019-03-23T13:36:12Z</time></trkpt>
	<trkpt lat="42.55715767" lon="1.87441528"><ele>1945.4</ele><time>2019-03-23T13:36:16Z</time></trkpt>
	<trkpt lat="42.55715589" lon="1.87434654"><ele>1946.1</ele><time>2019-03-23T13:36:20Z</time></trkpt>
	<trkpt lat="42.55714504" lon="1.87427299"><ele>1946.5</ele><time>2019-03-23T13:36:25Z</time></trkpt>
	<trkpt lat="42.55712602" lon="1.87420277"><ele>1946.2</ele><time>2019-03-23T13:36:30Z</time></trkpt>
	<trkpt lat="42.55712590" lon="1.87413608"><ele>1946.1</ele><time>2019-03-23T13:36:34Z</time></trkpt>
	<trkpt lat="42.55713766" lon="1.87407104"><ele>1945.9</ele><time>2019-03-23T13:36:38Z</time></trkpt>
	<trkpt lat="42.55716554" lon="1.87401076"><ele>1945.9</ele><time>2019-03-23T13:36:43Z</time></trkpt>
	<trkpt lat="42.55717279" lon="1.87393958"><ele>1945.6</ele><time>2019-03-23T13:36:48Z</time></trkpt>
	<trkpt lat="42.55717636" lon="1.87387847"><ele>1945.8</ele><time>2019-03-23T13:36:52Z</time></trkpt>
	<trkpt lat="42.55718751" lon="1.87380769"><ele>1945.6</ele><time>2019-03-23T13:36:57Z</time></trkpt>
	<trkpt lat="42.55719362" lon="1.87374003"><ele>1945.1</ele><time>2019-03-23T13:37:02Z</time></trkpt>
	<trkpt lat="42.55719681" lon="1.87367853"><ele>1943.8</ele><time>2019-03-23T13:37:06Z</time></trkpt>
	<trkpt lat="42.55720688" lon="1.87361512"><ele>1942.6</ele><time>2019-03-23T13:37:10Z</time></trkpt>
	<trkpt lat="42.55719639" lon="1.87355248"><ele>1940.6</ele><time>2019-03-23T13:37:15Z</time></trkpt>
	<trkpt lat="42.55717658" lon="1.87348875"><ele>1939.6</ele><time>2019-03-23T13:37:20Z</time></trkpt>
	<trkpt lat="42.55716650" lon="1.87342293"><ele>1939.2</ele><time>2019-03-23T13:37:24Z</time></trkpt>
	<trkpt lat="42.55716705" lon="1.87336169"><ele>1938.7</ele><time>2019-03-23T13:37:28Z</time></trkpt>
	<trkpt lat="42.55716601" lon="1.87329373"><ele>1936.8</ele><time>2019-03-23T13:37:33Z</time></trkpt>
	<trkpt lat="42.55714353" lon="1.87323580"><ele>1935.6</ele><time>2019-03-23T13:37:38Z</time></trkpt>
	<trkpt lat="42.55713813" lon="1.87316747"><ele>1934.6</ele><time>2019-03-23T13:37:42Z</time></trkpt>
	<trkpt lat="42.55712473" lon="1.87310114"><ele>1933.8</ele><time>2019-03-23T13:37:47Z</time></trkpt>
	<trkpt lat="42.55711244" lon="1.87304047"><ele>1933.4</ele><time>2019-03-23T13:37:51Z</time></trkpt>
	<trkpt lat="42.55710090" lon="1.87296652"><ele>1933.3</ele><time>2019-03-23T13:37:55Z</time></trkpt>
	<trkpt lat="42.55709418" lon="1.87288966"><ele>1932.0</ele><time>2019-03-23T13:38:00Z</time></trkpt>
	<trkpt lat="42.55709080" lon="1.87281776"><ele>1931.6</ele><time>2019-03-23T13:38:05Z</time></trkpt>
	<trkpt lat="42.55708371" lon="1.87274304"><ele>1931.1</ele><time>2019-03-23T13:38:10Z</time></trkpt>
	<trkpt lat="42.55707659" lon="1.87267702"><ele>1930.5</ele><time>2019-03-23T13:38:14Z</time></trkpt>
	<trkpt lat="42.55707294" lon="1.87261420"><ele>1929.6</ele><time>2019-03-23T13:38:18Z</time></trkpt>
	<trkpt lat="42.55707474" lon="1.87254988"><ele>1929.3</ele><time>2019-03-23T13:38:22Z</time></trkpt>
	<trkpt lat="42.55708198" lon="1.87248865"><ele>1928.9</ele><time>2019-03-23T13:38:26Z</time></trkpt>
	<trkpt lat="42.55706774" lon="1.87242529"><ele>1929.1</ele><time>2019-03-23T13:38:31Z</time></trkpt>
	<trkpt lat="42.55705961" lon="1.87236273"><ele>1929.0</ele><time>2019-03-23T13:38:35Z</time></trkpt>
	<trkpt lat="42.55705370" lon="1.87228683"><ele>1928.3</ele><time>2019-03-23T13:38:39Z</time></trkpt>
	<trkpt lat="42.55705034" lon="1.87221093"><ele>1927.5</ele><time>2019-03-23T13:38:43Z</time></trkpt>
	<trkpt lat="42.55704651" lon="1.87213898"><ele>1926.4</ele><time>2019-03-23T13:38:47Z</time></trkpt>
	<trkpt lat="42.55703855" lon="1.87206699"><ele>1925.0</ele><time>2019-03-23T13:38:52Z</time></trkpt>
	<trkpt lat="42.55703269" lon="1.87199151"><ele>1923.7</ele><time>2019-03-23T13:38:57Z</time></trkpt>
	<trkpt lat="42.55702255" lon="1.87191847"><ele>1921.7</ele><time>2019-03-23T13:39:02Z</time></trkpt>
	<trkpt lat="42.55700198" lon="1.87185839"><ele>1920.6</ele><time>2019-03-23T13:39:06Z</time></trkpt>
	<trkpt lat="42.55698612" lon="1.87179354"><ele>1919.5</ele><time>2019-03-23T13:39:17Z</time></trkpt>
	<trkpt lat="42.55696101" lon="1.87173398"><ele>1919.0</ele><time>2019-03-23T13:39:22Z</time></trkpt>
	<trkpt lat="42.55694508" lon="1.87167521"><ele>1918.1</ele><time>2019-03-23T13:39:26Z</time></trkpt>
	<trkpt lat="42.55692902" lon="1.87161708"><ele>1917.1</ele><time>2019-03-23T13:39:30Z</time></trkpt>
	<trkpt lat="42.55691640" lon="1.87154825"><ele>1916.0</ele><time>2019-03-23T13:39:35Z</time></trkpt>
	<trkpt lat="42.55689722" lon="1.87148529"><ele>1915.0</ele><time>2019-03-23T13:39:39Z</time></trkpt>
	<trkpt lat="42.55687420" lon="1.87142581"><ele>1914.1</ele><time>2019-03-23T13:39:43Z</time></trkpt>
	<trkpt lat="42.55687345" lon="1.87136370"><ele>1913.3</ele><time>2019-03-23T13:39:47Z</time></trkpt>
	<trkpt lat="42.55687910" lon="1.87129969"><ele>1912.3</ele><time>2019-03-23T13:39:51Z</time></trkpt>
	<trkpt lat="42.55687766" lon="1.87122842"><ele>1911.2</ele><time>2019-03-23T13:39:55Z</time></trkpt>
	<trkpt lat="42.55688107" lon="1.87116080"><ele>1909.7</ele><time>2019-03-23T13:39:59Z</time></trkpt>
	<trkpt lat="42.55686905" lon="1.87109519"><ele>1908.5</ele><time>2019-03-23T13:40:03Z</time></trkpt>
	<trkpt lat="42.55686104" lon="1.87103012"><ele>1907.4</ele><time>2019-03-23T13:40:07Z</time></trkpt>
	<trkpt lat="42.55685456" lon="1.87096263"><ele>1905.7</ele><time>2019-03-23T13:40:12Z</time></trkpt>
	<trkpt lat="42.55684672" lon="1.87089220"><ele>1903.5</ele><time>2019-03-23T13:40:17Z</time></trkpt>
	<trkpt lat="42.55683725" lon="1.87082405"><ele>1902.4</ele><time>2019-03-23T13:40:21Z</time></trkpt>
	<trkpt lat="42.55682249" lon="1.87075906"><ele>1901.6</ele><time>2019-03-23T13:40:25Z</time></trkpt>
	<trkpt lat="42.55681719" lon="1.87068853"><ele>1900.9</ele><time>2019-03-23T13:40:29Z</time></trkpt>
	<trkpt lat="42.55680571" lon="1.87062385"><ele>1899.4</ele><time>2019-03-23T13:40:34Z</time></trkpt>
	<trkpt lat="42.55680578" lon="1.87054634"><ele>1898.0</ele><time>2019-03-23T13:40:39Z</time></trkpt>
	<trkpt lat="42.55679640" lon="1.87047228"><ele>1897.1</ele><time>2019-03-23T13:40:43Z</time></trkpt>
	<trkpt lat="42.55678843" lon="1.87040833"><ele>1896.1</ele><time>2019-03-23T13:40:47Z</time></trkpt>
	<trkpt lat="42.55677806" lon="1.87034351"><ele>1895.2</ele><time>2019-03-23T13:40:51Z</time></trkpt>
	<trkpt lat="42.55676130" lon="1.87028382"><ele>1894.3</ele><time>2019-03-23T13:40:55Z</time></trkpt>
	<trkpt lat="42.55674741" lon="1.87021664"><ele>1893.3</ele><time>2019-03-23T13:40:59Z</time></trkpt>
	<trkpt lat="42.55673847" lon="1.87015130"><ele>1891.8</ele><time>2019-03-23T13:41:03Z</time></trkpt>
	<trkpt lat="42.55673191" lon="1.87008594"><ele>1890.4</ele><time>2019-03-23T13:41:07Z</time></trkpt>
	<trkpt lat="42.55671268" lon="1.87001665"><ele>1888.8</ele><time>2019-03-23T13:41:11Z</time></trkpt>
	<trkpt lat="42.55670286" lon="1.86994429"><ele>1887.2</ele><time>2019-03-23T13:41:15Z</time></trkpt>
	<trkpt lat="42.55669551" lon="1.86987811"><ele>1885.5</ele><time>2019-03-23T13:41:19Z</time></trkpt>
	<trkpt lat="42.55667913" lon="1.86981058"><ele>1883.9</ele><time>2019-03-23T13:41:23Z</time></trkpt>
	<trkpt lat="42.55665760" lon="1.86974040"><ele>1882.1</ele><time>2019-03-23T13:41:28Z</time></trkpt>
	<trkpt lat="42.55664947" lon="1.86967728"><ele>1881.0</ele><time>2019-03-23T13:41:32Z</time></trkpt>
	<trkpt lat="42.55663777" lon="1.86961152"><ele>1879.5</ele><time>2019-03-23T13:41:36Z</time></trkpt>
	<trkpt lat="42.55663603" lon="1.86953853"><ele>1876.0</ele><time>2019-03-23T13:41:41Z</time></trkpt>
	<trkpt lat="42.55662396" lon="1.86947285"><ele>1875.6</ele><time>2019-03-23T13:41:45Z</time></trkpt>
	<trkpt lat="42.55661775" lon="1.86939993"><ele>1875.1</ele><time>2019-03-23T13:41:50Z</time></trkpt>
	<trkpt lat="42.55663608" lon="1.86933700"><ele>1874.8</ele><time>2019-03-23T13:41:54Z</time></trkpt>
	<trkpt lat="42.55666123" lon="1.86927605"><ele>1874.3</ele><time>2019-03-23T13:41:59Z</time></trkpt>
	<trkpt lat="42.55666263" lon="1.86920202"><ele>1873.8</ele><time>2019-03-23T13:42:04Z</time></trkpt>
	<trkpt lat="42.55666579" lon="1.86912988"><ele>1873.6</ele><time>2019-03-23T13:42:08Z</time></trkpt>
	<trkpt lat="42.55666129" lon="1.86905987"><ele>1873.0</ele><time>2019-03-23T13:42:12Z</time></trkpt>
	<trkpt lat="42.55666577" lon="1.86899004"><ele>1872.1</ele><time>2019-03-23T13:42:16Z</time></trkpt>
	<trkpt lat="42.55666643" lon="1.86892274"><ele>1871.3</ele><time>2019-03-23T13:42:20Z</time></trkpt>
	<trkpt lat="42.55667087" lon="1.86885877"><ele>1870.8</ele><time>2019-03-23T13:42:24Z</time></trkpt>
	<trkpt lat="42.55666347" lon="1.86879031"><ele>1870.3</ele><time>2019-03-23T13:42:28Z</time></trkpt>
	<trkpt lat="42.55666257" lon="1.86872817"><ele>1869.8</ele><time>2019-03-23T13:42:32Z</time></trkpt>
	<trkpt lat="42.55665775" lon="1.86866565"><ele>1869.1</ele><time>2019-03-23T13:42:36Z</time></trkpt>
	<trkpt lat="42.55664936" lon="1.86858868"><ele>1868.5</ele><time>2019-03-23T13:42:40Z</time></trkpt>
	<trkpt lat="42.55664136" lon="1.86851620"><ele>1867.9</ele><time>2019-03-23T13:42:44Z</time></trkpt>
	<trkpt lat="42.55663661" lon="1.86844856"><ele>1867.1</ele><time>2019-03-23T13:42:48Z</time></trkpt>
	<trkpt lat="42.55663784" lon="1.86838270"><ele>1866.5</ele><time>2019-03-23T13:42:52Z</time></trkpt>
	<trkpt lat="42.55663716" lon="1.86831343"><ele>1866.1</ele><time>2019-03-23T13:42:56Z</time></trkpt>
	<trkpt lat="42.55663579" lon="1.86824326"><ele>1865.6</ele><time>2019-03-23T13:43:00Z</time></trkpt>
	<trkpt lat="42.55663669" lon="1.86817096"><ele>1864.7</ele><time>2019-03-23T13:43:04Z</time></trkpt>
	<trkpt lat="42.55663356" lon="1.86809516"><ele>1864.2</ele><time>2019-03-23T13:43:08Z</time></trkpt>
	<trkpt lat="42.55664189" lon="1.86802697"><ele>1863.3</ele><time>2019-03-23T13:43:12Z</time></trkpt>
	<trkpt lat="42.55664483" lon="1.86795596"><ele>1862.6</ele><time>2019-03-23T13:43:16Z</time></trkpt>
	<trkpt lat="42.55665413" lon="1.86788227"><ele>1861.9</ele><time>2019-03-23T13:43:20Z</time></trkpt>
	<trkpt lat="42.55666244" lon="1.86781105"><ele>1861.2</ele><time>2019-03-23T13:43:24Z</time></trkpt>
	<trkpt lat="42.55666587" lon="1.86774442"><ele>1860.6</ele><time>2019-03-23T13:43:28Z</time></trkpt>
	<trkpt lat="42.55666935" lon="1.86767460"><ele>1860.0</ele><time>2019-03-23T13:43:32Z</time></trkpt>
	<trkpt lat="42.55667205" lon="1.86760301"><ele>1859.5</ele><time>2019-03-23T13:43:36Z</time></trkpt>
	<trkpt lat="42.55669013" lon="1.86753647"><ele>1859.1</ele><time>2019-03-23T13:43:40Z</time></trkpt>
	<trkpt lat="42.55671007" lon="1.86747834"><ele>1858.7</ele><time>2019-03-23T13:43:44Z</time></trkpt>
	<trkpt lat="42.55670507" lon="1.86741558"><ele>1858.4</ele><time>2019-03-23T13:43:48Z</time></trkpt>
	<trkpt lat="42.55668432" lon="1.86735719"><ele>1857.4</ele><time>2019-03-23T13:43:52Z</time></trkpt>
	<trkpt lat="42.55665306" lon="1.86729204"><ele>1855.5</ele><time>2019-03-23T13:43:57Z</time></trkpt>
	<trkpt lat="42.55661670" lon="1.86723290"><ele>1854.8</ele><time>2019-03-23T13:44:01Z</time></trkpt>
	<trkpt lat="42.55657757" lon="1.86717357"><ele>1854.4</ele><time>2019-03-23T13:44:05Z</time></trkpt>
	<trkpt lat="42.55655167" lon="1.86710894"><ele>1854.0</ele><time>2019-03-23T13:44:09Z</time></trkpt>
	<trkpt lat="42.55652781" lon="1.86705432"><ele>1854.3</ele><time>2019-03-23T13:44:13Z</time></trkpt>
	<trkpt lat="42.55649942" lon="1.86700151"><ele>1854.4</ele><time>2019-03-23T13:44:17Z</time></trkpt>
	<trkpt lat="42.55647806" lon="1.86694530"><ele>1854.4</ele><time>2019-03-23T13:44:21Z</time></trkpt>
	<trkpt lat="42.55647269" lon="1.86686807"><ele>1853.7</ele><time>2019-03-23T13:44:26Z</time></trkpt>
	<trkpt lat="42.55645793" lon="1.86679570"><ele>1853.4</ele><time>2019-03-23T13:44:30Z</time></trkpt>
	<trkpt lat="42.55646010" lon="1.86673130"><ele>1853.0</ele><time>2019-03-23T13:44:34Z</time></trkpt>
	<trkpt lat="42.55646940" lon="1.86666251"><ele>1852.5</ele><time>2019-03-23T13:44:39Z</time></trkpt>
	<trkpt lat="42.55646872" lon="1.86659793"><ele>1851.6</ele><time>2019-03-23T13:44:44Z</time></trkpt>
	<trkpt lat="42.55643367" lon="1.86654208"><ele>1850.7</ele><time>2019-03-23T13:44:48Z</time></trkpt>
	<trkpt lat="42.55639774" lon="1.86649132"><ele>1849.9</ele><time>2019-03-23T13:44:52Z</time></trkpt>
	<trkpt lat="42.55636671" lon="1.86643645"><ele>1849.0</ele><time>2019-03-23T13:44:56Z</time></trkpt>
	<trkpt lat="42.55634914" lon="1.86637940"><ele>1848.8</ele><time>2019-03-23T13:45:00Z</time></trkpt>
	<trkpt lat="42.55632717" lon="1.86631378"><ele>1848.4</ele><time>2019-03-23T13:45:05Z</time></trkpt>
	<trkpt lat="42.55631834" lon="1.86624054"><ele>1847.6</ele><time>2019-03-23T13:45:10Z</time></trkpt>
	<trkpt lat="42.55632677" lon="1.86616785"><ele>1846.8</ele><time>2019-03-23T13:45:15Z</time></trkpt>
	<trkpt lat="42.55632478" lon="1.86609865"><ele>1845.7</ele><time>2019-03-23T13:45:20Z</time></trkpt>
	<trkpt lat="42.55629986" lon="1.86603504"><ele>1844.9</ele><time>2019-03-23T13:45:25Z</time></trkpt>
	<trkpt lat="42.55626751" lon="1.86597869"><ele>1844.4</ele><time>2019-03-23T13:45:29Z</time></trkpt>
	<trkpt lat="42.55624604" lon="1.86592043"><ele>1844.0</ele><time>2019-03-23T13:45:33Z</time></trkpt>
	<trkpt lat="42.55621635" lon="1.86587299"><ele>1843.5</ele><time>2019-03-23T13:45:37Z</time></trkpt>
	<trkpt lat="42.55618250" lon="1.86581289"><ele>1842.9</ele><time>2019-03-23T13:45:41Z</time></trkpt>
	<trkpt lat="42.55616543" lon="1.86575412"><ele>1842.0</ele><time>2019-03-23T13:45:45Z</time></trkpt>
	<trkpt lat="42.55615448" lon="1.86569016"><ele>1841.3</ele><time>2019-03-23T13:45:49Z</time></trkpt>
	<trkpt lat="42.55615931" lon="1.86562396"><ele>1840.6</ele><time>2019-03-23T13:45:53Z</time></trkpt>
	<trkpt lat="42.55615285" lon="1.86556034"><ele>1840.0</ele><time>2019-03-23T13:45:57Z</time></trkpt>
	<trkpt lat="42.55614781" lon="1.86549855"><ele>1839.6</ele><time>2019-03-23T13:46:01Z</time></trkpt>
	<trkpt lat="42.55613285" lon="1.86543985"><ele>1839.0</ele><time>2019-03-23T13:46:06Z</time></trkpt>
	<trkpt lat="42.55610969" lon="1.86537062"><ele>1838.4</ele><time>2019-03-23T13:46:11Z</time></trkpt>
	<trkpt lat="42.55609560" lon="1.86531131"><ele>1837.7</ele><time>2019-03-23T13:46:15Z</time></trkpt>
	<trkpt lat="42.55608727" lon="1.86524999"><ele>1837.1</ele><time>2019-03-23T13:46:19Z</time></trkpt>
	<trkpt lat="42.55607800" lon="1.86518812"><ele>1836.5</ele><time>2019-03-23T13:46:23Z</time></trkpt>
	<trkpt lat="42.55607533" lon="1.86511413"><ele>1834.3</ele><time>2019-03-23T13:46:28Z</time></trkpt>
	<trkpt lat="42.55607378" lon="1.86505246"><ele>1833.0</ele><time>2019-03-23T13:46:32Z</time></trkpt>
	<trkpt lat="42.55606029" lon="1.86498819"><ele>1832.3</ele><time>2019-03-23T13:46:36Z</time></trkpt>
	<trkpt lat="42.55604417" lon="1.86491947"><ele>1831.8</ele><time>2019-03-23T13:46:40Z</time></trkpt>
	<trkpt lat="42.55603054" lon="1.86484841"><ele>1831.5</ele><time>2019-03-23T13:46:45Z</time></trkpt>
	<trkpt lat="42.55600790" lon="1.86478728"><ele>1831.5</ele><time>2019-03-23T13:46:49Z</time></trkpt>
	<trkpt lat="42.55598169" lon="1.86472841"><ele>1831.4</ele><time>2019-03-23T13:46:53Z</time></trkpt>
	<trkpt lat="42.55595547" lon="1.86466882"><ele>1831.4</ele><time>2019-03-23T13:46:57Z</time></trkpt>
	<trkpt lat="42.55593913" lon="1.86460811"><ele>1831.2</ele><time>2019-03-23T13:47:01Z</time></trkpt>
	<trkpt lat="42.55592489" lon="1.86454201"><ele>1831.0</ele><time>2019-03-23T13:47:05Z</time></trkpt>
	<trkpt lat="42.55593244" lon="1.86447298"><ele>1831.1</ele><time>2019-03-23T13:47:09Z</time></trkpt>
	<trkpt lat="42.55593581" lon="1.86439422"><ele>1830.8</ele><time>2019-03-23T13:47:14Z</time></trkpt>
	<trkpt lat="42.55595556" lon="1.86432926"><ele>1830.0</ele><time>2019-03-23T13:47:18Z</time></trkpt>
	<trkpt lat="42.55596128" lon="1.86426456"><ele>1829.0</ele><time>2019-03-23T13:47:24Z</time></trkpt>
	<trkpt lat="42.55593247" lon="1.86421604"><ele>1828.5</ele><time>2019-03-23T13:47:28Z</time></trkpt>
	<trkpt lat="42.55590518" lon="1.86416291"><ele>1828.0</ele><time>2019-03-23T13:47:32Z</time></trkpt>
	<trkpt lat="42.55587815" lon="1.86411274"><ele>1827.8</ele><time>2019-03-23T13:47:36Z</time></trkpt>
	<trkpt lat="42.55582760" lon="1.86410291"><ele>1829.2</ele><time>2019-03-23T13:47:39Z</time></trkpt>
	<trkpt lat="42.55578007" lon="1.86407445"><ele>1829.2</ele><time>2019-03-23T13:47:44Z</time></trkpt>
	<trkpt lat="42.55574385" lon="1.86401833"><ele>1828.0</ele><time>2019-03-23T13:47:49Z</time></trkpt>
	<trkpt lat="42.55571511" lon="1.86396402"><ele>1827.3</ele><time>2019-03-23T13:47:53Z</time></trkpt>
	<trkpt lat="42.55568472" lon="1.86391110"><ele>1826.8</ele><time>2019-03-23T13:47:57Z</time></trkpt>
	<trkpt lat="42.55565859" lon="1.86385904"><ele>1825.9</ele><time>2019-03-23T13:48:01Z</time></trkpt>
	<trkpt lat="42.55562462" lon="1.86379762"><ele>1825.0</ele><time>2019-03-23T13:48:06Z</time></trkpt>
	<trkpt lat="42.55559724" lon="1.86373674"><ele>1824.6</ele><time>2019-03-23T13:48:10Z</time></trkpt>
	<trkpt lat="42.55557824" lon="1.86367112"><ele>1823.1</ele><time>2019-03-23T13:48:25Z</time></trkpt>
	<trkpt lat="42.55555042" lon="1.86361339"><ele>1822.2</ele><time>2019-03-23T13:48:29Z</time></trkpt>
	<trkpt lat="42.55551568" lon="1.86357025"><ele>1822.1</ele><time>2019-03-23T13:48:33Z</time></trkpt>
	<trkpt lat="42.55547884" lon="1.86352838"><ele>1821.7</ele><time>2019-03-23T13:48:37Z</time></trkpt>
	<trkpt lat="42.55544795" lon="1.86347882"><ele>1821.1</ele><time>2019-03-23T13:48:41Z</time></trkpt>
	<trkpt lat="42.55541045" lon="1.86344130"><ele>1820.6</ele><time>2019-03-23T13:48:45Z</time></trkpt>
	<trkpt lat="42.55537126" lon="1.86340473"><ele>1820.3</ele><time>2019-03-23T13:48:49Z</time></trkpt>
	<trkpt lat="42.55533679" lon="1.86336324"><ele>1819.6</ele><time>2019-03-23T13:48:53Z</time></trkpt>
	<trkpt lat="42.55530615" lon="1.86331537"><ele>1818.5</ele><time>2019-03-23T13:48:57Z</time></trkpt>
	<trkpt lat="42.55527031" lon="1.86327406"><ele>1818.3</ele><time>2019-03-23T13:49:01Z</time></trkpt>
	<trkpt lat="42.55524035" lon="1.86321432"><ele>1817.9</ele><time>2019-03-23T13:49:06Z</time></trkpt>
	<trkpt lat="42.55522358" lon="1.86315155"><ele>1817.6</ele><time>2019-03-23T13:49:10Z</time></trkpt>
	<trkpt lat="42.55519381" lon="1.86309662"><ele>1817.3</ele><time>2019-03-23T13:49:14Z</time></trkpt>
	<trkpt lat="42.55516422" lon="1.86304599"><ele>1816.4</ele><time>2019-03-23T13:49:18Z</time></trkpt>
	<trkpt lat="42.55513674" lon="1.86298016"><ele>1815.8</ele><time>2019-03-23T13:49:23Z</time></trkpt>
	<trkpt lat="42.55510267" lon="1.86292791"><ele>1815.5</ele><time>2019-03-23T13:49:27Z</time></trkpt>
	<trkpt lat="42.55507787" lon="1.86286893"><ele>1814.9</ele><time>2019-03-23T13:49:31Z</time></trkpt>
	<trkpt lat="42.55504465" lon="1.86281592"><ele>1814.6</ele><time>2019-03-23T13:49:35Z</time></trkpt>
	<trkpt lat="42.55501375" lon="1.86276299"><ele>1814.1</ele><time>2019-03-23T13:49:39Z</time></trkpt>
	<trkpt lat="42.55498933" lon="1.86269928"><ele>1813.6</ele><time>2019-03-23T13:49:44Z</time></trkpt>
	<trkpt lat="42.55495526" lon="1.86264684"><ele>1813.4</ele><time>2019-03-23T13:49:48Z</time></trkpt>
	<trkpt lat="42.55491965" lon="1.86259674"><ele>1813.3</ele><time>2019-03-23T13:49:52Z</time></trkpt>
	<trkpt lat="42.55489843" lon="1.86254120"><ele>1813.1</ele><time>2019-03-23T13:49:56Z</time></trkpt>
	<trkpt lat="42.55487280" lon="1.86248533"><ele>1813.2</ele><time>2019-03-23T13:50:00Z</time></trkpt>
	<trkpt lat="42.55484628" lon="1.86243570"><ele>1813.0</ele><time>2019-03-23T13:50:04Z</time></trkpt>
	<trkpt lat="42.55481800" lon="1.86238300"><ele>1813.0</ele><time>2019-03-23T13:50:08Z</time></trkpt>
	<trkpt lat="42.55479666" lon="1.86232336"><ele>1813.0</ele><time>2019-03-23T13:50:13Z</time></trkpt>
	<trkpt lat="42.55478472" lon="1.86226148"><ele>1812.7</ele><time>2019-03-23T13:50:17Z</time></trkpt>
	<trkpt lat="42.55477879" lon="1.86219962"><ele>1812.1</ele><time>2019-03-23T13:50:21Z</time></trkpt>
	<trkpt lat="42.55476795" lon="1.86212807"><ele>1811.4</ele><time>2019-03-23T13:50:26Z</time></trkpt>
	<trkpt lat="42.55473551" lon="1.86207154"><ele>1810.7</ele><time>2019-03-23T13:50:30Z</time></trkpt>
	<trkpt lat="42.55469871" lon="1.86201808"><ele>1810.1</ele><time>2019-03-23T13:50:34Z</time></trkpt>
	<trkpt lat="42.55466917" lon="1.86196100"><ele>1809.4</ele><time>2019-03-23T13:50:38Z</time></trkpt>
	<trkpt lat="42.55465134" lon="1.86190470"><ele>1808.9</ele><time>2019-03-23T13:50:42Z</time></trkpt>
	<trkpt lat="42.55462675" lon="1.86184561"><ele>1808.5</ele><time>2019-03-23T13:50:46Z</time></trkpt>
	<trkpt lat="42.55461191" lon="1.86178725"><ele>1808.0</ele><time>2019-03-23T13:50:50Z</time></trkpt>
	<trkpt lat="42.55458993" lon="1.86172149"><ele>1807.3</ele><time>2019-03-23T13:50:55Z</time></trkpt>
	<trkpt lat="42.55457295" lon="1.86166487"><ele>1807.0</ele><time>2019-03-23T13:50:59Z</time></trkpt>
	<trkpt lat="42.55455161" lon="1.86159925"><ele>1806.6</ele><time>2019-03-23T13:51:03Z</time></trkpt>
	<trkpt lat="42.55452882" lon="1.86154567"><ele>1806.2</ele><time>2019-03-23T13:51:07Z</time></trkpt>
	<trkpt lat="42.55450624" lon="1.86149162"><ele>1805.9</ele><time>2019-03-23T13:51:12Z</time></trkpt>
	<trkpt lat="42.55448365" lon="1.86143849"><ele>1805.7</ele><time>2019-03-23T13:51:16Z</time></trkpt>
	<trkpt lat="42.55446730" lon="1.86137127"><ele>1805.8</ele><time>2019-03-23T13:51:21Z</time></trkpt>
	<trkpt lat="42.55444898" lon="1.86130189"><ele>1805.8</ele><time>2019-03-23T13:51:27Z</time></trkpt>
	<trkpt lat="42.55444170" lon="1.86123220"><ele>1805.8</ele><time>2019-03-23T13:51:32Z</time></trkpt>
	<trkpt lat="42.55442403" lon="1.86117343"><ele>1805.1</ele><time>2019-03-23T13:51:38Z</time></trkpt>
	<trkpt lat="42.55441550" lon="1.86111302"><ele>1804.7</ele><time>2019-03-23T13:51:42Z</time></trkpt>
	<trkpt lat="42.55440731" lon="1.86104948"><ele>1804.4</ele><time>2019-03-23T13:51:46Z</time></trkpt>
	<trkpt lat="42.55439599" lon="1.86098848"><ele>1804.2</ele><time>2019-03-23T13:51:50Z</time></trkpt>
	<trkpt lat="42.55438988" lon="1.86092702"><ele>1803.8</ele><time>2019-03-23T13:51:54Z</time></trkpt>
	<trkpt lat="42.55436833" lon="1.86087153"><ele>1803.6</ele><time>2019-03-23T13:51:58Z</time></trkpt>
	<trkpt lat="42.55434931" lon="1.86081284"><ele>1803.7</ele><time>2019-03-23T13:52:02Z</time></trkpt>
	<trkpt lat="42.55433357" lon="1.86074829"><ele>1803.5</ele><time>2019-03-23T13:52:07Z</time></trkpt>
	<trkpt lat="42.55431210" lon="1.86067644"><ele>1803.4</ele><time>2019-03-23T13:52:12Z</time></trkpt>
	<trkpt lat="42.55428948" lon="1.86062290"><ele>1803.2</ele><time>2019-03-23T13:52:16Z</time></trkpt>
	<trkpt lat="42.55426142" lon="1.86057371"><ele>1802.8</ele><time>2019-03-23T13:52:20Z</time></trkpt>
	<trkpt lat="42.55423617" lon="1.86051038"><ele>1802.6</ele><time>2019-03-23T13:52:25Z</time></trkpt>
	<trkpt lat="42.55421065" lon="1.86044438"><ele>1802.3</ele><time>2019-03-23T13:52:30Z</time></trkpt>
	<trkpt lat="42.55418210" lon="1.86038372"><ele>1802.4</ele><time>2019-03-23T13:52:35Z</time></trkpt>
	<trkpt lat="42.55416846" lon="1.86031830"><ele>1801.6</ele><time>2019-03-23T13:52:40Z</time></trkpt>
	<trkpt lat="42.55415565" lon="1.86025813"><ele>1801.2</ele><time>2019-03-23T13:52:45Z</time></trkpt>
	<trkpt lat="42.55414277" lon="1.86019753"><ele>1800.8</ele><time>2019-03-23T13:52:49Z</time></trkpt>
	<trkpt lat="42.55413068" lon="1.86013011"><ele>1800.3</ele><time>2019-03-23T13:52:53Z</time></trkpt>
	<trkpt lat="42.55410373" lon="1.86006919"><ele>1799.6</ele><time>2019-03-23T13:52:57Z</time></trkpt>
	<trkpt lat="42.55406977" lon="1.86001769"><ele>1800.6</ele><time>2019-03-23T13:53:00Z</time></trkpt>
	<trkpt lat="42.55404955" lon="1.85995999"><ele>1800.2</ele><time>2019-03-23T13:53:05Z</time></trkpt>
	<trkpt lat="42.55402957" lon="1.85990408"><ele>1799.0</ele><time>2019-03-23T13:53:11Z</time></trkpt>
	<trkpt lat="42.55400105" lon="1.85984594"><ele>1797.5</ele><time>2019-03-23T13:53:16Z</time></trkpt>
	<trkpt lat="42.55399046" lon="1.85978407"><ele>1796.6</ele><time>2019-03-23T13:53:20Z</time></trkpt>
	<trkpt lat="42.55398903" lon="1.85972234"><ele>1796.3</ele><time>2019-03-23T13:53:24Z</time></trkpt>
	<trkpt lat="42.55398082" lon="1.85965018"><ele>1796.2</ele><time>2019-03-23T13:53:29Z</time></trkpt>
	<trkpt lat="42.55395119" lon="1.85958906"><ele>1795.4</ele><time>2019-03-23T13:53:35Z</time></trkpt>
	<trkpt lat="42.55392470" lon="1.85953766"><ele>1795.5</ele><time>2019-03-23T13:53:39Z</time></trkpt>
	<trkpt lat="42.55391374" lon="1.85947209"><ele>1795.2</ele><time>2019-03-23T13:53:44Z</time></trkpt>
	<trkpt lat="42.55388938" lon="1.85940704"><ele>1794.4</ele><time>2019-03-23T13:53:49Z</time></trkpt>
	<trkpt lat="42.55385923" lon="1.85935723"><ele>1793.6</ele><time>2019-03-23T13:53:53Z</time></trkpt>
	<trkpt lat="42.55382827" lon="1.85931080"><ele>1793.0</ele><time>2019-03-23T13:53:57Z</time></trkpt>
	<trkpt lat="42.55379730" lon="1.85924722"><ele>1792.2</ele><time>2019-03-23T13:54:02Z</time></trkpt>
	<trkpt lat="42.55377063" lon="1.85918375"><ele>1791.5</ele><time>2019-03-23T13:54:07Z</time></trkpt>
	<trkpt lat="42.55375708" lon="1.85912255"><ele>1791.5</ele><time>2019-03-23T13:54:12Z</time></trkpt>
	<trkpt lat="42.55372820" lon="1.85906110"><ele>1791.3</ele><time>2019-03-23T13:54:17Z</time></trkpt>
	<trkpt lat="42.55371010" lon="1.85900165"><ele>1790.9</ele><time>2019-03-23T13:54:21Z</time></trkpt>
	<trkpt lat="42.55368248" lon="1.85893533"><ele>1790.4</ele><time>2019-03-23T13:54:26Z</time></trkpt>
	<trkpt lat="42.55364693" lon="1.85887526"><ele>1789.8</ele><time>2019-03-23T13:54:31Z</time></trkpt>
	<trkpt lat="42.55362580" lon="1.85882086"><ele>1789.5</ele><time>2019-03-23T13:54:35Z</time></trkpt>
	<trkpt lat="42.55363458" lon="1.85875939"><ele>1789.6</ele><time>2019-03-23T13:54:40Z</time></trkpt>
	<trkpt lat="42.55364884" lon="1.85870041"><ele>1789.5</ele><time>2019-03-23T13:54:45Z</time></trkpt>
	<trkpt lat="42.55363712" lon="1.85863641"><ele>1790.3</ele><time>2019-03-23T13:54:50Z</time></trkpt>
	<trkpt lat="42.55362670" lon="1.85857706"><ele>1790.6</ele><time>2019-03-23T13:54:55Z</time></trkpt>
	<trkpt lat="42.55361054" lon="1.85851381"><ele>1790.5</ele><time>2019-03-23T13:55:01Z</time></trkpt>
	<trkpt lat="42.55359682" lon="1.85844366"><ele>1789.0</ele><time>2019-03-23T13:55:06Z</time></trkpt>
	<trkpt lat="42.55357375" lon="1.85837936"><ele>1789.0</ele><time>2019-03-23T13:55:11Z</time></trkpt>
	<trkpt lat="42.55355539" lon="1.85832067"><ele>1788.9</ele><time>2019-03-23T13:55:16Z</time></trkpt>
	<trkpt lat="42.55352406" lon="1.85826357"><ele>1788.5</ele><time>2019-03-23T13:55:21Z</time></trkpt>
	<trkpt lat="42.55350834" lon="1.85819391"><ele>1788.2</ele><time>2019-03-23T13:55:26Z</time></trkpt>
	<trkpt lat="42.55351494" lon="1.85811962"><ele>1788.2</ele><time>2019-03-23T13:55:31Z</time></trkpt>
	<trkpt lat="42.55350807" lon="1.85805795"><ele>1787.9</ele><time>2019-03-23T13:55:36Z</time></trkpt>
	<trkpt lat="42.55349470" lon="1.85798521"><ele>1787.0</ele><time>2019-03-23T13:55:42Z</time></trkpt>
	<trkpt lat="42.55350618" lon="1.85792434"><ele>1787.1</ele><time>2019-03-23T13:55:46Z</time></trkpt>
	<trkpt lat="42.55351853" lon="1.85785907"><ele>1787.3</ele><time>2019-03-23T13:55:51Z</time></trkpt>
	<trkpt lat="42.55350453" lon="1.85779046"><ele>1786.6</ele><time>2019-03-23T13:55:58Z</time></trkpt>
	<trkpt lat="42.55347817" lon="1.85773056"><ele>1786.5</ele><time>2019-03-23T13:56:03Z</time></trkpt>
	<trkpt lat="42.55345828" lon="1.85767259"><ele>1786.2</ele><time>2019-03-23T13:56:07Z</time></trkpt>
	<trkpt lat="42.55343990" lon="1.85760594"><ele>1785.7</ele><time>2019-03-23T13:56:12Z</time></trkpt>
	<trkpt lat="42.55342371" lon="1.85754656"><ele>1784.9</ele><time>2019-03-23T13:56:17Z</time></trkpt>
	<trkpt lat="42.55340277" lon="1.85748568"><ele>1784.2</ele><time>2019-03-23T13:56:22Z</time></trkpt>
	<trkpt lat="42.55338633" lon="1.85742166"><ele>1783.8</ele><time>2019-03-23T13:56:27Z</time></trkpt>
	<trkpt lat="42.55337632" lon="1.85735831"><ele>1783.3</ele><time>2019-03-23T13:56:32Z</time></trkpt>
	<trkpt lat="42.55335825" lon="1.85729038"><ele>1782.6</ele><time>2019-03-23T13:56:37Z</time></trkpt>
	<trkpt lat="42.55335267" lon="1.85722924"><ele>1782.2</ele><time>2019-03-23T13:56:41Z</time></trkpt>
	<trkpt lat="42.55335367" lon="1.85715217"><ele>1781.7</ele><time>2019-03-23T13:56:46Z</time></trkpt>
	<trkpt lat="42.55335964" lon="1.85708638"><ele>1781.2</ele><time>2019-03-23T13:56:50Z</time></trkpt>
	<trkpt lat="42.55336186" lon="1.85702431"><ele>1780.8</ele><time>2019-03-23T13:56:54Z</time></trkpt>
	<trkpt lat="42.55336475" lon="1.85696165"><ele>1780.5</ele><time>2019-03-23T13:56:58Z</time></trkpt>
	<trkpt lat="42.55336907" lon="1.85689394"><ele>1780.2</ele><time>2019-03-23T13:57:02Z</time></trkpt>
	<trkpt lat="42.55337673" lon="1.85681713"><ele>1779.8</ele><time>2019-03-23T13:57:07Z</time></trkpt>
	<trkpt lat="42.55339066" lon="1.85675777"><ele>1780.0</ele><time>2019-03-23T13:57:12Z</time></trkpt>
	<trkpt lat="42.55337822" lon="1.85669165"><ele>1779.6</ele><time>2019-03-23T13:57:18Z</time></trkpt>
	<trkpt lat="42.55336871" lon="1.85662367"><ele>1779.1</ele><time>2019-03-23T13:57:23Z</time></trkpt>
	<trkpt lat="42.55337006" lon="1.85654702"><ele>1778.1</ele><time>2019-03-23T13:57:28Z</time></trkpt>
	<trkpt lat="42.55337658" lon="1.85648469"><ele>1777.6</ele><time>2019-03-23T13:57:32Z</time></trkpt>
	<trkpt lat="42.55336513" lon="1.85641314"><ele>1776.6</ele><time>2019-03-23T13:57:37Z</time></trkpt>
	<trkpt lat="42.55334706" lon="1.85634730"><ele>1775.6</ele><time>2019-03-23T13:57:42Z</time></trkpt>
	<trkpt lat="42.55332458" lon="1.85628845"><ele>1774.9</ele><time>2019-03-23T13:57:47Z</time></trkpt>
	<trkpt lat="42.55331023" lon="1.85621525"><ele>1774.2</ele><time>2019-03-23T13:57:52Z</time></trkpt>
	<trkpt lat="42.55329339" lon="1.85614856"><ele>1774.0</ele><time>2019-03-23T13:57:57Z</time></trkpt>
	<trkpt lat="42.55328604" lon="1.85608041"><ele>1773.8</ele><time>2019-03-23T13:58:02Z</time></trkpt>
	<trkpt lat="42.55328237" lon="1.85600356"><ele>1770.3</ele><time>2019-03-23T13:58:07Z</time></trkpt>
	<trkpt lat="42.55327907" lon="1.85594141"><ele>1767.9</ele><time>2019-03-23T13:58:11Z</time></trkpt>
	<trkpt lat="42.55324818" lon="1.85587771"><ele>1766.4</ele><time>2019-03-23T13:58:16Z</time></trkpt>
	<trkpt lat="42.55321568" lon="1.85582491"><ele>1766.2</ele><time>2019-03-23T13:58:20Z</time></trkpt>
	<trkpt lat="42.55319729" lon="1.85576933"><ele>1765.9</ele><time>2019-03-23T13:58:24Z</time></trkpt>
	<trkpt lat="42.55319200" lon="1.85569962"><ele>1766.4</ele><time>2019-03-23T13:58:29Z</time></trkpt>
	<trkpt lat="42.55316629" lon="1.85563644"><ele>1766.8</ele><time>2019-03-23T13:58:34Z</time></trkpt>
	<trkpt lat="42.55316234" lon="1.85556606"><ele>1767.3</ele><time>2019-03-23T13:58:39Z</time></trkpt>
	<trkpt lat="42.55317404" lon="1.85549686"><ele>1767.7</ele><time>2019-03-23T13:58:44Z</time></trkpt>
	<trkpt lat="42.55318505" lon="1.85543478"><ele>1767.8</ele><time>2019-03-23T13:58:48Z</time></trkpt>
	<trkpt lat="42.55316060" lon="1.85536683"><ele>1768.6</ele><time>2019-03-23T13:58:53Z</time></trkpt>
	<trkpt lat="42.55313670" lon="1.85530781"><ele>1768.7</ele><time>2019-03-23T13:58:57Z</time></trkpt>
	<trkpt lat="42.55311047" lon="1.85525006"><ele>1768.3</ele><time>2019-03-23T13:59:01Z</time></trkpt>
	<trkpt lat="42.55308460" lon="1.85519569"><ele>1767.8</ele><time>2019-03-23T13:59:05Z</time></trkpt>
	<trkpt lat="42.55306092" lon="1.85513460"><ele>1767.3</ele><time>2019-03-23T13:59:09Z</time></trkpt>
	<trkpt lat="42.55304528" lon="1.85507277"><ele>1766.9</ele><time>2019-03-23T13:59:13Z</time></trkpt>
	<trkpt lat="42.55301670" lon="1.85501550"><ele>1766.2</ele><time>2019-03-23T13:59:19Z</time></trkpt>
	<trkpt lat="42.55297968" lon="1.85497677"><ele>1765.9</ele><time>2019-03-23T13:59:24Z</time></trkpt>
	<trkpt lat="42.55294899" lon="1.85493056"><ele>1764.9</ele><time>2019-03-23T13:59:29Z</time></trkpt>
	<trkpt lat="42.55292461" lon="1.85486718"><ele>1764.9</ele><time>2019-03-23T13:59:34Z</time></trkpt>
	<trkpt lat="42.55290456" lon="1.85480592"><ele>1765.1</ele><time>2019-03-23T13:59:39Z</time></trkpt>
	<trkpt lat="42.55287642" lon="1.85475297"><ele>1765.1</ele><time>2019-03-23T13:59:43Z</time></trkpt>
	<trkpt lat="42.55284694" lon="1.85468905"><ele>1764.9</ele><time>2019-03-23T13:59:48Z</time></trkpt>
	<trkpt lat="42.55282300" lon="1.85463213"><ele>1764.6</ele><time>2019-03-23T13:59:52Z</time></trkpt>
	<trkpt lat="42.55279783" lon="1.85456778"><ele>1764.2</ele><time>2019-03-23T13:59:56Z</time></trkpt>
	<trkpt lat="42.55278492" lon="1.85450759"><ele>1763.7</ele><time>2019-03-23T14:00:00Z</time></trkpt>
	<trkpt lat="42.55278595" lon="1.85444672"><ele>1762.9</ele><time>2019-03-23T14:00:04Z</time></trkpt>
	<trkpt lat="42.55279031" lon="1.85438431"><ele>1762.8</ele><time>2019-03-23T14:00:08Z</time></trkpt>
	<trkpt lat="42.55276048" lon="1.85432488"><ele>1762.5</ele><time>2019-03-23T14:00:14Z</time></trkpt>
	<trkpt lat="42.55272679" lon="1.85427322"><ele>1762.4</ele><time>2019-03-23T14:00:19Z</time></trkpt>
	<trkpt lat="42.55269213" lon="1.85422231"><ele>1762.5</ele><time>2019-03-23T14:00:23Z</time></trkpt>
	<trkpt lat="42.55265543" lon="1.85417064"><ele>1762.4</ele><time>2019-03-23T14:00:27Z</time></trkpt>
	<trkpt lat="42.55262578" lon="1.85411593"><ele>1763.6</ele><time>2019-03-23T14:00:31Z</time></trkpt>
	<trkpt lat="42.55260498" lon="1.85405777"><ele>1763.9</ele><time>2019-03-23T14:00:36Z</time></trkpt>
	<trkpt lat="42.55258350" lon="1.85399011"><ele>1763.7</ele><time>2019-03-23T14:00:41Z</time></trkpt>
	<trkpt lat="42.55256697" lon="1.85392272"><ele>1762.5</ele><time>2019-03-23T14:00:46Z</time></trkpt>
	<trkpt lat="42.55256345" lon="1.85385962"><ele>1761.8</ele><time>2019-03-23T14:00:50Z</time></trkpt>
	<trkpt lat="42.55255808" lon="1.85379655"><ele>1761.6</ele><time>2019-03-23T14:00:54Z</time></trkpt>
	<trkpt lat="42.55256427" lon="1.85372553"><ele>1761.1</ele><time>2019-03-23T14:00:59Z</time></trkpt>
	<trkpt lat="42.55258888" lon="1.85366269"><ele>1760.8</ele><time>2019-03-23T14:01:04Z</time></trkpt>
	<trkpt lat="42.55260960" lon="1.85359555"><ele>1760.9</ele><time>2019-03-23T14:01:09Z</time></trkpt>
	<trkpt lat="42.55259194" lon="1.85353698"><ele>1762.2</ele><time>2019-03-23T14:01:14Z</time></trkpt>
	<trkpt lat="42.55255458" lon="1.85348411"><ele>1762.4</ele><time>2019-03-23T14:01:18Z</time></trkpt>
	<trkpt lat="42.55252276" lon="1.85342628"><ele>1762.4</ele><time>2019-03-23T14:01:22Z</time></trkpt>
	<trkpt lat="42.55249788" lon="1.85336864"><ele>1762.1</ele><time>2019-03-23T14:01:26Z</time></trkpt>
	<trkpt lat="42.55248602" lon="1.85330704"><ele>1761.5</ele><time>2019-03-23T14:01:30Z</time></trkpt>
	<trkpt lat="42.55248740" lon="1.85324038"><ele>1761.0</ele><time>2019-03-23T14:01:34Z</time></trkpt>
	<trkpt lat="42.55248502" lon="1.85317928"><ele>1760.3</ele><time>2019-03-23T14:01:38Z</time></trkpt>
	<trkpt lat="42.55249313" lon="1.85311757"><ele>1759.7</ele><time>2019-03-23T14:01:42Z</time></trkpt>
	<trkpt lat="42.55251195" lon="1.85305466"><ele>1759.0</ele><time>2019-03-23T14:01:46Z</time></trkpt>
	<trkpt lat="42.55252867" lon="1.85299141"><ele>1757.7</ele><time>2019-03-23T14:01:51Z</time></trkpt>
	<trkpt lat="42.55250928" lon="1.85293011"><ele>1756.5</ele><time>2019-03-23T14:01:56Z</time></trkpt>
	<trkpt lat="42.55247279" lon="1.85287545"><ele>1755.6</ele><time>2019-03-23T14:02:01Z</time></trkpt>
	<trkpt lat="42.55243512" lon="1.85283938"><ele>1755.7</ele><time>2019-03-23T14:02:05Z</time></trkpt>
	<trkpt lat="42.55240142" lon="1.85279437"><ele>1755.3</ele><time>2019-03-23T14:02:10Z</time></trkpt>
	<trkpt lat="42.55236835" lon="1.85273703"><ele>1755.7</ele><time>2019-03-23T14:02:16Z</time></trkpt>
	<trkpt lat="42.55235100" lon="1.85267350"><ele>1755.3</ele><time>2019-03-23T14:02:21Z</time></trkpt>
	<trkpt lat="42.55233924" lon="1.85260710"><ele>1754.8</ele><time>2019-03-23T14:02:25Z</time></trkpt>
	<trkpt lat="42.55231839" lon="1.85253453"><ele>1754.3</ele><time>2019-03-23T14:02:29Z</time></trkpt>
	<trkpt lat="42.55230497" lon="1.85247426"><ele>1753.7</ele><time>2019-03-23T14:02:33Z</time></trkpt>
	<trkpt lat="42.55229036" lon="1.85240459"><ele>1752.6</ele><time>2019-03-23T14:02:38Z</time></trkpt>
	<trkpt lat="42.55228088" lon="1.85233045"><ele>1751.3</ele><time>2019-03-23T14:02:43Z</time></trkpt>
	<trkpt lat="42.55226493" lon="1.85226913"><ele>1750.5</ele><time>2019-03-23T14:02:47Z</time></trkpt>
	<trkpt lat="42.55225911" lon="1.85219981"><ele>1750.1</ele><time>2019-03-23T14:02:52Z</time></trkpt>
	<trkpt lat="42.55225281" lon="1.85213114"><ele>1749.5</ele><time>2019-03-23T14:02:57Z</time></trkpt>
	<trkpt lat="42.55222952" lon="1.85206352"><ele>1748.9</ele><time>2019-03-23T14:03:02Z</time></trkpt>
	<trkpt lat="42.55221439" lon="1.85200407"><ele>1748.5</ele><time>2019-03-23T14:03:06Z</time></trkpt>
	<trkpt lat="42.55219683" lon="1.85194276"><ele>1748.0</ele><time>2019-03-23T14:03:10Z</time></trkpt>
	<trkpt lat="42.55219019" lon="1.85187492"><ele>1747.4</ele><time>2019-03-23T14:03:15Z</time></trkpt>
	<trkpt lat="42.55217251" lon="1.85180787"><ele>1747.4</ele><time>2019-03-23T14:03:19Z</time></trkpt>
	<trkpt lat="42.55216222" lon="1.85174860"><ele>1747.1</ele><time>2019-03-23T14:03:23Z</time></trkpt>
	<trkpt lat="42.55215198" lon="1.85168655"><ele>1747.0</ele><time>2019-03-23T14:03:27Z</time></trkpt>
	<trkpt lat="42.55213850" lon="1.85162432"><ele>1747.3</ele><time>2019-03-23T14:03:31Z</time></trkpt>
	<trkpt lat="42.55215509" lon="1.85156098"><ele>1748.1</ele><time>2019-03-23T14:03:37Z</time></trkpt>
	<trkpt lat="42.55217971" lon="1.85149900"><ele>1748.5</ele><time>2019-03-23T14:03:42Z</time></trkpt>
	<trkpt lat="42.55219466" lon="1.85143617"><ele>1748.3</ele><time>2019-03-23T14:03:47Z</time></trkpt>
	<trkpt lat="42.55220245" lon="1.85137466"><ele>1746.3</ele><time>2019-03-23T14:03:53Z</time></trkpt>
	<trkpt lat="42.55219682" lon="1.85130203"><ele>1744.6</ele><time>2019-03-23T14:03:59Z</time></trkpt>
	<trkpt lat="42.55217799" lon="1.85124180"><ele>1744.0</ele><time>2019-03-23T14:04:04Z</time></trkpt>
	<trkpt lat="42.55215195" lon="1.85117804"><ele>1743.7</ele><time>2019-03-23T14:04:10Z</time></trkpt>
	<trkpt lat="42.55212522" lon="1.85112303"><ele>1743.2</ele><time>2019-03-23T14:04:15Z</time></trkpt>
	<trkpt lat="42.55209989" lon="1.85106812"><ele>1742.8</ele><time>2019-03-23T14:04:20Z</time></trkpt>
	<trkpt lat="42.55206993" lon="1.85101295"><ele>1742.2</ele><time>2019-03-23T14:04:25Z</time></trkpt>
	<trkpt lat="42.55206039" lon="1.85095321"><ele>1742.1</ele><time>2019-03-23T14:04:31Z</time></trkpt>
	<trkpt lat="42.55204116" lon="1.85089635"><ele>1742.2</ele><time>2019-03-23T14:04:37Z</time></trkpt>
	<trkpt lat="42.55202814" lon="1.85083754"><ele>1742.2</ele><time>2019-03-23T14:04:42Z</time></trkpt>
	<trkpt lat="42.55201166" lon="1.85077809"><ele>1741.8</ele><time>2019-03-23T14:04:47Z</time></trkpt>
	<trkpt lat="42.55199074" lon="1.85071411"><ele>1741.5</ele><time>2019-03-23T14:04:52Z</time></trkpt>
	<trkpt lat="42.55198848" lon="1.85064289"><ele>1741.1</ele><time>2019-03-23T14:04:58Z</time></trkpt>
	<trkpt lat="42.55197974" lon="1.85057803"><ele>1740.6</ele><time>2019-03-23T14:05:03Z</time></trkpt>
	<trkpt lat="42.55197158" lon="1.85051805"><ele>1740.2</ele><time>2019-03-23T14:05:08Z</time></trkpt>
	<trkpt lat="42.55195268" lon="1.85045417"><ele>1740.5</ele><time>2019-03-23T14:05:13Z</time></trkpt>
	<trkpt lat="42.55194184" lon="1.85038593"><ele>1740.3</ele><time>2019-03-23T14:05:18Z</time></trkpt>
	<trkpt lat="42.55190808" lon="1.85032294"><ele>1739.5</ele><time>2019-03-23T14:05:24Z</time></trkpt>
	<trkpt lat="42.55187572" lon="1.85026867"><ele>1738.9</ele><time>2019-03-23T14:05:29Z</time></trkpt>
	<trkpt lat="42.55184878" lon="1.85021380"><ele>1738.2</ele><time>2019-03-23T14:05:35Z</time></trkpt>
	<trkpt lat="42.55182457" lon="1.85015405"><ele>1737.6</ele><time>2019-03-23T14:05:40Z</time></trkpt>
	<trkpt lat="42.55180957" lon="1.85008062"><ele>1737.3</ele><time>2019-03-23T14:05:45Z</time></trkpt>
	<trkpt lat="42.55180963" lon="1.85001566"><ele>1737.5</ele><time>2019-03-23T14:05:50Z</time></trkpt>
	<trkpt lat="42.55179062" lon="1.84995548"><ele>1737.0</ele><time>2019-03-23T14:05:56Z</time></trkpt>
	<trkpt lat="42.55176873" lon="1.84988927"><ele>1736.5</ele><time>2019-03-23T14:06:01Z</time></trkpt>
	<trkpt lat="42.55174731" lon="1.84982076"><ele>1735.8</ele><time>2019-03-23T14:06:06Z</time></trkpt>
	<trkpt lat="42.55172572" lon="1.84975866"><ele>1735.7</ele><time>2019-03-23T14:06:11Z</time></trkpt>
	<trkpt lat="42.55171432" lon="1.84969212"><ele>1735.5</ele><time>2019-03-23T14:06:16Z</time></trkpt>
	<trkpt lat="42.55170449" lon="1.84962579"><ele>1735.2</ele><time>2019-03-23T14:06:21Z</time></trkpt>
	<trkpt lat="42.55169487" lon="1.84956446"><ele>1734.6</ele><time>2019-03-23T14:06:25Z</time></trkpt>
	<trkpt lat="42.55168697" lon="1.84949631"><ele>1734.8</ele><time>2019-03-23T14:06:30Z</time></trkpt>
	<trkpt lat="42.55169205" lon="1.84943057"><ele>1734.7</ele><time>2019-03-23T14:06:36Z</time></trkpt>
	<trkpt lat="42.55168249" lon="1.84936086"><ele>1733.8</ele><time>2019-03-23T14:06:43Z</time></trkpt>
	<trkpt lat="42.55166351" lon="1.84929186"><ele>1732.9</ele><time>2019-03-23T14:06:49Z</time></trkpt>
	<trkpt lat="42.55166486" lon="1.84922457"><ele>1732.8</ele><time>2019-03-23T14:06:54Z</time></trkpt>
	<trkpt lat="42.55165788" lon="1.84916244"><ele>1732.4</ele><time>2019-03-23T14:06:59Z</time></trkpt>
	<trkpt lat="42.55164236" lon="1.84910357"><ele>1732.1</ele><time>2019-03-23T14:07:04Z</time></trkpt>
	<trkpt lat="42.55162213" lon="1.84904462"><ele>1731.4</ele><time>2019-03-23T14:07:09Z</time></trkpt>
	<trkpt lat="42.55161556" lon="1.84898153"><ele>1731.1</ele><time>2019-03-23T14:07:13Z</time></trkpt>
	<trkpt lat="42.55160094" lon="1.84891120"><ele>1730.4</ele><time>2019-03-23T14:07:18Z</time></trkpt>
	<trkpt lat="42.55158169" lon="1.84884185"><ele>1729.3</ele><time>2019-03-23T14:07:23Z</time></trkpt>
	<trkpt lat="42.55156681" lon="1.84877414"><ele>1728.7</ele><time>2019-03-23T14:07:29Z</time></trkpt>
	<trkpt lat="42.55156091" lon="1.84870510"><ele>1727.3</ele><time>2019-03-23T14:07:34Z</time></trkpt>
	<trkpt lat="42.55155067" lon="1.84863833"><ele>1726.0</ele><time>2019-03-23T14:07:39Z</time></trkpt>
	<trkpt lat="42.55153695" lon="1.84857663"><ele>1725.8</ele><time>2019-03-23T14:07:44Z</time></trkpt>
	<trkpt lat="42.55151097" lon="1.84851793"><ele>1725.4</ele><time>2019-03-23T14:07:49Z</time></trkpt>
	<trkpt lat="42.55148982" lon="1.84845367"><ele>1725.4</ele><time>2019-03-23T14:07:54Z</time></trkpt>
	<trkpt lat="42.55147013" lon="1.84838650"><ele>1725.3</ele><time>2019-03-23T14:07:59Z</time></trkpt>
	<trkpt lat="42.55144689" lon="1.84832046"><ele>1725.0</ele><time>2019-03-23T14:08:04Z</time></trkpt>
	<trkpt lat="42.55142251" lon="1.84826216"><ele>1724.1</ele><time>2019-03-23T14:08:09Z</time></trkpt>
	<trkpt lat="42.55140873" lon="1.84820055"><ele>1723.8</ele><time>2019-03-23T14:08:14Z</time></trkpt>
	<trkpt lat="42.55139329" lon="1.84813783"><ele>1723.6</ele><time>2019-03-23T14:08:20Z</time></trkpt>
	<trkpt lat="42.55137136" lon="1.84807131"><ele>1723.2</ele><time>2019-03-23T14:08:26Z</time></trkpt>
	<trkpt lat="42.55134429" lon="1.84800994"><ele>1722.3</ele><time>2019-03-23T14:08:32Z</time></trkpt>
	<trkpt lat="42.55132145" lon="1.84795180"><ele>1722.0</ele><time>2019-03-23T14:08:37Z</time></trkpt>
	<trkpt lat="42.55130142" lon="1.84788997"><ele>1722.0</ele><time>2019-03-23T14:08:41Z</time></trkpt>
	<trkpt lat="42.55127911" lon="1.84783641"><ele>1721.9</ele><time>2019-03-23T14:08:45Z</time></trkpt>
	<trkpt lat="42.55125887" lon="1.84777198"><ele>1721.7</ele><time>2019-03-23T14:08:50Z</time></trkpt>
	<trkpt lat="42.55123877" lon="1.84770636"><ele>1721.5</ele><time>2019-03-23T14:08:55Z</time></trkpt>
	<trkpt lat="42.55122256" lon="1.84763602"><ele>1721.6</ele><time>2019-03-23T14:09:01Z</time></trkpt>
	<trkpt lat="42.55120098" lon="1.84758004"><ele>1720.9</ele><time>2019-03-23T14:09:06Z</time></trkpt>
	<trkpt lat="42.55118874" lon="1.84751982"><ele>1720.6</ele><time>2019-03-23T14:09:11Z</time></trkpt>
	<trkpt lat="42.55116692" lon="1.84746536"><ele>1720.4</ele><time>2019-03-23T14:09:16Z</time></trkpt>
	<trkpt lat="42.55114649" lon="1.84740364"><ele>1720.3</ele><time>2019-03-23T14:09:21Z</time></trkpt>
	<trkpt lat="42.55112892" lon="1.84734499"><ele>1720.2</ele><time>2019-03-23T14:09:25Z</time></trkpt>
	<trkpt lat="42.55110943" lon="1.84728522"><ele>1720.4</ele><time>2019-03-23T14:09:29Z</time></trkpt>
	<trkpt lat="42.55109648" lon="1.84722479"><ele>1720.7</ele><time>2019-03-23T14:09:34Z</time></trkpt>
	<trkpt lat="42.55109105" lon="1.84715669"><ele>1720.9</ele><time>2019-03-23T14:09:41Z</time></trkpt>
	<trkpt lat="42.55106860" lon="1.84709598"><ele>1719.9</ele><time>2019-03-23T14:09:47Z</time></trkpt>
	<trkpt lat="42.55105531" lon="1.84703549"><ele>1719.7</ele><time>2019-03-23T14:09:52Z</time></trkpt>
	<trkpt lat="42.55102881" lon="1.84698151"><ele>1718.8</ele><time>2019-03-23T14:09:58Z</time></trkpt>
	<trkpt lat="42.55099146" lon="1.84693577"><ele>1718.2</ele><time>2019-03-23T14:10:05Z</time></trkpt>
	<trkpt lat="42.55096417" lon="1.84688499"><ele>1718.4</ele><time>2019-03-23T14:10:10Z</time></trkpt>
	<trkpt lat="42.55093293" lon="1.84682461"><ele>1718.3</ele><time>2019-03-23T14:10:14Z</time></trkpt>
	<trkpt lat="42.55091202" lon="1.84676808"><ele>1718.2</ele><time>2019-03-23T14:10:18Z</time></trkpt>
	<trkpt lat="42.55089699" lon="1.84669997"><ele>1718.0</ele><time>2019-03-23T14:10:23Z</time></trkpt>
	<trkpt lat="42.55087282" lon="1.84663682"><ele>1717.4</ele><time>2019-03-23T14:10:29Z</time></trkpt>
	<trkpt lat="42.55085130" lon="1.84656879"><ele>1716.8</ele><time>2019-03-23T14:10:35Z</time></trkpt>
	<trkpt lat="42.55084338" lon="1.84650470"><ele>1716.9</ele><time>2019-03-23T14:10:41Z</time></trkpt>
	<trkpt lat="42.55081813" lon="1.84644662"><ele>1716.9</ele><time>2019-03-23T14:10:47Z</time></trkpt>
	<trkpt lat="42.55078716" lon="1.84639276"><ele>1716.4</ele><time>2019-03-23T14:10:52Z</time></trkpt>
	<trkpt lat="42.55075915" lon="1.84633040"><ele>1716.1</ele><time>2019-03-23T14:10:57Z</time></trkpt>
	<trkpt lat="42.55072879" lon="1.84628191"><ele>1715.4</ele><time>2019-03-23T14:11:02Z</time></trkpt>
	<trkpt lat="42.55070235" lon="1.84622435"><ele>1715.0</ele><time>2019-03-23T14:11:07Z</time></trkpt>
	<trkpt lat="42.55068543" lon="1.84615668"><ele>1714.5</ele><time>2019-03-23T14:11:13Z</time></trkpt>
	<trkpt lat="42.55066630" lon="1.84609881"><ele>1714.0</ele><time>2019-03-23T14:11:18Z</time></trkpt>
	<trkpt lat="42.55065449" lon="1.84603545"><ele>1712.8</ele><time>2019-03-23T14:11:23Z</time></trkpt>
	<trkpt lat="42.55063502" lon="1.84597745"><ele>1711.5</ele><time>2019-03-23T14:11:28Z</time></trkpt>
	<trkpt lat="42.55062720" lon="1.84591253"><ele>1711.1</ele><time>2019-03-23T14:11:33Z</time></trkpt>
	<trkpt lat="42.55062876" lon="1.84583758"><ele>1710.8</ele><time>2019-03-23T14:11:38Z</time></trkpt>
	<trkpt lat="42.55062894" lon="1.84577000"><ele>1710.8</ele><time>2019-03-23T14:11:43Z</time></trkpt>
	<trkpt lat="42.55062788" lon="1.84569636"><ele>1710.6</ele><time>2019-03-23T14:11:48Z</time></trkpt>
	<trkpt lat="42.55061966" lon="1.84562101"><ele>1710.1</ele><time>2019-03-23T14:11:53Z</time></trkpt>
	<trkpt lat="42.55061319" lon="1.84554773"><ele>1709.7</ele><time>2019-03-23T14:11:58Z</time></trkpt>
	<trkpt lat="42.55061310" lon="1.84548558"><ele>1709.5</ele><time>2019-03-23T14:12:03Z</time></trkpt>
	<trkpt lat="42.55061119" lon="1.84542005"><ele>1709.3</ele><time>2019-03-23T14:12:08Z</time></trkpt>
	<trkpt lat="42.55061265" lon="1.84535449"><ele>1709.3</ele><time>2019-03-23T14:12:13Z</time></trkpt>
	<trkpt lat="42.55061636" lon="1.84528917"><ele>1709.3</ele><time>2019-03-23T14:12:18Z</time></trkpt>
	<trkpt lat="42.55060724" lon="1.84522504"><ele>1709.2</ele><time>2019-03-23T14:12:23Z</time></trkpt>
	<trkpt lat="42.55060493" lon="1.84515413"><ele>1709.0</ele><time>2019-03-23T14:12:28Z</time></trkpt>
	<trkpt lat="42.55061605" lon="1.84508445"><ele>1708.2</ele><time>2019-03-23T14:12:33Z</time></trkpt>
	<trkpt lat="42.55061870" lon="1.84501193"><ele>1707.9</ele><time>2019-03-23T14:12:38Z</time></trkpt>
	<trkpt lat="42.55061696" lon="1.84493932"><ele>1707.7</ele><time>2019-03-23T14:12:43Z</time></trkpt>
	<trkpt lat="42.55060763" lon="1.84487590"><ele>1707.4</ele><time>2019-03-23T14:12:47Z</time></trkpt>
	<trkpt lat="42.55059537" lon="1.84480924"><ele>1706.5</ele><time>2019-03-23T14:12:52Z</time></trkpt>
	<trkpt lat="42.55057885" lon="1.84474771"><ele>1705.5</ele><time>2019-03-23T14:12:56Z</time></trkpt>
	<trkpt lat="42.55056054" lon="1.84468115"><ele>1705.0</ele><time>2019-03-23T14:13:00Z</time></trkpt>
	<trkpt lat="42.55055167" lon="1.84460963"><ele>1704.4</ele><time>2019-03-23T14:13:05Z</time></trkpt>
	<trkpt lat="42.55054556" lon="1.84454512"><ele>1704.3</ele><time>2019-03-23T14:13:10Z</time></trkpt>
	<trkpt lat="42.55052883" lon="1.84447691"><ele>1704.0</ele><time>2019-03-23T14:13:15Z</time></trkpt>
	<trkpt lat="42.55051402" lon="1.84441179"><ele>1703.8</ele><time>2019-03-23T14:13:20Z</time></trkpt>
	<trkpt lat="42.55050137" lon="1.84434080"><ele>1703.5</ele><time>2019-03-23T14:13:26Z</time></trkpt>
	<trkpt lat="42.55048095" lon="1.84428085"><ele>1703.2</ele><time>2019-03-23T14:13:31Z</time></trkpt>
	<trkpt lat="42.55046595" lon="1.84421786"><ele>1702.8</ele><time>2019-03-23T14:13:36Z</time></trkpt>
	<trkpt lat="42.55045650" lon="1.84415280"><ele>1702.6</ele><time>2019-03-23T14:13:41Z</time></trkpt>
	<trkpt lat="42.55044861" lon="1.84409195"><ele>1702.2</ele><time>2019-03-23T14:13:45Z</time></trkpt>
	<trkpt lat="42.55045555" lon="1.84402908"><ele>1702.0</ele><time>2019-03-23T14:13:50Z</time></trkpt>
	<trkpt lat="42.55045203" lon="1.84396529"><ele>1701.7</ele><time>2019-03-23T14:13:55Z</time></trkpt>
	<trkpt lat="42.55044085" lon="1.84389528"><ele>1701.8</ele><time>2019-03-23T14:14:00Z</time></trkpt>
	<trkpt lat="42.55042785" lon="1.84382687"><ele>1701.7</ele><time>2019-03-23T14:14:05Z</time></trkpt>
	<trkpt lat="42.55040858" lon="1.84375939"><ele>1701.2</ele><time>2019-03-23T14:14:10Z</time></trkpt>
	<trkpt lat="42.55039468" lon="1.84369778"><ele>1700.6</ele><time>2019-03-23T14:14:15Z</time></trkpt>
	<trkpt lat="42.55038603" lon="1.84363057"><ele>1700.7</ele><time>2019-03-23T14:14:20Z</time></trkpt>
	<trkpt lat="42.55038840" lon="1.84356387"><ele>1700.9</ele><time>2019-03-23T14:14:25Z</time></trkpt>
	<trkpt lat="42.55039120" lon="1.84349838"><ele>1700.8</ele><time>2019-03-23T14:14:30Z</time></trkpt>
	<trkpt lat="42.55038881" lon="1.84342918"><ele>1700.5</ele><time>2019-03-23T14:14:35Z</time></trkpt>
	<trkpt lat="42.55038172" lon="1.84335935"><ele>1699.5</ele><time>2019-03-23T14:14:40Z</time></trkpt>
	<trkpt lat="42.55038092" lon="1.84328647"><ele>1699.4</ele><time>2019-03-23T14:14:45Z</time></trkpt>
	<trkpt lat="42.55037368" lon="1.84322216"><ele>1699.7</ele><time>2019-03-23T14:14:49Z</time></trkpt>
	<trkpt lat="42.55037030" lon="1.84315832"><ele>1699.7</ele><time>2019-03-23T14:14:53Z</time></trkpt>
	<trkpt lat="42.55036020" lon="1.84309067"><ele>1699.2</ele><time>2019-03-23T14:14:58Z</time></trkpt>
	<trkpt lat="42.55035313" lon="1.84302204"><ele>1698.8</ele><time>2019-03-23T14:15:03Z</time></trkpt>
	<trkpt lat="42.55034114" lon="1.84296244"><ele>1698.5</ele><time>2019-03-23T14:15:07Z</time></trkpt>
	<trkpt lat="42.55034332" lon="1.84289817"><ele>1698.1</ele><time>2019-03-23T14:15:12Z</time></trkpt>
	<trkpt lat="42.55033160" lon="1.84282616"><ele>1696.9</ele><time>2019-03-23T14:15:17Z</time></trkpt>
	<trkpt lat="42.55032285" lon="1.84276414"><ele>1696.1</ele><time>2019-03-23T14:15:22Z</time></trkpt>
	<trkpt lat="42.55030826" lon="1.84270034"><ele>1695.9</ele><time>2019-03-23T14:15:29Z</time></trkpt>
	<trkpt lat="42.55028676" lon="1.84263454"><ele>1695.7</ele><time>2019-03-23T14:15:35Z</time></trkpt>
	<trkpt lat="42.55027089" lon="1.84256727"><ele>1693.8</ele><time>2019-03-23T14:15:40Z</time></trkpt>
	<trkpt lat="42.55024291" lon="1.84250541"><ele>1693.6</ele><time>2019-03-23T14:15:46Z</time></trkpt>
	<trkpt lat="42.55021484" lon="1.84245423"><ele>1693.6</ele><time>2019-03-23T14:15:52Z</time></trkpt>
	<trkpt lat="42.55019115" lon="1.84239199"><ele>1693.6</ele><time>2019-03-23T14:15:58Z</time></trkpt>
	<trkpt lat="42.55016215" lon="1.84234181"><ele>1693.3</ele><time>2019-03-23T14:16:03Z</time></trkpt>
	<trkpt lat="42.55013456" lon="1.84228266"><ele>1693.2</ele><time>2019-03-23T14:16:07Z</time></trkpt>
	<trkpt lat="42.55011402" lon="1.84221515"><ele>1693.0</ele><time>2019-03-23T14:16:11Z</time></trkpt>
	<trkpt lat="42.55009347" lon="1.84214994"><ele>1692.7</ele><time>2019-03-23T14:16:16Z</time></trkpt>
	<trkpt lat="42.55005709" lon="1.84209467"><ele>1692.4</ele><time>2019-03-23T14:16:21Z</time></trkpt>
	<trkpt lat="42.55001332" lon="1.84204694"><ele>1692.1</ele><time>2019-03-23T14:16:26Z</time></trkpt>
	<trkpt lat="42.54997445" lon="1.84200832"><ele>1691.5</ele><time>2019-03-23T14:16:30Z</time></trkpt>
	<trkpt lat="42.54993738" lon="1.84197015"><ele>1690.8</ele><time>2019-03-23T14:16:34Z</time></trkpt>
	<trkpt lat="42.54990322" lon="1.84192472"><ele>1690.3</ele><time>2019-03-23T14:16:38Z</time></trkpt>
	<trkpt lat="42.54987207" lon="1.84187202"><ele>1689.9</ele><time>2019-03-23T14:16:42Z</time></trkpt>
	<trkpt lat="42.54984843" lon="1.84181740"><ele>1689.6</ele><time>2019-03-23T14:16:46Z</time></trkpt>
	<trkpt lat="42.54983255" lon="1.84174734"><ele>1688.9</ele><time>2019-03-23T14:16:51Z</time></trkpt>
	<trkpt lat="42.54982250" lon="1.84168419"><ele>1689.1</ele><time>2019-03-23T14:16:58Z</time></trkpt>
	<trkpt lat="42.54981464" lon="1.84161878"><ele>1689.1</ele><time>2019-03-23T14:17:05Z</time></trkpt>
	<trkpt lat="42.54981479" lon="1.84155011"><ele>1689.2</ele><time>2019-03-23T14:17:10Z</time></trkpt>
	<trkpt lat="42.54982340" lon="1.84147630"><ele>1688.9</ele><time>2019-03-23T14:17:15Z</time></trkpt>
	<trkpt lat="42.54982353" lon="1.84141481"><ele>1688.6</ele><time>2019-03-23T14:17:19Z</time></trkpt>
	<trkpt lat="42.54982869" lon="1.84135049"><ele>1688.4</ele><time>2019-03-23T14:17:23Z</time></trkpt>
	<trkpt lat="42.54983067" lon="1.84128692"><ele>1688.0</ele><time>2019-03-23T14:17:27Z</time></trkpt>
	<trkpt lat="42.54983144" lon="1.84121025"><ele>1687.6</ele><time>2019-03-23T14:17:32Z</time></trkpt>
	<trkpt lat="42.54983651" lon="1.84114633"><ele>1687.4</ele><time>2019-03-23T14:17:36Z</time></trkpt>
	<trkpt lat="42.54984349" lon="1.84108011"><ele>1687.1</ele><time>2019-03-23T14:17:40Z</time></trkpt>
	<trkpt lat="42.54984922" lon="1.84101499"><ele>1686.8</ele><time>2019-03-23T14:17:44Z</time></trkpt>
	<trkpt lat="42.54985342" lon="1.84094988"><ele>1686.4</ele><time>2019-03-23T14:17:48Z</time></trkpt>
	<trkpt lat="42.54985643" lon="1.84088608"><ele>1686.0</ele><time>2019-03-23T14:17:52Z</time></trkpt>
	<trkpt lat="42.54985911" lon="1.84081535"><ele>1685.8</ele><time>2019-03-23T14:17:57Z</time></trkpt>
	<trkpt lat="42.54985784" lon="1.84075096"><ele>1685.5</ele><time>2019-03-23T14:18:01Z</time></trkpt>
	<trkpt lat="42.54985300" lon="1.84068569"><ele>1685.3</ele><time>2019-03-23T14:18:05Z</time></trkpt>
	<trkpt lat="42.54984136" lon="1.84062242"><ele>1684.8</ele><time>2019-03-23T14:18:09Z</time></trkpt>
	<trkpt lat="42.54983046" lon="1.84055514"><ele>1684.4</ele><time>2019-03-23T14:18:13Z</time></trkpt>
	<trkpt lat="42.54982507" lon="1.84048754"><ele>1684.1</ele><time>2019-03-23T14:18:17Z</time></trkpt>
	<trkpt lat="42.54982098" lon="1.84041240"><ele>1683.9</ele><time>2019-03-23T14:18:22Z</time></trkpt>
	<trkpt lat="42.54981202" lon="1.84035145"><ele>1683.7</ele><time>2019-03-23T14:18:26Z</time></trkpt>
	<trkpt lat="42.54980201" lon="1.84028598"><ele>1683.2</ele><time>2019-03-23T14:18:30Z</time></trkpt>
	<trkpt lat="42.54979319" lon="1.84022367"><ele>1682.9</ele><time>2019-03-23T14:18:34Z</time></trkpt>
	<trkpt lat="42.54978239" lon="1.84014898"><ele>1682.8</ele><time>2019-03-23T14:18:39Z</time></trkpt>
	<trkpt lat="42.54977403" lon="1.84008683"><ele>1682.6</ele><time>2019-03-23T14:18:43Z</time></trkpt>
	<trkpt lat="42.54977587" lon="1.84002517"><ele>1682.3</ele><time>2019-03-23T14:18:47Z</time></trkpt>
	<trkpt lat="42.54977758" lon="1.83996062"><ele>1681.9</ele><time>2019-03-23T14:18:51Z</time></trkpt>
	<trkpt lat="42.54977982" lon="1.83989762"><ele>1681.7</ele><time>2019-03-23T14:18:55Z</time></trkpt>
	<trkpt lat="42.54977805" lon="1.83983472"><ele>1681.4</ele><time>2019-03-23T14:18:59Z</time></trkpt>
	<trkpt lat="42.54977562" lon="1.83977035"><ele>1680.9</ele><time>2019-03-23T14:19:03Z</time></trkpt>
	<trkpt lat="42.54977387" lon="1.83970818"><ele>1680.2</ele><time>2019-03-23T14:19:07Z</time></trkpt>
	<trkpt lat="42.54977548" lon="1.83964379"><ele>1679.5</ele><time>2019-03-23T14:19:11Z</time></trkpt>
	<trkpt lat="42.54977313" lon="1.83957288"><ele>1679.0</ele><time>2019-03-23T14:19:16Z</time></trkpt>
	<trkpt lat="42.54976759" lon="1.83950960"><ele>1678.7</ele><time>2019-03-23T14:19:20Z</time></trkpt>
	<trkpt lat="42.54976364" lon="1.83944698"><ele>1678.6</ele><time>2019-03-23T14:19:24Z</time></trkpt>
	<trkpt lat="42.54975302" lon="1.83938383"><ele>1678.2</ele><time>2019-03-23T14:19:28Z</time></trkpt>
	<trkpt lat="42.54974857" lon="1.83931991"><ele>1677.9</ele><time>2019-03-23T14:19:32Z</time></trkpt>
	<trkpt lat="42.54974412" lon="1.83925778"><ele>1677.6</ele><time>2019-03-23T14:19:36Z</time></trkpt>
	<trkpt lat="42.54974191" lon="1.83919658"><ele>1677.4</ele><time>2019-03-23T14:19:40Z</time></trkpt>
	<trkpt lat="42.54973721" lon="1.83912071"><ele>1677.1</ele><time>2019-03-23T14:19:45Z</time></trkpt>
	<trkpt lat="42.54973680" lon="1.83905696"><ele>1676.6</ele><time>2019-03-23T14:19:49Z</time></trkpt>
	<trkpt lat="42.54972950" lon="1.83899420"><ele>1676.1</ele><time>2019-03-23T14:19:53Z</time></trkpt>
	<trkpt lat="42.54972415" lon="1.83891799"><ele>1675.9</ele><time>2019-03-23T14:19:58Z</time></trkpt>
	<trkpt lat="42.54971865" lon="1.83885419"><ele>1675.6</ele><time>2019-03-23T14:20:02Z</time></trkpt>
	<trkpt lat="42.54971443" lon="1.83879201"><ele>1675.4</ele><time>2019-03-23T14:20:06Z</time></trkpt>
	<trkpt lat="42.54970724" lon="1.83872994"><ele>1675.0</ele><time>2019-03-23T14:20:10Z</time></trkpt>
	<trkpt lat="42.54969879" lon="1.83866833"><ele>1675.0</ele><time>2019-03-23T14:20:14Z</time></trkpt>
	<trkpt lat="42.54969315" lon="1.83859749"><ele>1674.8</ele><time>2019-03-23T14:20:19Z</time></trkpt>
	<trkpt lat="42.54968837" lon="1.83852598"><ele>1674.5</ele><time>2019-03-23T14:20:24Z</time></trkpt>
	<trkpt lat="42.54968520" lon="1.83845213"><ele>1674.1</ele><time>2019-03-23T14:20:29Z</time></trkpt>
	<trkpt lat="42.54967722" lon="1.83837797"><ele>1673.9</ele><time>2019-03-23T14:20:34Z</time></trkpt>
	<trkpt lat="42.54967562" lon="1.83830898"><ele>1673.7</ele><time>2019-03-23T14:20:39Z</time></trkpt>
	<trkpt lat="42.54967701" lon="1.83824251"><ele>1673.4</ele><time>2019-03-23T14:20:44Z</time></trkpt>
	<trkpt lat="42.54967602" lon="1.83816976"><ele>1673.1</ele><time>2019-03-23T14:20:49Z</time></trkpt>
	<trkpt lat="42.54967569" lon="1.83810182"><ele>1672.7</ele><time>2019-03-23T14:20:54Z</time></trkpt>
	<trkpt lat="42.54967612" lon="1.83803241"><ele>1672.2</ele><time>2019-03-23T14:20:59Z</time></trkpt>
	<trkpt lat="42.54967060" lon="1.83796553"><ele>1671.8</ele><time>2019-03-23T14:21:04Z</time></trkpt>
	<trkpt lat="42.54966435" lon="1.83789222"><ele>1671.5</ele><time>2019-03-23T14:21:09Z</time></trkpt>
	<trkpt lat="42.54965695" lon="1.83782230"><ele>1671.3</ele><time>2019-03-23T14:21:14Z</time></trkpt>
	<trkpt lat="42.54965278" lon="1.83775128"><ele>1671.1</ele><time>2019-03-23T14:21:19Z</time></trkpt>
	<trkpt lat="42.54965048" lon="1.83768541"><ele>1670.9</ele><time>2019-03-23T14:21:24Z</time></trkpt>
	<trkpt lat="42.54965010" lon="1.83761708"><ele>1670.6</ele><time>2019-03-23T14:21:29Z</time></trkpt>
	<trkpt lat="42.54964726" lon="1.83755325"><ele>1670.2</ele><time>2019-03-23T14:21:35Z</time></trkpt>
	<trkpt lat="42.54964618" lon="1.83748866"><ele>1669.7</ele><time>2019-03-23T14:21:41Z</time></trkpt>
	<trkpt lat="42.54964209" lon="1.83742613"><ele>1669.3</ele><time>2019-03-23T14:21:46Z</time></trkpt>
	<trkpt lat="42.54963872" lon="1.83735700"><ele>1669.0</ele><time>2019-03-23T14:21:51Z</time></trkpt>
	<trkpt lat="42.54963696" lon="1.83729078"><ele>1668.7</ele><time>2019-03-23T14:21:56Z</time></trkpt>
	<trkpt lat="42.54963750" lon="1.83721984"><ele>1668.3</ele><time>2019-03-23T14:22:01Z</time></trkpt>
	<trkpt lat="42.54963226" lon="1.83714791"><ele>1668.0</ele><time>2019-03-23T14:22:06Z</time></trkpt>
	<trkpt lat="42.54962542" lon="1.83708160"><ele>1668.1</ele><time>2019-03-23T14:22:11Z</time></trkpt>
	<trkpt lat="42.54962329" lon="1.83701428"><ele>1667.9</ele><time>2019-03-23T14:22:16Z</time></trkpt>
	<trkpt lat="42.54961958" lon="1.83695273"><ele>1667.8</ele><time>2019-03-23T14:22:20Z</time></trkpt>
	<trkpt lat="42.54961840" lon="1.83689133"><ele>1667.6</ele><time>2019-03-23T14:22:24Z</time></trkpt>
	<trkpt lat="42.54961368" lon="1.83681985"><ele>1667.3</ele><time>2019-03-23T14:22:29Z</time></trkpt>
	<trkpt lat="42.54961147" lon="1.83674872"><ele>1667.1</ele><time>2019-03-23T14:22:34Z</time></trkpt>
	<trkpt lat="42.54961144" lon="1.83668366"><ele>1667.0</ele><time>2019-03-23T14:22:40Z</time></trkpt>
	<trkpt lat="42.54961457" lon="1.83661778"><ele>1666.0</ele><time>2019-03-23T14:22:50Z</time></trkpt>
	<trkpt lat="42.54961264" lon="1.83655611"><ele>1665.4</ele><time>2019-03-23T14:22:55Z</time></trkpt>
	<trkpt lat="42.54961238" lon="1.83648675"><ele>1664.9</ele><time>2019-03-23T14:23:01Z</time></trkpt>
	<trkpt lat="42.54960747" lon="1.83641206"><ele>1664.9</ele><time>2019-03-23T14:23:07Z</time></trkpt>
	<trkpt lat="42.54960490" lon="1.83633924"><ele>1664.7</ele><time>2019-03-23T14:23:12Z</time></trkpt>
	<trkpt lat="42.54960848" lon="1.83626757"><ele>1664.6</ele><time>2019-03-23T14:23:17Z</time></trkpt>
	<trkpt lat="42.54961881" lon="1.83619638"><ele>1664.5</ele><time>2019-03-23T14:23:22Z</time></trkpt>
	<trkpt lat="42.54963142" lon="1.83612460"><ele>1664.5</ele><time>2019-03-23T14:23:27Z</time></trkpt>
	<trkpt lat="42.54963357" lon="1.83605443"><ele>1664.5</ele><time>2019-03-23T14:23:32Z</time></trkpt>
	<trkpt lat="42.54963682" lon="1.83598004"><ele>1664.2</ele><time>2019-03-23T14:23:37Z</time></trkpt>
	<trkpt lat="42.54963813" lon="1.83590465"><ele>1664.0</ele><time>2019-03-23T14:23:42Z</time></trkpt>
	<trkpt lat="42.54964134" lon="1.83583355"><ele>1663.8</ele><time>2019-03-23T14:23:47Z</time></trkpt>
	<trkpt lat="42.54965036" lon="1.83576351"><ele>1663.6</ele><time>2019-03-23T14:23:52Z</time></trkpt>
	<trkpt lat="42.54965644" lon="1.83569482"><ele>1663.3</ele><time>2019-03-23T14:23:57Z</time></trkpt>
	<trkpt lat="42.54965976" lon="1.83562208"><ele>1662.9</ele><time>2019-03-23T14:24:02Z</time></trkpt>
	<trkpt lat="42.54966452" lon="1.83556017"><ele>1662.8</ele><time>2019-03-23T14:24:06Z</time></trkpt>
	<trkpt lat="42.54966806" lon="1.83549869"><ele>1662.6</ele><time>2019-03-23T14:24:10Z</time></trkpt>
	<trkpt lat="42.54967233" lon="1.83543379"><ele>1662.3</ele><time>2019-03-23T14:24:14Z</time></trkpt>
	<trkpt lat="42.54967996" lon="1.83537093"><ele>1661.9</ele><time>2019-03-23T14:24:18Z</time></trkpt>
	<trkpt lat="42.54968527" lon="1.83529557"><ele>1661.7</ele><time>2019-03-23T14:24:23Z</time></trkpt>
	<trkpt lat="42.54969179" lon="1.83522343"><ele>1661.3</ele><time>2019-03-23T14:24:28Z</time></trkpt>
	<trkpt lat="42.54969881" lon="1.83514800"><ele>1660.7</ele><time>2019-03-23T14:24:33Z</time></trkpt>
	<trkpt lat="42.54970705" lon="1.83508670"><ele>1660.0</ele><time>2019-03-23T14:24:37Z</time></trkpt>
	<trkpt lat="42.54971234" lon="1.83501957"><ele>1659.4</ele><time>2019-03-23T14:24:42Z</time></trkpt>
	<trkpt lat="42.54971477" lon="1.83494418"><ele>1659.8</ele><time>2019-03-23T14:24:47Z</time></trkpt>
	<trkpt lat="42.54971136" lon="1.83487657"><ele>1659.5</ele><time>2019-03-23T14:24:51Z</time></trkpt>
	<trkpt lat="42.54970713" lon="1.83481448"><ele>1659.5</ele><time>2019-03-23T14:24:56Z</time></trkpt>
	<trkpt lat="42.54970713" lon="1.83475091"><ele>1659.4</ele><time>2019-03-23T14:25:00Z</time></trkpt>
	<trkpt lat="42.54970192" lon="1.83468205"><ele>1659.5</ele><time>2019-03-23T14:25:05Z</time></trkpt>
	<trkpt lat="42.54969412" lon="1.83461400"><ele>1658.8</ele><time>2019-03-23T14:25:10Z</time></trkpt>
	<trkpt lat="42.54968998" lon="1.83454583"><ele>1658.3</ele><time>2019-03-23T14:25:15Z</time></trkpt>
	<trkpt lat="42.54968294" lon="1.83448234"><ele>1658.0</ele><time>2019-03-23T14:25:19Z</time></trkpt>
	<trkpt lat="42.54967546" lon="1.83442142"><ele>1657.9</ele><time>2019-03-23T14:25:23Z</time></trkpt>
	<trkpt lat="42.54967465" lon="1.83434910"><ele>1657.6</ele><time>2019-03-23T14:25:28Z</time></trkpt>
	<trkpt lat="42.54967620" lon="1.83427206"><ele>1657.4</ele><time>2019-03-23T14:25:33Z</time></trkpt>
	<trkpt lat="42.54967618" lon="1.83419545"><ele>1657.2</ele><time>2019-03-23T14:25:38Z</time></trkpt>
	<trkpt lat="42.54967525" lon="1.83412952"><ele>1657.0</ele><time>2019-03-23T14:25:42Z</time></trkpt>
	<trkpt lat="42.54967089" lon="1.83406832"><ele>1656.9</ele><time>2019-03-23T14:25:46Z</time></trkpt>
	<trkpt lat="42.54966934" lon="1.83399465"><ele>1656.6</ele><time>2019-03-23T14:25:51Z</time></trkpt>
	<trkpt lat="42.54967003" lon="1.83391960"><ele>1656.4</ele><time>2019-03-23T14:25:56Z</time></trkpt>
	<trkpt lat="42.54967065" lon="1.83385659"><ele>1656.2</ele><time>2019-03-23T14:26:00Z</time></trkpt>
	<trkpt lat="42.54966956" lon="1.83379514"><ele>1656.1</ele><time>2019-03-23T14:26:04Z</time></trkpt>
	<trkpt lat="42.54966713" lon="1.83373126"><ele>1655.8</ele><time>2019-03-23T14:26:08Z</time></trkpt>
	<trkpt lat="42.54966764" lon="1.83366849"><ele>1655.5</ele><time>2019-03-23T14:26:12Z</time></trkpt>
	<trkpt lat="42.54966865" lon="1.83359858"><ele>1655.2</ele><time>2019-03-23T14:26:17Z</time></trkpt>
	<trkpt lat="42.54966818" lon="1.83352778"><ele>1655.0</ele><time>2019-03-23T14:26:22Z</time></trkpt>
	<trkpt lat="42.54966647" lon="1.83346047"><ele>1654.6</ele><time>2019-03-23T14:26:27Z</time></trkpt>
	<trkpt lat="42.54966413" lon="1.83339032"><ele>1654.4</ele><time>2019-03-23T14:26:32Z</time></trkpt>
	<trkpt lat="42.54966693" lon="1.83331490"><ele>1654.3</ele><time>2019-03-23T14:26:37Z</time></trkpt>
	<trkpt lat="42.54967098" lon="1.83324092"><ele>1654.2</ele><time>2019-03-23T14:26:42Z</time></trkpt>
	<trkpt lat="42.54966914" lon="1.83317358"><ele>1654.0</ele><time>2019-03-23T14:26:47Z</time></trkpt>
	<trkpt lat="42.54967077" lon="1.83310078"><ele>1654.0</ele><time>2019-03-23T14:26:52Z</time></trkpt>
	<trkpt lat="42.54966963" lon="1.83302811"><ele>1653.9</ele><time>2019-03-23T14:26:57Z</time></trkpt>
	<trkpt lat="42.54967785" lon="1.83295832"><ele>1653.9</ele><time>2019-03-23T14:27:02Z</time></trkpt>
	<trkpt lat="42.54969226" lon="1.83289475"><ele>1653.7</ele><time>2019-03-23T14:27:07Z</time></trkpt>
	<trkpt lat="42.54970365" lon="1.83282176"><ele>1653.5</ele><time>2019-03-23T14:27:13Z</time></trkpt>
	<trkpt lat="42.54971672" lon="1.83275079"><ele>1653.4</ele><time>2019-03-23T14:27:18Z</time></trkpt>
	<trkpt lat="42.54972470" lon="1.83267711"><ele>1653.2</ele><time>2019-03-23T14:27:23Z</time></trkpt>
	<trkpt lat="42.54973456" lon="1.83260278"><ele>1652.9</ele><time>2019-03-23T14:27:28Z</time></trkpt>
	<trkpt lat="42.54973571" lon="1.83252899"><ele>1652.7</ele><time>2019-03-23T14:27:33Z</time></trkpt>
	<trkpt lat="42.54971703" lon="1.83246573"><ele>1652.3</ele><time>2019-03-23T14:27:40Z</time></trkpt>
	<trkpt lat="42.54969011" lon="1.83240290"><ele>1651.8</ele><time>2019-03-23T14:27:45Z</time></trkpt>
	<trkpt lat="42.54965817" lon="1.83234600"><ele>1651.1</ele><time>2019-03-23T14:27:50Z</time></trkpt>
	<trkpt lat="42.54961335" lon="1.83230787"><ele>1650.8</ele><time>2019-03-23T14:27:55Z</time></trkpt>
	<trkpt lat="42.54956958" lon="1.83228228"><ele>1650.6</ele><time>2019-03-23T14:27:59Z</time></trkpt>
	<trkpt lat="42.54952560" lon="1.83226485"><ele>1650.3</ele><time>2019-03-23T14:28:03Z</time></trkpt>
	<trkpt lat="42.54947399" lon="1.83223446"><ele>1650.1</ele><time>2019-03-23T14:28:08Z</time></trkpt>
	<trkpt lat="42.54942487" lon="1.83220170"><ele>1649.9</ele><time>2019-03-23T14:28:13Z</time></trkpt>
	<trkpt lat="42.54937589" lon="1.83217775"><ele>1649.7</ele><time>2019-03-23T14:28:18Z</time></trkpt>
	<trkpt lat="42.54932751" lon="1.83215048"><ele>1649.5</ele><time>2019-03-23T14:28:23Z</time></trkpt>
	<trkpt lat="42.54927902" lon="1.83212544"><ele>1649.1</ele><time>2019-03-23T14:28:28Z</time></trkpt>
	<trkpt lat="42.54922914" lon="1.83209936"><ele>1648.8</ele><time>2019-03-23T14:28:33Z</time></trkpt>
	<trkpt lat="42.54918453" lon="1.83206512"><ele>1648.4</ele><time>2019-03-23T14:28:38Z</time></trkpt>
	<trkpt lat="42.54914057" lon="1.83202821"><ele>1648.2</ele><time>2019-03-23T14:28:43Z</time></trkpt>
	<trkpt lat="42.54910277" lon="1.83198614"><ele>1648.0</ele><time>2019-03-23T14:28:48Z</time></trkpt>
	<trkpt lat="42.54906663" lon="1.83194103"><ele>1647.7</ele><time>2019-03-23T14:28:53Z</time></trkpt>
	<trkpt lat="42.54903606" lon="1.83188154"><ele>1647.3</ele><time>2019-03-23T14:28:58Z</time></trkpt>
	<trkpt lat="42.54901265" lon="1.83181836"><ele>1646.9</ele><time>2019-03-23T14:29:03Z</time></trkpt>
	<trkpt lat="42.54899830" lon="1.83175100"><ele>1646.6</ele><time>2019-03-23T14:29:08Z</time></trkpt>
	<trkpt lat="42.54899157" lon="1.83168090"><ele>1646.5</ele><time>2019-03-23T14:29:13Z</time></trkpt>
	<trkpt lat="42.54898531" lon="1.83160713"><ele>1646.4</ele><time>2019-03-23T14:29:18Z</time></trkpt>
	<trkpt lat="42.54897874" lon="1.83153452"><ele>1646.1</ele><time>2019-03-23T14:29:23Z</time></trkpt>
	<trkpt lat="42.54896832" lon="1.83146445"><ele>1646.1</ele><time>2019-03-23T14:29:28Z</time></trkpt>
	<trkpt lat="42.54897805" lon="1.83140098"><ele>1646.0</ele><time>2019-03-23T14:29:35Z</time></trkpt>
	<trkpt lat="42.54900522" lon="1.83134449"><ele>1645.5</ele><time>2019-03-23T14:29:40Z</time></trkpt>
	<trkpt lat="42.54902323" lon="1.83127971"><ele>1645.1</ele><time>2019-03-23T14:29:45Z</time></trkpt>
	<trkpt lat="42.54903349" lon="1.83121492"><ele>1644.6</ele><time>2019-03-23T14:29:50Z</time></trkpt>
	<trkpt lat="42.54904245" lon="1.83115187"><ele>1644.3</ele><time>2019-03-23T14:29:54Z</time></trkpt>
	<trkpt lat="42.54905195" lon="1.83108088"><ele>1643.9</ele><time>2019-03-23T14:29:59Z</time></trkpt>
	<trkpt lat="42.54905934" lon="1.83100881"><ele>1643.6</ele><time>2019-03-23T14:30:04Z</time></trkpt>
	<trkpt lat="42.54906526" lon="1.83093566"><ele>1643.7</ele><time>2019-03-23T14:30:09Z</time></trkpt>
	<trkpt lat="42.54907099" lon="1.83086434"><ele>1643.9</ele><time>2019-03-23T14:30:14Z</time></trkpt>
	<trkpt lat="42.54908017" lon="1.83079191"><ele>1644.1</ele><time>2019-03-23T14:30:19Z</time></trkpt>
	<trkpt lat="42.54908730" lon="1.83073059"><ele>1644.0</ele><time>2019-03-23T14:30:23Z</time></trkpt>
	<trkpt lat="42.54909442" lon="1.83066977"><ele>1643.8</ele><time>2019-03-23T14:30:27Z</time></trkpt>
	<trkpt lat="42.54910171" lon="1.83059938"><ele>1643.7</ele><time>2019-03-23T14:30:32Z</time></trkpt>
	<trkpt lat="42.54910761" lon="1.83053018"><ele>1643.3</ele><time>2019-03-23T14:30:37Z</time></trkpt>
	<trkpt lat="42.54911691" lon="1.83045846"><ele>1643.1</ele><time>2019-03-23T14:30:42Z</time></trkpt>
	<trkpt lat="42.54912585" lon="1.83039473"><ele>1642.8</ele><time>2019-03-23T14:30:46Z</time></trkpt>
	<trkpt lat="42.54911717" lon="1.83032761"><ele>1642.6</ele><time>2019-03-23T14:30:51Z</time></trkpt>
	<trkpt lat="42.54910375" lon="1.83026332"><ele>1642.1</ele><time>2019-03-23T14:30:56Z</time></trkpt>
	<trkpt lat="42.54908994" lon="1.83020218"><ele>1641.7</ele><time>2019-03-23T14:31:00Z</time></trkpt>
	<trkpt lat="42.54907340" lon="1.83012943"><ele>1641.4</ele><time>2019-03-23T14:31:05Z</time></trkpt>
	<trkpt lat="42.54905997" lon="1.83007019"><ele>1641.2</ele><time>2019-03-23T14:31:09Z</time></trkpt>
	<trkpt lat="42.54904708" lon="1.83001114"><ele>1641.0</ele><time>2019-03-23T14:31:13Z</time></trkpt>
	<trkpt lat="42.54902481" lon="1.82995232"><ele>1640.8</ele><time>2019-03-23T14:31:17Z</time></trkpt>
	<trkpt lat="42.54899867" lon="1.82988685"><ele>1640.6</ele><time>2019-03-23T14:31:22Z</time></trkpt>
	<trkpt lat="42.54897455" lon="1.82981735"><ele>1640.4</ele><time>2019-03-23T14:31:27Z</time></trkpt>
	<trkpt lat="42.54895380" lon="1.82974633"><ele>1640.1</ele><time>2019-03-23T14:31:32Z</time></trkpt>
	<trkpt lat="42.54893086" lon="1.82969196"><ele>1639.8</ele><time>2019-03-23T14:31:36Z</time></trkpt>
	<trkpt lat="42.54891954" lon="1.82963019"><ele>1640.1</ele><time>2019-03-23T14:31:44Z</time></trkpt>
	<trkpt lat="42.54887991" lon="1.82959910"><ele>1640.2</ele><time>2019-03-23T14:32:37Z</time></trkpt>
	<trkpt lat="42.54887759" lon="1.82953621"><ele>1640.2</ele><time>2019-03-23T14:33:18Z</time></trkpt>
	</trkseg>
</trk>
</gpx>